<?xml version="1.0" encoding="UTF-8" standalone="no" ?>
<gpx xmlns="http://www.topografix.com/GPX/1/1" xmlns:xsi="http://www.w3.org/2001/XMLSchema-instance" xsi:schemaLocation="http://www.topografix.com/GPX/1/1 http://www.topografix.com/GPX/1/1/gpx.xsd" version="1.1" creator="VisuGPX - https://www.visugpx.com">
  <metadata>
    <name>Cadaques J7</name>
    <desc><![CDATA[File with points/tracks from Locus Map/4.25.1]]></desc>
  </metadata>
  <trk>
    <name><![CDATA[2024-09-22 Casaques J7]]></name>
    <extensions>
      <line xmlns="http://www.topografix.com/GPX/gpx_style/0/2">
        <color>0000FF</color>
        <opacity>0.70</opacity>
        <width>6.0</width>
      </line>
    </extensions>
    <trkseg>
      <trkpt lat="42.44738" lon="3.16447">
        <ele>90.77</ele>
        <time>2024-09-22T07:03:29.999Z</time>
      </trkpt>
      <trkpt lat="42.44746" lon="3.16453">
        <ele>93.99</ele>
        <time>2024-09-22T07:10:30.999Z</time>
      </trkpt>
      <trkpt lat="42.44752" lon="3.16444">
        <ele>94.38</ele>
        <time>2024-09-22T07:11:29.999Z</time>
      </trkpt>
      <trkpt lat="42.44745" lon="3.16453">
        <ele>91.74</ele>
        <time>2024-09-22T07:17:34.000Z</time>
      </trkpt>
      <trkpt lat="42.44749" lon="3.16478">
        <ele>91.57</ele>
        <time>2024-09-22T07:17:39.000Z</time>
      </trkpt>
      <trkpt lat="42.44747" lon="3.16507">
        <ele>90.63</ele>
        <time>2024-09-22T07:17:44.000Z</time>
      </trkpt>
      <trkpt lat="42.44739" lon="3.16534">
        <ele>90.11</ele>
        <time>2024-09-22T07:17:49.000Z</time>
      </trkpt>
      <trkpt lat="42.44725" lon="3.16549">
        <ele>89.96</ele>
        <time>2024-09-22T07:17:54.000Z</time>
      </trkpt>
      <trkpt lat="42.44709" lon="3.16562">
        <ele>89.86</ele>
        <time>2024-09-22T07:17:59.000Z</time>
      </trkpt>
      <trkpt lat="42.44693" lon="3.16576">
        <ele>89.69</ele>
        <time>2024-09-22T07:18:04.000Z</time>
      </trkpt>
      <trkpt lat="42.44673" lon="3.16583">
        <ele>89.48</ele>
        <time>2024-09-22T07:18:09.000Z</time>
      </trkpt>
      <trkpt lat="42.44651" lon="3.16603">
        <ele>89.24</ele>
        <time>2024-09-22T07:18:14.000Z</time>
      </trkpt>
      <trkpt lat="42.44629" lon="3.16629">
        <ele>88.89</ele>
        <time>2024-09-22T07:18:19.000Z</time>
      </trkpt>
      <trkpt lat="42.44609" lon="3.16652">
        <ele>88.27</ele>
        <time>2024-09-22T07:18:24.000Z</time>
      </trkpt>
      <trkpt lat="42.44606" lon="3.16668">
        <ele>88.01</ele>
        <time>2024-09-22T07:18:29.000Z</time>
      </trkpt>
      <trkpt lat="42.44604" lon="3.16681">
        <ele>87.65</ele>
        <time>2024-09-22T07:18:42.000Z</time>
      </trkpt>
      <trkpt lat="42.44588" lon="3.16693">
        <ele>87.01</ele>
        <time>2024-09-22T07:18:47.000Z</time>
      </trkpt>
      <trkpt lat="42.44563" lon="3.16692">
        <ele>85</ele>
        <time>2024-09-22T07:18:52.000Z</time>
      </trkpt>
      <trkpt lat="42.44538" lon="3.16688">
        <ele>83.68</ele>
        <time>2024-09-22T07:18:57.000Z</time>
      </trkpt>
      <trkpt lat="42.44508" lon="3.16682">
        <ele>82.58</ele>
        <time>2024-09-22T07:19:02.000Z</time>
      </trkpt>
      <trkpt lat="42.44473" lon="3.16678">
        <ele>81.51</ele>
        <time>2024-09-22T07:19:07.000Z</time>
      </trkpt>
      <trkpt lat="42.44447" lon="3.16673">
        <ele>80.61</ele>
        <time>2024-09-22T07:19:12.000Z</time>
      </trkpt>
      <trkpt lat="42.44426" lon="3.16681">
        <ele>79.44</ele>
        <time>2024-09-22T07:19:17.000Z</time>
      </trkpt>
      <trkpt lat="42.44402" lon="3.16698">
        <ele>77.79</ele>
        <time>2024-09-22T07:19:22.000Z</time>
      </trkpt>
      <trkpt lat="42.44381" lon="3.16689">
        <ele>76.66</ele>
        <time>2024-09-22T07:19:27.000Z</time>
      </trkpt>
      <trkpt lat="42.4436" lon="3.16659">
        <ele>74.97</ele>
        <time>2024-09-22T07:19:32.000Z</time>
      </trkpt>
      <trkpt lat="42.44347" lon="3.16644">
        <ele>74.22</ele>
        <time>2024-09-22T07:19:37.000Z</time>
      </trkpt>
      <trkpt lat="42.44329" lon="3.1663">
        <ele>72.89</ele>
        <time>2024-09-22T07:19:42.000Z</time>
      </trkpt>
      <trkpt lat="42.44316" lon="3.16613">
        <ele>72.49</ele>
        <time>2024-09-22T07:19:47.000Z</time>
      </trkpt>
      <trkpt lat="42.44304" lon="3.16581">
        <ele>69.09</ele>
        <time>2024-09-22T07:19:52.000Z</time>
      </trkpt>
      <trkpt lat="42.44294" lon="3.16544">
        <ele>67.96</ele>
        <time>2024-09-22T07:19:57.000Z</time>
      </trkpt>
      <trkpt lat="42.44281" lon="3.16547">
        <ele>67.7</ele>
        <time>2024-09-22T07:20:02.000Z</time>
      </trkpt>
      <trkpt lat="42.44286" lon="3.16577">
        <ele>67.9</ele>
        <time>2024-09-22T07:20:07.000Z</time>
      </trkpt>
      <trkpt lat="42.44286" lon="3.16603">
        <ele>67.73</ele>
        <time>2024-09-22T07:20:12.000Z</time>
      </trkpt>
      <trkpt lat="42.44285" lon="3.16616">
        <ele>67.6</ele>
        <time>2024-09-22T07:20:34.000Z</time>
      </trkpt>
      <trkpt lat="42.44274" lon="3.16632">
        <ele>67.26</ele>
        <time>2024-09-22T07:20:39.000Z</time>
      </trkpt>
      <trkpt lat="42.44262" lon="3.16644">
        <ele>66.81</ele>
        <time>2024-09-22T07:20:44.000Z</time>
      </trkpt>
      <trkpt lat="42.44248" lon="3.16653">
        <ele>66.35</ele>
        <time>2024-09-22T07:20:49.000Z</time>
      </trkpt>
      <trkpt lat="42.44245" lon="3.16667">
        <ele>65.46</ele>
        <time>2024-09-22T07:21:03.000Z</time>
      </trkpt>
      <trkpt lat="42.44244" lon="3.16681">
        <ele>64.99</ele>
        <time>2024-09-22T07:21:08.000Z</time>
      </trkpt>
      <trkpt lat="42.44249" lon="3.16702">
        <ele>63.19</ele>
        <time>2024-09-22T07:21:13.000Z</time>
      </trkpt>
      <trkpt lat="42.44241" lon="3.16716">
        <ele>62.85</ele>
        <time>2024-09-22T07:21:18.000Z</time>
      </trkpt>
      <trkpt lat="42.44226" lon="3.16716">
        <ele>62.21</ele>
        <time>2024-09-22T07:21:23.000Z</time>
      </trkpt>
      <trkpt lat="42.44217" lon="3.16688">
        <ele>60.25</ele>
        <time>2024-09-22T07:21:28.000Z</time>
      </trkpt>
      <trkpt lat="42.44225" lon="3.16638">
        <ele>58.09</ele>
        <time>2024-09-22T07:21:33.000Z</time>
      </trkpt>
      <trkpt lat="42.44241" lon="3.16601">
        <ele>55.37</ele>
        <time>2024-09-22T07:21:38.000Z</time>
      </trkpt>
      <trkpt lat="42.44223" lon="3.16573">
        <ele>53.72</ele>
        <time>2024-09-22T07:21:43.000Z</time>
      </trkpt>
      <trkpt lat="42.44202" lon="3.1656">
        <ele>52.39</ele>
        <time>2024-09-22T07:21:48.000Z</time>
      </trkpt>
      <trkpt lat="42.44186" lon="3.16546">
        <ele>50.92</ele>
        <time>2024-09-22T07:21:53.000Z</time>
      </trkpt>
      <trkpt lat="42.4417" lon="3.16534">
        <ele>50.31</ele>
        <time>2024-09-22T07:21:58.000Z</time>
      </trkpt>
      <trkpt lat="42.44153" lon="3.16526">
        <ele>49.95</ele>
        <time>2024-09-22T07:22:03.000Z</time>
      </trkpt>
      <trkpt lat="42.4414" lon="3.16526">
        <ele>49.5</ele>
        <time>2024-09-22T07:22:08.000Z</time>
      </trkpt>
      <trkpt lat="42.44132" lon="3.16534">
        <ele>46.89</ele>
        <time>2024-09-22T07:22:59.000Z</time>
      </trkpt>
      <trkpt lat="42.44119" lon="3.16543">
        <ele>46.02</ele>
        <time>2024-09-22T07:23:04.000Z</time>
      </trkpt>
      <trkpt lat="42.44107" lon="3.16555">
        <ele>45.16</ele>
        <time>2024-09-22T07:23:09.000Z</time>
      </trkpt>
      <trkpt lat="42.44094" lon="3.1657">
        <ele>44.35</ele>
        <time>2024-09-22T07:23:14.000Z</time>
      </trkpt>
      <trkpt lat="42.44081" lon="3.16589">
        <ele>43.57</ele>
        <time>2024-09-22T07:23:19.000Z</time>
      </trkpt>
      <trkpt lat="42.44068" lon="3.16606">
        <ele>40.66</ele>
        <time>2024-09-22T07:23:24.000Z</time>
      </trkpt>
      <trkpt lat="42.44051" lon="3.16613">
        <ele>39.87</ele>
        <time>2024-09-22T07:23:29.000Z</time>
      </trkpt>
      <trkpt lat="42.44038" lon="3.16611">
        <ele>39.34</ele>
        <time>2024-09-22T07:23:34.000Z</time>
      </trkpt>
      <trkpt lat="42.44026" lon="3.16619">
        <ele>38.79</ele>
        <time>2024-09-22T07:23:39.000Z</time>
      </trkpt>
      <trkpt lat="42.44017" lon="3.1663">
        <ele>38.22</ele>
        <time>2024-09-22T07:23:44.000Z</time>
      </trkpt>
      <trkpt lat="42.44008" lon="3.16643">
        <ele>37.63</ele>
        <time>2024-09-22T07:23:49.000Z</time>
      </trkpt>
      <trkpt lat="42.44002" lon="3.16657">
        <ele>37.02</ele>
        <time>2024-09-22T07:23:54.000Z</time>
      </trkpt>
      <trkpt lat="42.43999" lon="3.16672">
        <ele>36.38</ele>
        <time>2024-09-22T07:23:59.000Z</time>
      </trkpt>
      <trkpt lat="42.43998" lon="3.16686">
        <ele>35.75</ele>
        <time>2024-09-22T07:24:04.000Z</time>
      </trkpt>
      <trkpt lat="42.43998" lon="3.16699">
        <ele>35.18</ele>
        <time>2024-09-22T07:24:09.000Z</time>
      </trkpt>
      <trkpt lat="42.44" lon="3.16713">
        <ele>34.58</ele>
        <time>2024-09-22T07:24:15.000Z</time>
      </trkpt>
      <trkpt lat="42.44004" lon="3.16725">
        <ele>33.89</ele>
        <time>2024-09-22T07:24:23.000Z</time>
      </trkpt>
      <trkpt lat="42.44013" lon="3.16732">
        <ele>33.49</ele>
        <time>2024-09-22T07:24:29.000Z</time>
      </trkpt>
      <trkpt lat="42.44021" lon="3.1674">
        <ele>33.27</ele>
        <time>2024-09-22T07:24:34.000Z</time>
      </trkpt>
      <trkpt lat="42.44029" lon="3.16748">
        <ele>33.1</ele>
        <time>2024-09-22T07:24:40.000Z</time>
      </trkpt>
      <trkpt lat="42.44033" lon="3.16759">
        <ele>33.04</ele>
        <time>2024-09-22T07:24:46.000Z</time>
      </trkpt>
      <trkpt lat="42.44033" lon="3.16772">
        <ele>33.16</ele>
        <time>2024-09-22T07:24:53.000Z</time>
      </trkpt>
      <trkpt lat="42.4403" lon="3.16785">
        <ele>33.31</ele>
        <time>2024-09-22T07:25:00.000Z</time>
      </trkpt>
      <trkpt lat="42.44026" lon="3.16797">
        <ele>33.4</ele>
        <time>2024-09-22T07:25:07.000Z</time>
      </trkpt>
      <trkpt lat="42.44022" lon="3.16809">
        <ele>33.45</ele>
        <time>2024-09-22T07:25:15.000Z</time>
      </trkpt>
      <trkpt lat="42.44021" lon="3.16823">
        <ele>33.61</ele>
        <time>2024-09-22T07:25:22.000Z</time>
      </trkpt>
      <trkpt lat="42.44019" lon="3.16837">
        <ele>33.83</ele>
        <time>2024-09-22T07:25:28.999Z</time>
      </trkpt>
      <trkpt lat="42.44012" lon="3.16846">
        <ele>34.07</ele>
        <time>2024-09-22T07:25:35.999Z</time>
      </trkpt>
      <trkpt lat="42.44007" lon="3.16856">
        <ele>34.28</ele>
        <time>2024-09-22T07:25:41.999Z</time>
      </trkpt>
      <trkpt lat="42.44001" lon="3.16867">
        <ele>34.48</ele>
        <time>2024-09-22T07:25:47.999Z</time>
      </trkpt>
      <trkpt lat="42.43995" lon="3.16877">
        <ele>34.68</ele>
        <time>2024-09-22T07:25:53.999Z</time>
      </trkpt>
      <trkpt lat="42.43988" lon="3.16885">
        <ele>34.92</ele>
        <time>2024-09-22T07:26:00.999Z</time>
      </trkpt>
      <trkpt lat="42.43979" lon="3.1689">
        <ele>35.15</ele>
        <time>2024-09-22T07:26:07.999Z</time>
      </trkpt>
      <trkpt lat="42.43971" lon="3.16894">
        <ele>35.36</ele>
        <time>2024-09-22T07:26:13.999Z</time>
      </trkpt>
      <trkpt lat="42.43962" lon="3.16899">
        <ele>35.64</ele>
        <time>2024-09-22T07:26:20.999Z</time>
      </trkpt>
      <trkpt lat="42.43953" lon="3.16903">
        <ele>35.93</ele>
        <time>2024-09-22T07:26:26.999Z</time>
      </trkpt>
      <trkpt lat="42.43943" lon="3.16907">
        <ele>36.31</ele>
        <time>2024-09-22T07:26:33.999Z</time>
      </trkpt>
      <trkpt lat="42.43934" lon="3.16911">
        <ele>36.63</ele>
        <time>2024-09-22T07:26:39.999Z</time>
      </trkpt>
      <trkpt lat="42.43925" lon="3.16914">
        <ele>36.96</ele>
        <time>2024-09-22T07:26:45.999Z</time>
      </trkpt>
      <trkpt lat="42.43916" lon="3.16918">
        <ele>37.26</ele>
        <time>2024-09-22T07:26:51.999Z</time>
      </trkpt>
      <trkpt lat="42.43907" lon="3.16923">
        <ele>37.56</ele>
        <time>2024-09-22T07:26:57.999Z</time>
      </trkpt>
      <trkpt lat="42.43901" lon="3.16935">
        <ele>37.84</ele>
        <time>2024-09-22T07:27:03.999Z</time>
      </trkpt>
      <trkpt lat="42.43902" lon="3.1695">
        <ele>38.07</ele>
        <time>2024-09-22T07:27:08.999Z</time>
      </trkpt>
      <trkpt lat="42.43909" lon="3.16962">
        <ele>38.32</ele>
        <time>2024-09-22T07:27:13.999Z</time>
      </trkpt>
      <trkpt lat="42.4392" lon="3.16966">
        <ele>38.57</ele>
        <time>2024-09-22T07:27:18.999Z</time>
      </trkpt>
      <trkpt lat="42.43929" lon="3.16973">
        <ele>38.81</ele>
        <time>2024-09-22T07:27:23.999Z</time>
      </trkpt>
      <trkpt lat="42.43941" lon="3.16979">
        <ele>39.04</ele>
        <time>2024-09-22T07:27:28.999Z</time>
      </trkpt>
      <trkpt lat="42.43953" lon="3.16985">
        <ele>39.26</ele>
        <time>2024-09-22T07:27:33.999Z</time>
      </trkpt>
      <trkpt lat="42.43964" lon="3.16989">
        <ele>39.46</ele>
        <time>2024-09-22T07:27:38.999Z</time>
      </trkpt>
      <trkpt lat="42.43976" lon="3.16996">
        <ele>39.65</ele>
        <time>2024-09-22T07:27:43.999Z</time>
      </trkpt>
      <trkpt lat="42.43986" lon="3.17001">
        <ele>39.81</ele>
        <time>2024-09-22T07:27:48.999Z</time>
      </trkpt>
      <trkpt lat="42.43996" lon="3.17011">
        <ele>39.95</ele>
        <time>2024-09-22T07:27:53.999Z</time>
      </trkpt>
      <trkpt lat="42.43997" lon="3.17027">
        <ele>40.09</ele>
        <time>2024-09-22T07:27:58.999Z</time>
      </trkpt>
      <trkpt lat="42.4399" lon="3.17041">
        <ele>40.21</ele>
        <time>2024-09-22T07:28:03.999Z</time>
      </trkpt>
      <trkpt lat="42.43983" lon="3.17054">
        <ele>40.32</ele>
        <time>2024-09-22T07:28:08.999Z</time>
      </trkpt>
      <trkpt lat="42.43974" lon="3.17067">
        <ele>40.44</ele>
        <time>2024-09-22T07:28:13.999Z</time>
      </trkpt>
      <trkpt lat="42.43964" lon="3.1708">
        <ele>40.55</ele>
        <time>2024-09-22T07:28:18.999Z</time>
      </trkpt>
      <trkpt lat="42.43955" lon="3.17095">
        <ele>40.67</ele>
        <time>2024-09-22T07:28:23.999Z</time>
      </trkpt>
      <trkpt lat="42.43946" lon="3.17109">
        <ele>40.81</ele>
        <time>2024-09-22T07:28:28.999Z</time>
      </trkpt>
      <trkpt lat="42.43937" lon="3.17123">
        <ele>40.96</ele>
        <time>2024-09-22T07:28:33.999Z</time>
      </trkpt>
      <trkpt lat="42.43927" lon="3.17137">
        <ele>41.12</ele>
        <time>2024-09-22T07:28:38.999Z</time>
      </trkpt>
      <trkpt lat="42.43917" lon="3.17152">
        <ele>41.29</ele>
        <time>2024-09-22T07:28:43.999Z</time>
      </trkpt>
      <trkpt lat="42.43908" lon="3.17167">
        <ele>41.47</ele>
        <time>2024-09-22T07:28:48.999Z</time>
      </trkpt>
      <trkpt lat="42.43904" lon="3.17184">
        <ele>41.64</ele>
        <time>2024-09-22T07:28:53.999Z</time>
      </trkpt>
      <trkpt lat="42.43912" lon="3.172">
        <ele>41.81</ele>
        <time>2024-09-22T07:28:58.999Z</time>
      </trkpt>
      <trkpt lat="42.43924" lon="3.17204">
        <ele>41.97</ele>
        <time>2024-09-22T07:29:03.999Z</time>
      </trkpt>
      <trkpt lat="42.43934" lon="3.17206">
        <ele>42.12</ele>
        <time>2024-09-22T07:29:08.999Z</time>
      </trkpt>
      <trkpt lat="42.43946" lon="3.17209">
        <ele>42.27</ele>
        <time>2024-09-22T07:29:13.999Z</time>
      </trkpt>
      <trkpt lat="42.43961" lon="3.17214">
        <ele>42.41</ele>
        <time>2024-09-22T07:29:18.999Z</time>
      </trkpt>
      <trkpt lat="42.43976" lon="3.17218">
        <ele>42.54</ele>
        <time>2024-09-22T07:29:23.999Z</time>
      </trkpt>
      <trkpt lat="42.43992" lon="3.17223">
        <ele>42.67</ele>
        <time>2024-09-22T07:29:28.999Z</time>
      </trkpt>
      <trkpt lat="42.44005" lon="3.17231">
        <ele>42.81</ele>
        <time>2024-09-22T07:29:33.999Z</time>
      </trkpt>
      <trkpt lat="42.44015" lon="3.17246">
        <ele>42.94</ele>
        <time>2024-09-22T07:29:38.999Z</time>
      </trkpt>
      <trkpt lat="42.44018" lon="3.17268">
        <ele>43.06</ele>
        <time>2024-09-22T07:29:43.999Z</time>
      </trkpt>
      <trkpt lat="42.44019" lon="3.17292">
        <ele>43.18</ele>
        <time>2024-09-22T07:29:48.999Z</time>
      </trkpt>
      <trkpt lat="42.44021" lon="3.17317">
        <ele>43.3</ele>
        <time>2024-09-22T07:29:53.999Z</time>
      </trkpt>
      <trkpt lat="42.44022" lon="3.17341">
        <ele>43.73</ele>
        <time>2024-09-22T07:29:58.999Z</time>
      </trkpt>
      <trkpt lat="42.44023" lon="3.17365">
        <ele>44.32</ele>
        <time>2024-09-22T07:30:03.999Z</time>
      </trkpt>
      <trkpt lat="42.44025" lon="3.1739">
        <ele>44.52</ele>
        <time>2024-09-22T07:30:08.999Z</time>
      </trkpt>
      <trkpt lat="42.44027" lon="3.17415">
        <ele>44.66</ele>
        <time>2024-09-22T07:30:13.999Z</time>
      </trkpt>
      <trkpt lat="42.44028" lon="3.17443">
        <ele>44.85</ele>
        <time>2024-09-22T07:30:18.999Z</time>
      </trkpt>
      <trkpt lat="42.44029" lon="3.17469">
        <ele>44.9</ele>
        <time>2024-09-22T07:30:23.999Z</time>
      </trkpt>
      <trkpt lat="42.44029" lon="3.17495">
        <ele>44.96</ele>
        <time>2024-09-22T07:30:28.999Z</time>
      </trkpt>
      <trkpt lat="42.44029" lon="3.17519">
        <ele>45.05</ele>
        <time>2024-09-22T07:30:33.999Z</time>
      </trkpt>
      <trkpt lat="42.44028" lon="3.17539">
        <ele>45.16</ele>
        <time>2024-09-22T07:30:38.999Z</time>
      </trkpt>
      <trkpt lat="42.44026" lon="3.17555">
        <ele>45.27</ele>
        <time>2024-09-22T07:30:43.999Z</time>
      </trkpt>
      <trkpt lat="42.44026" lon="3.17568">
        <ele>45.43</ele>
        <time>2024-09-22T07:30:49.999Z</time>
      </trkpt>
      <trkpt lat="42.44017" lon="3.17557">
        <ele>49.33</ele>
        <time>2024-09-22T07:35:02.999Z</time>
      </trkpt>
      <trkpt lat="42.44006" lon="3.17549">
        <ele>49.64</ele>
        <time>2024-09-22T07:35:07.999Z</time>
      </trkpt>
      <trkpt lat="42.43999" lon="3.17538">
        <ele>49.99</ele>
        <time>2024-09-22T07:35:13.999Z</time>
      </trkpt>
      <trkpt lat="42.43999" lon="3.17521">
        <ele>50.26</ele>
        <time>2024-09-22T07:35:18.999Z</time>
      </trkpt>
      <trkpt lat="42.44004" lon="3.17503">
        <ele>50.51</ele>
        <time>2024-09-22T07:35:23.999Z</time>
      </trkpt>
      <trkpt lat="42.44009" lon="3.17487">
        <ele>50.75</ele>
        <time>2024-09-22T07:35:28.999Z</time>
      </trkpt>
      <trkpt lat="42.44014" lon="3.17471">
        <ele>50.98</ele>
        <time>2024-09-22T07:35:33.999Z</time>
      </trkpt>
      <trkpt lat="42.44018" lon="3.17456">
        <ele>51.19</ele>
        <time>2024-09-22T07:35:38.999Z</time>
      </trkpt>
      <trkpt lat="42.44023" lon="3.1744">
        <ele>51.4</ele>
        <time>2024-09-22T07:35:43.999Z</time>
      </trkpt>
      <trkpt lat="42.44025" lon="3.17424">
        <ele>51.6</ele>
        <time>2024-09-22T07:35:48.999Z</time>
      </trkpt>
      <trkpt lat="42.44024" lon="3.17408">
        <ele>51.78</ele>
        <time>2024-09-22T07:35:53.999Z</time>
      </trkpt>
      <trkpt lat="42.4402" lon="3.17392">
        <ele>51.96</ele>
        <time>2024-09-22T07:35:58.999Z</time>
      </trkpt>
      <trkpt lat="42.44016" lon="3.17377">
        <ele>52.14</ele>
        <time>2024-09-22T07:36:03.999Z</time>
      </trkpt>
      <trkpt lat="42.44013" lon="3.17363">
        <ele>52.3</ele>
        <time>2024-09-22T07:36:08.999Z</time>
      </trkpt>
      <trkpt lat="42.44008" lon="3.1735">
        <ele>52.46</ele>
        <time>2024-09-22T07:36:13.999Z</time>
      </trkpt>
      <trkpt lat="42.44003" lon="3.17336">
        <ele>52.61</ele>
        <time>2024-09-22T07:36:18.999Z</time>
      </trkpt>
      <trkpt lat="42.43997" lon="3.17323">
        <ele>52.76</ele>
        <time>2024-09-22T07:36:23.999Z</time>
      </trkpt>
      <trkpt lat="42.43988" lon="3.17313">
        <ele>52.91</ele>
        <time>2024-09-22T07:36:28.999Z</time>
      </trkpt>
      <trkpt lat="42.43979" lon="3.17304">
        <ele>53.06</ele>
        <time>2024-09-22T07:36:33.999Z</time>
      </trkpt>
      <trkpt lat="42.43969" lon="3.17295">
        <ele>53.2</ele>
        <time>2024-09-22T07:36:38.999Z</time>
      </trkpt>
      <trkpt lat="42.43959" lon="3.17286">
        <ele>53.35</ele>
        <time>2024-09-22T07:36:43.999Z</time>
      </trkpt>
      <trkpt lat="42.4395" lon="3.17278">
        <ele>53.49</ele>
        <time>2024-09-22T07:36:48.999Z</time>
      </trkpt>
      <trkpt lat="42.4394" lon="3.17271">
        <ele>53.63</ele>
        <time>2024-09-22T07:36:53.999Z</time>
      </trkpt>
      <trkpt lat="42.4393" lon="3.17264">
        <ele>53.77</ele>
        <time>2024-09-22T07:36:58.999Z</time>
      </trkpt>
      <trkpt lat="42.43918" lon="3.17259">
        <ele>53.92</ele>
        <time>2024-09-22T07:37:03.999Z</time>
      </trkpt>
      <trkpt lat="42.43906" lon="3.17259">
        <ele>54.06</ele>
        <time>2024-09-22T07:37:08.999Z</time>
      </trkpt>
      <trkpt lat="42.43894" lon="3.17257">
        <ele>54.21</ele>
        <time>2024-09-22T07:37:13.999Z</time>
      </trkpt>
      <trkpt lat="42.43883" lon="3.17254">
        <ele>54.36</ele>
        <time>2024-09-22T07:37:18.999Z</time>
      </trkpt>
      <trkpt lat="42.43872" lon="3.17247">
        <ele>54.52</ele>
        <time>2024-09-22T07:37:23.999Z</time>
      </trkpt>
      <trkpt lat="42.43862" lon="3.17238">
        <ele>54.67</ele>
        <time>2024-09-22T07:37:28.999Z</time>
      </trkpt>
      <trkpt lat="42.43856" lon="3.17225">
        <ele>54.83</ele>
        <time>2024-09-22T07:37:33.999Z</time>
      </trkpt>
      <trkpt lat="42.43857" lon="3.17208">
        <ele>54.99</ele>
        <time>2024-09-22T07:37:38.999Z</time>
      </trkpt>
      <trkpt lat="42.43862" lon="3.17193">
        <ele>55.14</ele>
        <time>2024-09-22T07:37:44.000Z</time>
      </trkpt>
      <trkpt lat="42.43868" lon="3.17178">
        <ele>55.31</ele>
        <time>2024-09-22T07:37:49.000Z</time>
      </trkpt>
      <trkpt lat="42.43873" lon="3.17165">
        <ele>55.47</ele>
        <time>2024-09-22T07:37:54.000Z</time>
      </trkpt>
      <trkpt lat="42.43878" lon="3.1715">
        <ele>55.63</ele>
        <time>2024-09-22T07:37:59.000Z</time>
      </trkpt>
      <trkpt lat="42.43883" lon="3.17137">
        <ele>55.79</ele>
        <time>2024-09-22T07:38:04.000Z</time>
      </trkpt>
      <trkpt lat="42.43888" lon="3.17122">
        <ele>55.95</ele>
        <time>2024-09-22T07:38:09.000Z</time>
      </trkpt>
      <trkpt lat="42.43893" lon="3.17107">
        <ele>56.12</ele>
        <time>2024-09-22T07:38:14.000Z</time>
      </trkpt>
      <trkpt lat="42.43899" lon="3.17095">
        <ele>56.29</ele>
        <time>2024-09-22T07:38:19.000Z</time>
      </trkpt>
      <trkpt lat="42.43903" lon="3.17082">
        <ele>56.45</ele>
        <time>2024-09-22T07:38:24.000Z</time>
      </trkpt>
      <trkpt lat="42.43905" lon="3.17069">
        <ele>56.62</ele>
        <time>2024-09-22T07:38:29.000Z</time>
      </trkpt>
      <trkpt lat="42.43903" lon="3.17055">
        <ele>56.8</ele>
        <time>2024-09-22T07:38:34.000Z</time>
      </trkpt>
      <trkpt lat="42.43899" lon="3.17043">
        <ele>56.97</ele>
        <time>2024-09-22T07:38:39.000Z</time>
      </trkpt>
      <trkpt lat="42.43891" lon="3.17034">
        <ele>57.15</ele>
        <time>2024-09-22T07:38:44.000Z</time>
      </trkpt>
      <trkpt lat="42.43883" lon="3.17026">
        <ele>57.33</ele>
        <time>2024-09-22T07:38:49.000Z</time>
      </trkpt>
      <trkpt lat="42.43873" lon="3.1702">
        <ele>57.51</ele>
        <time>2024-09-22T07:38:54.000Z</time>
      </trkpt>
      <trkpt lat="42.43864" lon="3.17014">
        <ele>57.7</ele>
        <time>2024-09-22T07:38:59.000Z</time>
      </trkpt>
      <trkpt lat="42.43854" lon="3.17008">
        <ele>57.9</ele>
        <time>2024-09-22T07:39:04.000Z</time>
      </trkpt>
      <trkpt lat="42.43845" lon="3.17002">
        <ele>58.09</ele>
        <time>2024-09-22T07:39:09.000Z</time>
      </trkpt>
      <trkpt lat="42.43835" lon="3.16998">
        <ele>58.29</ele>
        <time>2024-09-22T07:39:14.000Z</time>
      </trkpt>
      <trkpt lat="42.43825" lon="3.16994">
        <ele>58.5</ele>
        <time>2024-09-22T07:39:19.000Z</time>
      </trkpt>
      <trkpt lat="42.43815" lon="3.16992">
        <ele>58.71</ele>
        <time>2024-09-22T07:39:24.000Z</time>
      </trkpt>
      <trkpt lat="42.43804" lon="3.16991">
        <ele>58.94</ele>
        <time>2024-09-22T07:39:29.000Z</time>
      </trkpt>
      <trkpt lat="42.43794" lon="3.16989">
        <ele>59.27</ele>
        <time>2024-09-22T07:39:34.000Z</time>
      </trkpt>
      <trkpt lat="42.43783" lon="3.16985">
        <ele>59.63</ele>
        <time>2024-09-22T07:39:39.000Z</time>
      </trkpt>
      <trkpt lat="42.43774" lon="3.16976">
        <ele>60.05</ele>
        <time>2024-09-22T07:39:44.000Z</time>
      </trkpt>
      <trkpt lat="42.43768" lon="3.16964">
        <ele>60.51</ele>
        <time>2024-09-22T07:39:49.000Z</time>
      </trkpt>
      <trkpt lat="42.43764" lon="3.1695">
        <ele>60.96</ele>
        <time>2024-09-22T07:39:54.000Z</time>
      </trkpt>
      <trkpt lat="42.4376" lon="3.16937">
        <ele>61.39</ele>
        <time>2024-09-22T07:39:59.000Z</time>
      </trkpt>
      <trkpt lat="42.43757" lon="3.16924">
        <ele>61.79</ele>
        <time>2024-09-22T07:40:04.000Z</time>
      </trkpt>
      <trkpt lat="42.43759" lon="3.16911">
        <ele>62.19</ele>
        <time>2024-09-22T07:40:09.000Z</time>
      </trkpt>
      <trkpt lat="42.43766" lon="3.16901">
        <ele>62.59</ele>
        <time>2024-09-22T07:40:14.000Z</time>
      </trkpt>
      <trkpt lat="42.43776" lon="3.16895">
        <ele>63</ele>
        <time>2024-09-22T07:40:19.000Z</time>
      </trkpt>
      <trkpt lat="42.43785" lon="3.16888">
        <ele>63.4</ele>
        <time>2024-09-22T07:40:24.000Z</time>
      </trkpt>
      <trkpt lat="42.43793" lon="3.16881">
        <ele>63.82</ele>
        <time>2024-09-22T07:40:29.000Z</time>
      </trkpt>
      <trkpt lat="42.43802" lon="3.16874">
        <ele>64.25</ele>
        <time>2024-09-22T07:40:34.000Z</time>
      </trkpt>
      <trkpt lat="42.43811" lon="3.16867">
        <ele>64.69</ele>
        <time>2024-09-22T07:40:39.000Z</time>
      </trkpt>
      <trkpt lat="42.4382" lon="3.1686">
        <ele>65.15</ele>
        <time>2024-09-22T07:40:44.000Z</time>
      </trkpt>
      <trkpt lat="42.43831" lon="3.16852">
        <ele>65.69</ele>
        <time>2024-09-22T07:40:49.000Z</time>
      </trkpt>
      <trkpt lat="42.43839" lon="3.16843">
        <ele>66.35</ele>
        <time>2024-09-22T07:40:54.000Z</time>
      </trkpt>
      <trkpt lat="42.43848" lon="3.16836">
        <ele>67.09</ele>
        <time>2024-09-22T07:40:59.000Z</time>
      </trkpt>
      <trkpt lat="42.43855" lon="3.16826">
        <ele>67.89</ele>
        <time>2024-09-22T07:41:04.000Z</time>
      </trkpt>
      <trkpt lat="42.43858" lon="3.16813">
        <ele>68.73</ele>
        <time>2024-09-22T07:41:09.000Z</time>
      </trkpt>
      <trkpt lat="42.43856" lon="3.16799">
        <ele>69.6</ele>
        <time>2024-09-22T07:41:14.000Z</time>
      </trkpt>
      <trkpt lat="42.43851" lon="3.16786">
        <ele>70.47</ele>
        <time>2024-09-22T07:41:19.000Z</time>
      </trkpt>
      <trkpt lat="42.43845" lon="3.16773">
        <ele>71.35</ele>
        <time>2024-09-22T07:41:24.000Z</time>
      </trkpt>
      <trkpt lat="42.43839" lon="3.16762">
        <ele>72.23</ele>
        <time>2024-09-22T07:41:29.000Z</time>
      </trkpt>
      <trkpt lat="42.43832" lon="3.16753">
        <ele>73.1</ele>
        <time>2024-09-22T07:41:34.000Z</time>
      </trkpt>
      <trkpt lat="42.43823" lon="3.16748">
        <ele>74.15</ele>
        <time>2024-09-22T07:41:40.000Z</time>
      </trkpt>
      <trkpt lat="42.43813" lon="3.16747">
        <ele>77.82</ele>
        <time>2024-09-22T07:42:38.000Z</time>
      </trkpt>
      <trkpt lat="42.43802" lon="3.16748">
        <ele>78.99</ele>
        <time>2024-09-22T07:42:43.000Z</time>
      </trkpt>
      <trkpt lat="42.43792" lon="3.16746">
        <ele>80.09</ele>
        <time>2024-09-22T07:42:48.000Z</time>
      </trkpt>
      <trkpt lat="42.43783" lon="3.16743">
        <ele>81.13</ele>
        <time>2024-09-22T07:42:53.000Z</time>
      </trkpt>
      <trkpt lat="42.43773" lon="3.1674">
        <ele>82.1</ele>
        <time>2024-09-22T07:42:58.000Z</time>
      </trkpt>
      <trkpt lat="42.43764" lon="3.16737">
        <ele>83.01</ele>
        <time>2024-09-22T07:43:03.000Z</time>
      </trkpt>
      <trkpt lat="42.43754" lon="3.16735">
        <ele>83.87</ele>
        <time>2024-09-22T07:43:08.000Z</time>
      </trkpt>
      <trkpt lat="42.43744" lon="3.16733">
        <ele>84.68</ele>
        <time>2024-09-22T07:43:13.000Z</time>
      </trkpt>
      <trkpt lat="42.43733" lon="3.16731">
        <ele>85.44</ele>
        <time>2024-09-22T07:43:18.000Z</time>
      </trkpt>
      <trkpt lat="42.43723" lon="3.16729">
        <ele>86.13</ele>
        <time>2024-09-22T07:43:23.000Z</time>
      </trkpt>
      <trkpt lat="42.43714" lon="3.16724">
        <ele>86.76</ele>
        <time>2024-09-22T07:43:28.000Z</time>
      </trkpt>
      <trkpt lat="42.43707" lon="3.16716">
        <ele>87.35</ele>
        <time>2024-09-22T07:43:33.000Z</time>
      </trkpt>
      <trkpt lat="42.43706" lon="3.16701">
        <ele>87.89</ele>
        <time>2024-09-22T07:43:38.000Z</time>
      </trkpt>
      <trkpt lat="42.43709" lon="3.16687">
        <ele>88.39</ele>
        <time>2024-09-22T07:43:43.000Z</time>
      </trkpt>
      <trkpt lat="42.43713" lon="3.16673">
        <ele>88.86</ele>
        <time>2024-09-22T07:43:48.000Z</time>
      </trkpt>
      <trkpt lat="42.43719" lon="3.1666">
        <ele>89.31</ele>
        <time>2024-09-22T07:43:53.000Z</time>
      </trkpt>
      <trkpt lat="42.43727" lon="3.1665">
        <ele>89.79</ele>
        <time>2024-09-22T07:43:58.000Z</time>
      </trkpt>
      <trkpt lat="42.43735" lon="3.1664">
        <ele>90.28</ele>
        <time>2024-09-22T07:44:03.000Z</time>
      </trkpt>
      <trkpt lat="42.43743" lon="3.16631">
        <ele>90.8</ele>
        <time>2024-09-22T07:44:08.000Z</time>
      </trkpt>
      <trkpt lat="42.4375" lon="3.16621">
        <ele>91.32</ele>
        <time>2024-09-22T07:44:13.000Z</time>
      </trkpt>
      <trkpt lat="42.43755" lon="3.1661">
        <ele>91.85</ele>
        <time>2024-09-22T07:44:18.000Z</time>
      </trkpt>
      <trkpt lat="42.43757" lon="3.16597">
        <ele>95.05</ele>
        <time>2024-09-22T07:45:42.000Z</time>
      </trkpt>
      <trkpt lat="42.43759" lon="3.16583">
        <ele>95.91</ele>
        <time>2024-09-22T07:45:47.000Z</time>
      </trkpt>
      <trkpt lat="42.43768" lon="3.16572">
        <ele>96.71</ele>
        <time>2024-09-22T07:45:52.000Z</time>
      </trkpt>
      <trkpt lat="42.43778" lon="3.16566">
        <ele>97.46</ele>
        <time>2024-09-22T07:45:57.000Z</time>
      </trkpt>
      <trkpt lat="42.43788" lon="3.16559">
        <ele>98.17</ele>
        <time>2024-09-22T07:46:02.000Z</time>
      </trkpt>
      <trkpt lat="42.43797" lon="3.16552">
        <ele>98.83</ele>
        <time>2024-09-22T07:46:07.000Z</time>
      </trkpt>
      <trkpt lat="42.43806" lon="3.16544">
        <ele>99.45</ele>
        <time>2024-09-22T07:46:12.000Z</time>
      </trkpt>
      <trkpt lat="42.43813" lon="3.16536">
        <ele>100.04</ele>
        <time>2024-09-22T07:46:17.000Z</time>
      </trkpt>
      <trkpt lat="42.4382" lon="3.16527">
        <ele>100.58</ele>
        <time>2024-09-22T07:46:22.000Z</time>
      </trkpt>
      <trkpt lat="42.43824" lon="3.16514">
        <ele>101.11</ele>
        <time>2024-09-22T07:46:27.000Z</time>
      </trkpt>
      <trkpt lat="42.43826" lon="3.165">
        <ele>101.6</ele>
        <time>2024-09-22T07:46:32.000Z</time>
      </trkpt>
      <trkpt lat="42.43828" lon="3.16486">
        <ele>102.08</ele>
        <time>2024-09-22T07:46:37.000Z</time>
      </trkpt>
      <trkpt lat="42.43829" lon="3.16472">
        <ele>102.53</ele>
        <time>2024-09-22T07:46:42.000Z</time>
      </trkpt>
      <trkpt lat="42.43831" lon="3.16459">
        <ele>102.97</ele>
        <time>2024-09-22T07:46:47.000Z</time>
      </trkpt>
      <trkpt lat="42.43834" lon="3.16445">
        <ele>103.39</ele>
        <time>2024-09-22T07:46:52.000Z</time>
      </trkpt>
      <trkpt lat="42.43836" lon="3.16431">
        <ele>103.8</ele>
        <time>2024-09-22T07:46:57.000Z</time>
      </trkpt>
      <trkpt lat="42.4384" lon="3.16418">
        <ele>104.19</ele>
        <time>2024-09-22T07:47:02.000Z</time>
      </trkpt>
      <trkpt lat="42.43844" lon="3.16405">
        <ele>104.57</ele>
        <time>2024-09-22T07:47:07.000Z</time>
      </trkpt>
      <trkpt lat="42.43847" lon="3.16391">
        <ele>104.95</ele>
        <time>2024-09-22T07:47:12.000Z</time>
      </trkpt>
      <trkpt lat="42.43848" lon="3.16378">
        <ele>105.32</ele>
        <time>2024-09-22T07:47:17.000Z</time>
      </trkpt>
      <trkpt lat="42.43848" lon="3.16364">
        <ele>105.68</ele>
        <time>2024-09-22T07:47:22.000Z</time>
      </trkpt>
      <trkpt lat="42.43847" lon="3.1635">
        <ele>106.04</ele>
        <time>2024-09-22T07:47:27.000Z</time>
      </trkpt>
      <trkpt lat="42.43846" lon="3.16336">
        <ele>106.39</ele>
        <time>2024-09-22T07:47:32.000Z</time>
      </trkpt>
      <trkpt lat="42.43844" lon="3.16322">
        <ele>106.74</ele>
        <time>2024-09-22T07:47:37.000Z</time>
      </trkpt>
      <trkpt lat="42.43841" lon="3.16308">
        <ele>107.09</ele>
        <time>2024-09-22T07:47:42.000Z</time>
      </trkpt>
      <trkpt lat="42.43837" lon="3.16294">
        <ele>107.42</ele>
        <time>2024-09-22T07:47:47.000Z</time>
      </trkpt>
      <trkpt lat="42.43831" lon="3.16282">
        <ele>107.75</ele>
        <time>2024-09-22T07:47:52.000Z</time>
      </trkpt>
      <trkpt lat="42.43823" lon="3.16274">
        <ele>108.08</ele>
        <time>2024-09-22T07:47:57.000Z</time>
      </trkpt>
      <trkpt lat="42.43814" lon="3.16268">
        <ele>108.4</ele>
        <time>2024-09-22T07:48:02.000Z</time>
      </trkpt>
      <trkpt lat="42.43805" lon="3.16261">
        <ele>108.72</ele>
        <time>2024-09-22T07:48:07.000Z</time>
      </trkpt>
      <trkpt lat="42.43797" lon="3.1625">
        <ele>109.05</ele>
        <time>2024-09-22T07:48:12.000Z</time>
      </trkpt>
      <trkpt lat="42.43791" lon="3.16239">
        <ele>109.38</ele>
        <time>2024-09-22T07:48:17.000Z</time>
      </trkpt>
      <trkpt lat="42.43787" lon="3.16228">
        <ele>109.7</ele>
        <time>2024-09-22T07:48:22.000Z</time>
      </trkpt>
      <trkpt lat="42.43781" lon="3.16218">
        <ele>110.03</ele>
        <time>2024-09-22T07:48:27.000Z</time>
      </trkpt>
      <trkpt lat="42.43773" lon="3.16211">
        <ele>110.36</ele>
        <time>2024-09-22T07:48:32.000Z</time>
      </trkpt>
      <trkpt lat="42.43764" lon="3.16209">
        <ele>110.78</ele>
        <time>2024-09-22T07:48:38.000Z</time>
      </trkpt>
      <trkpt lat="42.43754" lon="3.16207">
        <ele>111.21</ele>
        <time>2024-09-22T07:48:44.000Z</time>
      </trkpt>
      <trkpt lat="42.43745" lon="3.16203">
        <ele>111.57</ele>
        <time>2024-09-22T07:48:49.000Z</time>
      </trkpt>
      <trkpt lat="42.43738" lon="3.16194">
        <ele>111.94</ele>
        <time>2024-09-22T07:48:54.000Z</time>
      </trkpt>
      <trkpt lat="42.43733" lon="3.16181">
        <ele>112.31</ele>
        <time>2024-09-22T07:48:59.000Z</time>
      </trkpt>
      <trkpt lat="42.43728" lon="3.16169">
        <ele>112.68</ele>
        <time>2024-09-22T07:49:04.000Z</time>
      </trkpt>
      <trkpt lat="42.43724" lon="3.16157">
        <ele>113.05</ele>
        <time>2024-09-22T07:49:09.000Z</time>
      </trkpt>
      <trkpt lat="42.43721" lon="3.16145">
        <ele>113.42</ele>
        <time>2024-09-22T07:49:14.000Z</time>
      </trkpt>
      <trkpt lat="42.43717" lon="3.16132">
        <ele>113.79</ele>
        <time>2024-09-22T07:49:19.000Z</time>
      </trkpt>
      <trkpt lat="42.43713" lon="3.16121">
        <ele>114.15</ele>
        <time>2024-09-22T07:49:24.000Z</time>
      </trkpt>
      <trkpt lat="42.43708" lon="3.16109">
        <ele>114.52</ele>
        <time>2024-09-22T07:49:29.000Z</time>
      </trkpt>
      <trkpt lat="42.43703" lon="3.16099">
        <ele>114.88</ele>
        <time>2024-09-22T07:49:34.000Z</time>
      </trkpt>
      <trkpt lat="42.43698" lon="3.16088">
        <ele>115.24</ele>
        <time>2024-09-22T07:49:39.000Z</time>
      </trkpt>
      <trkpt lat="42.43693" lon="3.16077">
        <ele>115.61</ele>
        <time>2024-09-22T07:49:44.000Z</time>
      </trkpt>
      <trkpt lat="42.43687" lon="3.16067">
        <ele>115.97</ele>
        <time>2024-09-22T07:49:49.000Z</time>
      </trkpt>
      <trkpt lat="42.43676" lon="3.16059">
        <ele>116.41</ele>
        <time>2024-09-22T07:49:54.999Z</time>
      </trkpt>
      <trkpt lat="42.43668" lon="3.16052">
        <ele>116.79</ele>
        <time>2024-09-22T07:49:59.999Z</time>
      </trkpt>
      <trkpt lat="42.4366" lon="3.16045">
        <ele>117.18</ele>
        <time>2024-09-22T07:50:04.999Z</time>
      </trkpt>
      <trkpt lat="42.43652" lon="3.16037">
        <ele>117.58</ele>
        <time>2024-09-22T07:50:09.999Z</time>
      </trkpt>
      <trkpt lat="42.43645" lon="3.16028">
        <ele>117.99</ele>
        <time>2024-09-22T07:50:14.999Z</time>
      </trkpt>
      <trkpt lat="42.43639" lon="3.16018">
        <ele>118.4</ele>
        <time>2024-09-22T07:50:19.999Z</time>
      </trkpt>
      <trkpt lat="42.43634" lon="3.16006">
        <ele>118.82</ele>
        <time>2024-09-22T07:50:24.999Z</time>
      </trkpt>
      <trkpt lat="42.43628" lon="3.15996">
        <ele>119.24</ele>
        <time>2024-09-22T07:50:29.999Z</time>
      </trkpt>
      <trkpt lat="42.43623" lon="3.15985">
        <ele>119.69</ele>
        <time>2024-09-22T07:50:34.999Z</time>
      </trkpt>
      <trkpt lat="42.43618" lon="3.15974">
        <ele>120.18</ele>
        <time>2024-09-22T07:50:39.999Z</time>
      </trkpt>
      <trkpt lat="42.43612" lon="3.15963">
        <ele>120.71</ele>
        <time>2024-09-22T07:50:44.999Z</time>
      </trkpt>
      <trkpt lat="42.43606" lon="3.15954">
        <ele>121.28</ele>
        <time>2024-09-22T07:50:49.999Z</time>
      </trkpt>
      <trkpt lat="42.43599" lon="3.15944">
        <ele>121.86</ele>
        <time>2024-09-22T07:50:54.999Z</time>
      </trkpt>
      <trkpt lat="42.43592" lon="3.15935">
        <ele>122.41</ele>
        <time>2024-09-22T07:50:59.999Z</time>
      </trkpt>
      <trkpt lat="42.43585" lon="3.15926">
        <ele>122.99</ele>
        <time>2024-09-22T07:51:04.999Z</time>
      </trkpt>
      <trkpt lat="42.43579" lon="3.15917">
        <ele>123.59</ele>
        <time>2024-09-22T07:51:09.999Z</time>
      </trkpt>
      <trkpt lat="42.43571" lon="3.15908">
        <ele>124.21</ele>
        <time>2024-09-22T07:51:14.999Z</time>
      </trkpt>
      <trkpt lat="42.43565" lon="3.15898">
        <ele>124.86</ele>
        <time>2024-09-22T07:51:19.999Z</time>
      </trkpt>
      <trkpt lat="42.4356" lon="3.15885">
        <ele>125.52</ele>
        <time>2024-09-22T07:51:24.999Z</time>
      </trkpt>
      <trkpt lat="42.43557" lon="3.15873">
        <ele>126.18</ele>
        <time>2024-09-22T07:51:29.999Z</time>
      </trkpt>
      <trkpt lat="42.43555" lon="3.1586">
        <ele>126.84</ele>
        <time>2024-09-22T07:51:34.999Z</time>
      </trkpt>
      <trkpt lat="42.43553" lon="3.15847">
        <ele>127.62</ele>
        <time>2024-09-22T07:51:40.999Z</time>
      </trkpt>
      <trkpt lat="42.43549" lon="3.15834">
        <ele>128.25</ele>
        <time>2024-09-22T07:51:45.999Z</time>
      </trkpt>
      <trkpt lat="42.43543" lon="3.15823">
        <ele>128.87</ele>
        <time>2024-09-22T07:51:50.999Z</time>
      </trkpt>
      <trkpt lat="42.43539" lon="3.15812">
        <ele>129.49</ele>
        <time>2024-09-22T07:51:55.999Z</time>
      </trkpt>
      <trkpt lat="42.43536" lon="3.158">
        <ele>130.1</ele>
        <time>2024-09-22T07:52:00.999Z</time>
      </trkpt>
      <trkpt lat="42.43535" lon="3.15787">
        <ele>130.72</ele>
        <time>2024-09-22T07:52:05.999Z</time>
      </trkpt>
      <trkpt lat="42.43536" lon="3.15775">
        <ele>131.35</ele>
        <time>2024-09-22T07:52:10.999Z</time>
      </trkpt>
      <trkpt lat="42.43538" lon="3.15762">
        <ele>131.98</ele>
        <time>2024-09-22T07:52:15.999Z</time>
      </trkpt>
      <trkpt lat="42.4354" lon="3.1575">
        <ele>132.62</ele>
        <time>2024-09-22T07:52:20.999Z</time>
      </trkpt>
      <trkpt lat="42.43542" lon="3.15737">
        <ele>133.25</ele>
        <time>2024-09-22T07:52:25.999Z</time>
      </trkpt>
      <trkpt lat="42.43546" lon="3.15725">
        <ele>133.88</ele>
        <time>2024-09-22T07:52:30.999Z</time>
      </trkpt>
      <trkpt lat="42.4355" lon="3.15714">
        <ele>134.51</ele>
        <time>2024-09-22T07:52:35.999Z</time>
      </trkpt>
      <trkpt lat="42.43555" lon="3.15703">
        <ele>135.14</ele>
        <time>2024-09-22T07:52:40.999Z</time>
      </trkpt>
      <trkpt lat="42.4356" lon="3.15694">
        <ele>135.75</ele>
        <time>2024-09-22T07:52:45.999Z</time>
      </trkpt>
      <trkpt lat="42.43568" lon="3.15685">
        <ele>136.37</ele>
        <time>2024-09-22T07:52:50.999Z</time>
      </trkpt>
      <trkpt lat="42.43579" lon="3.1568">
        <ele>136.97</ele>
        <time>2024-09-22T07:52:55.999Z</time>
      </trkpt>
      <trkpt lat="42.43588" lon="3.15677">
        <ele>137.67</ele>
        <time>2024-09-22T07:53:01.999Z</time>
      </trkpt>
      <trkpt lat="42.43598" lon="3.15676">
        <ele>138.45</ele>
        <time>2024-09-22T07:53:08.999Z</time>
      </trkpt>
      <trkpt lat="42.43609" lon="3.15677">
        <ele>139.1</ele>
        <time>2024-09-22T07:53:14.999Z</time>
      </trkpt>
      <trkpt lat="42.4362" lon="3.15675">
        <ele>139.73</ele>
        <time>2024-09-22T07:53:20.999Z</time>
      </trkpt>
      <trkpt lat="42.4363" lon="3.1567">
        <ele>140.34</ele>
        <time>2024-09-22T07:53:26.999Z</time>
      </trkpt>
      <trkpt lat="42.43634" lon="3.15658">
        <ele>140.84</ele>
        <time>2024-09-22T07:53:31.999Z</time>
      </trkpt>
      <trkpt lat="42.43633" lon="3.15645">
        <ele>141.41</ele>
        <time>2024-09-22T07:53:37.999Z</time>
      </trkpt>
      <trkpt lat="42.43625" lon="3.15633">
        <ele>141.85</ele>
        <time>2024-09-22T07:53:42.999Z</time>
      </trkpt>
      <trkpt lat="42.43611" lon="3.15634">
        <ele>142.27</ele>
        <time>2024-09-22T07:53:47.999Z</time>
      </trkpt>
      <trkpt lat="42.43598" lon="3.15641">
        <ele>142.68</ele>
        <time>2024-09-22T07:53:52.999Z</time>
      </trkpt>
      <trkpt lat="42.43585" lon="3.15648">
        <ele>143.07</ele>
        <time>2024-09-22T07:53:57.999Z</time>
      </trkpt>
      <trkpt lat="42.43573" lon="3.15653">
        <ele>143.45</ele>
        <time>2024-09-22T07:54:02.999Z</time>
      </trkpt>
      <trkpt lat="42.43563" lon="3.15658">
        <ele>143.82</ele>
        <time>2024-09-22T07:54:07.999Z</time>
      </trkpt>
      <trkpt lat="42.43554" lon="3.15663">
        <ele>144.2</ele>
        <time>2024-09-22T07:54:12.999Z</time>
      </trkpt>
      <trkpt lat="42.43546" lon="3.1567">
        <ele>144.56</ele>
        <time>2024-09-22T07:54:17.999Z</time>
      </trkpt>
      <trkpt lat="42.43539" lon="3.1568">
        <ele>144.93</ele>
        <time>2024-09-22T07:54:22.999Z</time>
      </trkpt>
      <trkpt lat="42.43532" lon="3.1569">
        <ele>145.3</ele>
        <time>2024-09-22T07:54:27.999Z</time>
      </trkpt>
      <trkpt lat="42.43526" lon="3.157">
        <ele>145.68</ele>
        <time>2024-09-22T07:54:32.999Z</time>
      </trkpt>
      <trkpt lat="42.43519" lon="3.1571">
        <ele>146.06</ele>
        <time>2024-09-22T07:54:37.999Z</time>
      </trkpt>
      <trkpt lat="42.43512" lon="3.15721">
        <ele>146.52</ele>
        <time>2024-09-22T07:54:43.999Z</time>
      </trkpt>
      <trkpt lat="42.43508" lon="3.15731">
        <ele>146.91</ele>
        <time>2024-09-22T07:54:48.999Z</time>
      </trkpt>
      <trkpt lat="42.43502" lon="3.15742">
        <ele>147.3</ele>
        <time>2024-09-22T07:54:53.999Z</time>
      </trkpt>
      <trkpt lat="42.43497" lon="3.15753">
        <ele>147.69</ele>
        <time>2024-09-22T07:54:58.999Z</time>
      </trkpt>
      <trkpt lat="42.43491" lon="3.15765">
        <ele>148.16</ele>
        <time>2024-09-22T07:55:04.999Z</time>
      </trkpt>
      <trkpt lat="42.43488" lon="3.1578">
        <ele>148.62</ele>
        <time>2024-09-22T07:55:10.999Z</time>
      </trkpt>
      <trkpt lat="42.43486" lon="3.15793">
        <ele>149</ele>
        <time>2024-09-22T07:55:15.999Z</time>
      </trkpt>
      <trkpt lat="42.43485" lon="3.15806">
        <ele>149.41</ele>
        <time>2024-09-22T07:55:20.999Z</time>
      </trkpt>
      <trkpt lat="42.43487" lon="3.15819">
        <ele>149.84</ele>
        <time>2024-09-22T07:55:25.999Z</time>
      </trkpt>
      <trkpt lat="42.43489" lon="3.15831">
        <ele>150.29</ele>
        <time>2024-09-22T07:55:30.999Z</time>
      </trkpt>
      <trkpt lat="42.43492" lon="3.15844">
        <ele>150.76</ele>
        <time>2024-09-22T07:55:35.999Z</time>
      </trkpt>
      <trkpt lat="42.43497" lon="3.15856">
        <ele>151.24</ele>
        <time>2024-09-22T07:55:40.999Z</time>
      </trkpt>
      <trkpt lat="42.43501" lon="3.15868">
        <ele>151.73</ele>
        <time>2024-09-22T07:55:45.999Z</time>
      </trkpt>
      <trkpt lat="42.43504" lon="3.15884">
        <ele>152.22</ele>
        <time>2024-09-22T07:55:50.999Z</time>
      </trkpt>
      <trkpt lat="42.43507" lon="3.15902">
        <ele>152.72</ele>
        <time>2024-09-22T07:55:55.999Z</time>
      </trkpt>
      <trkpt lat="42.43508" lon="3.15919">
        <ele>153.23</ele>
        <time>2024-09-22T07:56:00.999Z</time>
      </trkpt>
      <trkpt lat="42.43506" lon="3.15938">
        <ele>153.74</ele>
        <time>2024-09-22T07:56:05.999Z</time>
      </trkpt>
      <trkpt lat="42.43497" lon="3.15951">
        <ele>154.3</ele>
        <time>2024-09-22T07:56:10.999Z</time>
      </trkpt>
      <trkpt lat="42.43488" lon="3.15959">
        <ele>154.84</ele>
        <time>2024-09-22T07:56:15.999Z</time>
      </trkpt>
      <trkpt lat="42.43479" lon="3.15968">
        <ele>155.37</ele>
        <time>2024-09-22T07:56:20.999Z</time>
      </trkpt>
      <trkpt lat="42.43471" lon="3.15979">
        <ele>155.94</ele>
        <time>2024-09-22T07:56:25.999Z</time>
      </trkpt>
      <trkpt lat="42.43475" lon="3.15968">
        <ele>165</ele>
        <time>2024-09-22T07:59:49.999Z</time>
      </trkpt>
      <trkpt lat="42.43478" lon="3.15956">
        <ele>166.97</ele>
        <time>2024-09-22T08:00:21.999Z</time>
      </trkpt>
      <trkpt lat="42.43476" lon="3.15944">
        <ele>170.74</ele>
        <time>2024-09-22T08:01:39.999Z</time>
      </trkpt>
      <trkpt lat="42.43474" lon="3.15958">
        <ele>171.96</ele>
        <time>2024-09-22T08:01:58.999Z</time>
      </trkpt>
      <trkpt lat="42.43474" lon="3.1597">
        <ele>172.43</ele>
        <time>2024-09-22T08:02:08.000Z</time>
      </trkpt>
      <trkpt lat="42.4347" lon="3.15983">
        <ele>173.07</ele>
        <time>2024-09-22T08:02:30.000Z</time>
      </trkpt>
      <trkpt lat="42.43468" lon="3.15996">
        <ele>173.96</ele>
        <time>2024-09-22T08:03:36.000Z</time>
      </trkpt>
      <trkpt lat="42.43467" lon="3.1602">
        <ele>174.2</ele>
        <time>2024-09-22T08:03:41.000Z</time>
      </trkpt>
      <trkpt lat="42.43467" lon="3.16041">
        <ele>174.41</ele>
        <time>2024-09-22T08:03:46.000Z</time>
      </trkpt>
      <trkpt lat="42.43464" lon="3.16055">
        <ele>175.01</ele>
        <time>2024-09-22T08:04:25.000Z</time>
      </trkpt>
      <trkpt lat="42.43463" lon="3.16067">
        <ele>175.35</ele>
        <time>2024-09-22T08:04:39.000Z</time>
      </trkpt>
      <trkpt lat="42.43467" lon="3.16055">
        <ele>175.59</ele>
        <time>2024-09-22T08:05:11.000Z</time>
      </trkpt>
      <trkpt lat="42.43465" lon="3.1607">
        <ele>176</ele>
        <time>2024-09-22T08:05:39.000Z</time>
      </trkpt>
      <trkpt lat="42.4346" lon="3.16097">
        <ele>176.55</ele>
        <time>2024-09-22T08:05:44.000Z</time>
      </trkpt>
      <trkpt lat="42.43451" lon="3.1613">
        <ele>176.74</ele>
        <time>2024-09-22T08:05:49.000Z</time>
      </trkpt>
      <trkpt lat="42.43445" lon="3.16173">
        <ele>176.74</ele>
        <time>2024-09-22T08:05:54.000Z</time>
      </trkpt>
      <trkpt lat="42.43446" lon="3.16227">
        <ele>176.49</ele>
        <time>2024-09-22T08:05:59.000Z</time>
      </trkpt>
      <trkpt lat="42.43448" lon="3.16288">
        <ele>175.83</ele>
        <time>2024-09-22T08:06:04.000Z</time>
      </trkpt>
      <trkpt lat="42.43445" lon="3.16352">
        <ele>175.23</ele>
        <time>2024-09-22T08:06:09.000Z</time>
      </trkpt>
      <trkpt lat="42.43422" lon="3.16413">
        <ele>174.5</ele>
        <time>2024-09-22T08:06:14.000Z</time>
      </trkpt>
      <trkpt lat="42.43411" lon="3.16481">
        <ele>173.58</ele>
        <time>2024-09-22T08:06:19.000Z</time>
      </trkpt>
      <trkpt lat="42.43404" lon="3.16551">
        <ele>172.47</ele>
        <time>2024-09-22T08:06:24.000Z</time>
      </trkpt>
      <trkpt lat="42.43376" lon="3.16605">
        <ele>171.18</ele>
        <time>2024-09-22T08:06:29.000Z</time>
      </trkpt>
      <trkpt lat="42.43328" lon="3.16596">
        <ele>170.37</ele>
        <time>2024-09-22T08:06:34.000Z</time>
      </trkpt>
      <trkpt lat="42.43282" lon="3.16574">
        <ele>168.87</ele>
        <time>2024-09-22T08:06:39.000Z</time>
      </trkpt>
      <trkpt lat="42.43236" lon="3.16591">
        <ele>167.95</ele>
        <time>2024-09-22T08:06:44.000Z</time>
      </trkpt>
      <trkpt lat="42.43226" lon="3.16642">
        <ele>165.99</ele>
        <time>2024-09-22T08:06:49.000Z</time>
      </trkpt>
      <trkpt lat="42.43202" lon="3.16671">
        <ele>163.1</ele>
        <time>2024-09-22T08:06:54.000Z</time>
      </trkpt>
      <trkpt lat="42.43202" lon="3.16615">
        <ele>160.24</ele>
        <time>2024-09-22T08:06:59.000Z</time>
      </trkpt>
      <trkpt lat="42.4323" lon="3.16559">
        <ele>157.21</ele>
        <time>2024-09-22T08:07:04.000Z</time>
      </trkpt>
      <trkpt lat="42.43279" lon="3.16533">
        <ele>154.57</ele>
        <time>2024-09-22T08:07:09.000Z</time>
      </trkpt>
      <trkpt lat="42.43331" lon="3.1653">
        <ele>152.12</ele>
        <time>2024-09-22T08:07:14.000Z</time>
      </trkpt>
      <trkpt lat="42.43334" lon="3.16477">
        <ele>149.25</ele>
        <time>2024-09-22T08:07:19.000Z</time>
      </trkpt>
      <trkpt lat="42.43332" lon="3.1641">
        <ele>147.01</ele>
        <time>2024-09-22T08:07:24.000Z</time>
      </trkpt>
      <trkpt lat="42.43336" lon="3.16347">
        <ele>143.11</ele>
        <time>2024-09-22T08:07:29.000Z</time>
      </trkpt>
      <trkpt lat="42.43338" lon="3.16289">
        <ele>139.15</ele>
        <time>2024-09-22T08:07:34.000Z</time>
      </trkpt>
      <trkpt lat="42.433" lon="3.16253">
        <ele>135.25</ele>
        <time>2024-09-22T08:07:39.000Z</time>
      </trkpt>
      <trkpt lat="42.43251" lon="3.16246">
        <ele>130.62</ele>
        <time>2024-09-22T08:07:44.000Z</time>
      </trkpt>
      <trkpt lat="42.43216" lon="3.16209">
        <ele>125.73</ele>
        <time>2024-09-22T08:07:49.000Z</time>
      </trkpt>
      <trkpt lat="42.43219" lon="3.16142">
        <ele>121.54</ele>
        <time>2024-09-22T08:07:54.000Z</time>
      </trkpt>
      <trkpt lat="42.43242" lon="3.1608">
        <ele>118.08</ele>
        <time>2024-09-22T08:07:59.000Z</time>
      </trkpt>
      <trkpt lat="42.43227" lon="3.16038">
        <ele>114.66</ele>
        <time>2024-09-22T08:08:04.000Z</time>
      </trkpt>
      <trkpt lat="42.43188" lon="3.16079">
        <ele>111.79</ele>
        <time>2024-09-22T08:08:09.000Z</time>
      </trkpt>
      <trkpt lat="42.43143" lon="3.16111">
        <ele>109.13</ele>
        <time>2024-09-22T08:08:14.000Z</time>
      </trkpt>
      <trkpt lat="42.43096" lon="3.16139">
        <ele>106.04</ele>
        <time>2024-09-22T08:08:19.000Z</time>
      </trkpt>
      <trkpt lat="42.43047" lon="3.16152">
        <ele>102.61</ele>
        <time>2024-09-22T08:08:24.000Z</time>
      </trkpt>
      <trkpt lat="42.42999" lon="3.16147">
        <ele>98.97</ele>
        <time>2024-09-22T08:08:29.000Z</time>
      </trkpt>
      <trkpt lat="42.42963" lon="3.16107">
        <ele>95.55</ele>
        <time>2024-09-22T08:08:34.000Z</time>
      </trkpt>
      <trkpt lat="42.42947" lon="3.16052">
        <ele>92.23</ele>
        <time>2024-09-22T08:08:39.000Z</time>
      </trkpt>
      <trkpt lat="42.42961" lon="3.15995">
        <ele>89.18</ele>
        <time>2024-09-22T08:08:44.000Z</time>
      </trkpt>
      <trkpt lat="42.42979" lon="3.1594">
        <ele>86.57</ele>
        <time>2024-09-22T08:08:49.000Z</time>
      </trkpt>
      <trkpt lat="42.42988" lon="3.15898">
        <ele>85.89</ele>
        <time>2024-09-22T08:08:54.000Z</time>
      </trkpt>
      <trkpt lat="42.42988" lon="3.15884">
        <ele>85.7</ele>
        <time>2024-09-22T08:09:01.000Z</time>
      </trkpt>
      <trkpt lat="42.42982" lon="3.15871">
        <ele>84.63</ele>
        <time>2024-09-22T08:09:29.000Z</time>
      </trkpt>
      <trkpt lat="42.42968" lon="3.15872">
        <ele>83.83</ele>
        <time>2024-09-22T08:09:34.000Z</time>
      </trkpt>
      <trkpt lat="42.42961" lon="3.15881">
        <ele>81.76</ele>
        <time>2024-09-22T08:10:37.000Z</time>
      </trkpt>
      <trkpt lat="42.42946" lon="3.15894">
        <ele>78.35</ele>
        <time>2024-09-22T08:10:42.000Z</time>
      </trkpt>
      <trkpt lat="42.4292" lon="3.15919">
        <ele>75.28</ele>
        <time>2024-09-22T08:10:47.000Z</time>
      </trkpt>
      <trkpt lat="42.42887" lon="3.15948">
        <ele>73.15</ele>
        <time>2024-09-22T08:10:52.000Z</time>
      </trkpt>
      <trkpt lat="42.42845" lon="3.15973">
        <ele>70.61</ele>
        <time>2024-09-22T08:10:57.000Z</time>
      </trkpt>
      <trkpt lat="42.42804" lon="3.15997">
        <ele>68.49</ele>
        <time>2024-09-22T08:11:02.000Z</time>
      </trkpt>
      <trkpt lat="42.42771" lon="3.15994">
        <ele>66.3</ele>
        <time>2024-09-22T08:11:07.000Z</time>
      </trkpt>
      <trkpt lat="42.42762" lon="3.15944">
        <ele>63.7</ele>
        <time>2024-09-22T08:11:12.000Z</time>
      </trkpt>
      <trkpt lat="42.42789" lon="3.15896">
        <ele>60.63</ele>
        <time>2024-09-22T08:11:17.000Z</time>
      </trkpt>
      <trkpt lat="42.42829" lon="3.15868">
        <ele>55.71</ele>
        <time>2024-09-22T08:11:22.000Z</time>
      </trkpt>
      <trkpt lat="42.42815" lon="3.15826">
        <ele>50.62</ele>
        <time>2024-09-22T08:11:27.000Z</time>
      </trkpt>
      <trkpt lat="42.42767" lon="3.15834">
        <ele>49.93</ele>
        <time>2024-09-22T08:11:32.000Z</time>
      </trkpt>
      <trkpt lat="42.42726" lon="3.15847">
        <ele>49.61</ele>
        <time>2024-09-22T08:11:37.000Z</time>
      </trkpt>
      <trkpt lat="42.42697" lon="3.15855">
        <ele>47.87</ele>
        <time>2024-09-22T08:11:42.000Z</time>
      </trkpt>
      <trkpt lat="42.42694" lon="3.15878">
        <ele>45.37</ele>
        <time>2024-09-22T08:11:47.000Z</time>
      </trkpt>
      <trkpt lat="42.42693" lon="3.15917">
        <ele>39.2</ele>
        <time>2024-09-22T08:11:52.000Z</time>
      </trkpt>
      <trkpt lat="42.42693" lon="3.15952">
        <ele>34.64</ele>
        <time>2024-09-22T08:11:57.000Z</time>
      </trkpt>
      <trkpt lat="42.42693" lon="3.15986">
        <ele>31.69</ele>
        <time>2024-09-22T08:12:02.000Z</time>
      </trkpt>
      <trkpt lat="42.42692" lon="3.16014">
        <ele>29.88</ele>
        <time>2024-09-22T08:12:07.000Z</time>
      </trkpt>
      <trkpt lat="42.42688" lon="3.16034">
        <ele>30.47</ele>
        <time>2024-09-22T08:12:12.000Z</time>
      </trkpt>
      <trkpt lat="42.42693" lon="3.16045">
        <ele>34.48</ele>
        <time>2024-09-22T08:12:39.000Z</time>
      </trkpt>
      <trkpt lat="42.42698" lon="3.16055">
        <ele>35.74</ele>
        <time>2024-09-22T08:14:03.000Z</time>
      </trkpt>
      <trkpt lat="42.42706" lon="3.1606">
        <ele>35.32</ele>
        <time>2024-09-22T08:14:23.999Z</time>
      </trkpt>
      <trkpt lat="42.42697" lon="3.16057">
        <ele>24.32</ele>
        <time>2024-09-22T08:33:47.000Z</time>
      </trkpt>
      <trkpt lat="42.4269" lon="3.16046">
        <ele>24.25</ele>
        <time>2024-09-22T08:33:52.000Z</time>
      </trkpt>
      <trkpt lat="42.4268" lon="3.16044">
        <ele>24.19</ele>
        <time>2024-09-22T08:33:57.000Z</time>
      </trkpt>
      <trkpt lat="42.42672" lon="3.16033">
        <ele>24.13</ele>
        <time>2024-09-22T08:34:03.000Z</time>
      </trkpt>
      <trkpt lat="42.42659" lon="3.16025">
        <ele>24.08</ele>
        <time>2024-09-22T08:34:08.000Z</time>
      </trkpt>
      <trkpt lat="42.42641" lon="3.16023">
        <ele>23.99</ele>
        <time>2024-09-22T08:34:13.000Z</time>
      </trkpt>
      <trkpt lat="42.42622" lon="3.1602">
        <ele>23.83</ele>
        <time>2024-09-22T08:34:18.000Z</time>
      </trkpt>
      <trkpt lat="42.42604" lon="3.16017">
        <ele>23.78</ele>
        <time>2024-09-22T08:34:23.000Z</time>
      </trkpt>
      <trkpt lat="42.42591" lon="3.16011">
        <ele>23.76</ele>
        <time>2024-09-22T08:34:28.000Z</time>
      </trkpt>
      <trkpt lat="42.42581" lon="3.16008">
        <ele>23.76</ele>
        <time>2024-09-22T08:34:33.000Z</time>
      </trkpt>
      <trkpt lat="42.42572" lon="3.16013">
        <ele>23.75</ele>
        <time>2024-09-22T08:34:38.000Z</time>
      </trkpt>
      <trkpt lat="42.4257" lon="3.16028">
        <ele>23.75</ele>
        <time>2024-09-22T08:34:43.000Z</time>
      </trkpt>
      <trkpt lat="42.42569" lon="3.16049">
        <ele>23.76</ele>
        <time>2024-09-22T08:34:48.000Z</time>
      </trkpt>
      <trkpt lat="42.42567" lon="3.16074">
        <ele>23.78</ele>
        <time>2024-09-22T08:34:53.000Z</time>
      </trkpt>
      <trkpt lat="42.42574" lon="3.16094">
        <ele>23.8</ele>
        <time>2024-09-22T08:34:58.000Z</time>
      </trkpt>
      <trkpt lat="42.42572" lon="3.16126">
        <ele>23.91</ele>
        <time>2024-09-22T08:35:03.000Z</time>
      </trkpt>
      <trkpt lat="42.42553" lon="3.16139">
        <ele>23.96</ele>
        <time>2024-09-22T08:35:08.000Z</time>
      </trkpt>
      <trkpt lat="42.42542" lon="3.16147">
        <ele>23.97</ele>
        <time>2024-09-22T08:35:13.000Z</time>
      </trkpt>
      <trkpt lat="42.42534" lon="3.16154">
        <ele>23.98</ele>
        <time>2024-09-22T08:35:18.000Z</time>
      </trkpt>
      <trkpt lat="42.42525" lon="3.16163">
        <ele>23.99</ele>
        <time>2024-09-22T08:35:24.000Z</time>
      </trkpt>
      <trkpt lat="42.42516" lon="3.1617">
        <ele>24</ele>
        <time>2024-09-22T08:35:29.000Z</time>
      </trkpt>
      <trkpt lat="42.42508" lon="3.16177">
        <ele>24.01</ele>
        <time>2024-09-22T08:35:34.000Z</time>
      </trkpt>
      <trkpt lat="42.42499" lon="3.16183">
        <ele>24.03</ele>
        <time>2024-09-22T08:35:39.000Z</time>
      </trkpt>
      <trkpt lat="42.42489" lon="3.16185">
        <ele>24.04</ele>
        <time>2024-09-22T08:35:44.000Z</time>
      </trkpt>
      <trkpt lat="42.4248" lon="3.16177">
        <ele>24.06</ele>
        <time>2024-09-22T08:35:49.000Z</time>
      </trkpt>
      <trkpt lat="42.42479" lon="3.16165">
        <ele>24.08</ele>
        <time>2024-09-22T08:35:54.000Z</time>
      </trkpt>
      <trkpt lat="42.42482" lon="3.16152">
        <ele>24.13</ele>
        <time>2024-09-22T08:36:00.000Z</time>
      </trkpt>
      <trkpt lat="42.42488" lon="3.16141">
        <ele>24.19</ele>
        <time>2024-09-22T08:36:07.000Z</time>
      </trkpt>
      <trkpt lat="42.42496" lon="3.16132">
        <ele>24.24</ele>
        <time>2024-09-22T08:36:12.000Z</time>
      </trkpt>
      <trkpt lat="42.42504" lon="3.16125">
        <ele>24.3</ele>
        <time>2024-09-22T08:36:17.000Z</time>
      </trkpt>
      <trkpt lat="42.42512" lon="3.16118">
        <ele>24.36</ele>
        <time>2024-09-22T08:36:22.000Z</time>
      </trkpt>
      <trkpt lat="42.42521" lon="3.16111">
        <ele>24.44</ele>
        <time>2024-09-22T08:36:28.000Z</time>
      </trkpt>
      <trkpt lat="42.42528" lon="3.16104">
        <ele>24.52</ele>
        <time>2024-09-22T08:36:33.000Z</time>
      </trkpt>
      <trkpt lat="42.42532" lon="3.16091">
        <ele>24.6</ele>
        <time>2024-09-22T08:36:38.000Z</time>
      </trkpt>
      <trkpt lat="42.42531" lon="3.16078">
        <ele>24.7</ele>
        <time>2024-09-22T08:36:43.000Z</time>
      </trkpt>
      <trkpt lat="42.42524" lon="3.1607">
        <ele>24.83</ele>
        <time>2024-09-22T08:36:49.000Z</time>
      </trkpt>
      <trkpt lat="42.42514" lon="3.16071">
        <ele>24.94</ele>
        <time>2024-09-22T08:36:54.000Z</time>
      </trkpt>
      <trkpt lat="42.42506" lon="3.16078">
        <ele>25.05</ele>
        <time>2024-09-22T08:36:59.000Z</time>
      </trkpt>
      <trkpt lat="42.42498" lon="3.16086">
        <ele>25.19</ele>
        <time>2024-09-22T08:37:05.000Z</time>
      </trkpt>
      <trkpt lat="42.4249" lon="3.16095">
        <ele>25.34</ele>
        <time>2024-09-22T08:37:11.000Z</time>
      </trkpt>
      <trkpt lat="42.42482" lon="3.16103">
        <ele>25.48</ele>
        <time>2024-09-22T08:37:16.000Z</time>
      </trkpt>
      <trkpt lat="42.42473" lon="3.1611">
        <ele>25.62</ele>
        <time>2024-09-22T08:37:21.000Z</time>
      </trkpt>
      <trkpt lat="42.42463" lon="3.16116">
        <ele>25.82</ele>
        <time>2024-09-22T08:37:27.000Z</time>
      </trkpt>
      <trkpt lat="42.42455" lon="3.16122">
        <ele>26</ele>
        <time>2024-09-22T08:37:32.000Z</time>
      </trkpt>
      <trkpt lat="42.42445" lon="3.16126">
        <ele>26.23</ele>
        <time>2024-09-22T08:37:38.000Z</time>
      </trkpt>
      <trkpt lat="42.42437" lon="3.16134">
        <ele>26.48</ele>
        <time>2024-09-22T08:37:44.000Z</time>
      </trkpt>
      <trkpt lat="42.42429" lon="3.1614">
        <ele>26.7</ele>
        <time>2024-09-22T08:37:49.000Z</time>
      </trkpt>
      <trkpt lat="42.42424" lon="3.16152">
        <ele>26.96</ele>
        <time>2024-09-22T08:37:55.000Z</time>
      </trkpt>
      <trkpt lat="42.42422" lon="3.16167">
        <ele>27.23</ele>
        <time>2024-09-22T08:38:01.000Z</time>
      </trkpt>
      <trkpt lat="42.4242" lon="3.1618">
        <ele>27.46</ele>
        <time>2024-09-22T08:38:06.000Z</time>
      </trkpt>
      <trkpt lat="42.42419" lon="3.16192">
        <ele>27.69</ele>
        <time>2024-09-22T08:38:11.000Z</time>
      </trkpt>
      <trkpt lat="42.42416" lon="3.16203">
        <ele>27.94</ele>
        <time>2024-09-22T08:38:16.000Z</time>
      </trkpt>
      <trkpt lat="42.42413" lon="3.16216">
        <ele>28.19</ele>
        <time>2024-09-22T08:38:21.000Z</time>
      </trkpt>
      <trkpt lat="42.4241" lon="3.1623">
        <ele>28.45</ele>
        <time>2024-09-22T08:38:26.000Z</time>
      </trkpt>
      <trkpt lat="42.42407" lon="3.16242">
        <ele>28.72</ele>
        <time>2024-09-22T08:38:31.000Z</time>
      </trkpt>
      <trkpt lat="42.42405" lon="3.16255">
        <ele>28.99</ele>
        <time>2024-09-22T08:38:36.000Z</time>
      </trkpt>
      <trkpt lat="42.42405" lon="3.16268">
        <ele>29.28</ele>
        <time>2024-09-22T08:38:41.000Z</time>
      </trkpt>
      <trkpt lat="42.4241" lon="3.1628">
        <ele>29.58</ele>
        <time>2024-09-22T08:38:46.000Z</time>
      </trkpt>
      <trkpt lat="42.42419" lon="3.1629">
        <ele>29.94</ele>
        <time>2024-09-22T08:38:51.999Z</time>
      </trkpt>
      <trkpt lat="42.42428" lon="3.16293">
        <ele>30.26</ele>
        <time>2024-09-22T08:38:56.999Z</time>
      </trkpt>
      <trkpt lat="42.4244" lon="3.16295">
        <ele>30.58</ele>
        <time>2024-09-22T08:39:01.999Z</time>
      </trkpt>
      <trkpt lat="42.4245" lon="3.16293">
        <ele>30.9</ele>
        <time>2024-09-22T08:39:06.999Z</time>
      </trkpt>
      <trkpt lat="42.42459" lon="3.16291">
        <ele>31.22</ele>
        <time>2024-09-22T08:39:11.999Z</time>
      </trkpt>
      <trkpt lat="42.42468" lon="3.16288">
        <ele>31.51</ele>
        <time>2024-09-22T08:39:16.999Z</time>
      </trkpt>
      <trkpt lat="42.42479" lon="3.16284">
        <ele>31.85</ele>
        <time>2024-09-22T08:39:22.999Z</time>
      </trkpt>
      <trkpt lat="42.42488" lon="3.16281">
        <ele>32.12</ele>
        <time>2024-09-22T08:39:27.999Z</time>
      </trkpt>
      <trkpt lat="42.42498" lon="3.16281">
        <ele>32.42</ele>
        <time>2024-09-22T08:39:33.999Z</time>
      </trkpt>
      <trkpt lat="42.42508" lon="3.16282">
        <ele>32.79</ele>
        <time>2024-09-22T08:39:40.999Z</time>
      </trkpt>
      <trkpt lat="42.42518" lon="3.16284">
        <ele>33.11</ele>
        <time>2024-09-22T08:39:46.999Z</time>
      </trkpt>
      <trkpt lat="42.42527" lon="3.16288">
        <ele>33.44</ele>
        <time>2024-09-22T08:39:52.999Z</time>
      </trkpt>
      <trkpt lat="42.42536" lon="3.16292">
        <ele>33.72</ele>
        <time>2024-09-22T08:39:57.999Z</time>
      </trkpt>
      <trkpt lat="42.42545" lon="3.16297">
        <ele>34</ele>
        <time>2024-09-22T08:40:02.999Z</time>
      </trkpt>
      <trkpt lat="42.42551" lon="3.16309">
        <ele>34.35</ele>
        <time>2024-09-22T08:40:08.999Z</time>
      </trkpt>
      <trkpt lat="42.42555" lon="3.16323">
        <ele>34.71</ele>
        <time>2024-09-22T08:40:14.999Z</time>
      </trkpt>
      <trkpt lat="42.42555" lon="3.16337">
        <ele>35.15</ele>
        <time>2024-09-22T08:40:21.999Z</time>
      </trkpt>
      <trkpt lat="42.4255" lon="3.16348">
        <ele>35.68</ele>
        <time>2024-09-22T08:40:29.999Z</time>
      </trkpt>
      <trkpt lat="42.42543" lon="3.16357">
        <ele>36.16</ele>
        <time>2024-09-22T08:40:36.999Z</time>
      </trkpt>
      <trkpt lat="42.42536" lon="3.16366">
        <ele>36.64</ele>
        <time>2024-09-22T08:40:43.999Z</time>
      </trkpt>
      <trkpt lat="42.42528" lon="3.16375">
        <ele>37.07</ele>
        <time>2024-09-22T08:40:49.999Z</time>
      </trkpt>
      <trkpt lat="42.42521" lon="3.16384">
        <ele>37.51</ele>
        <time>2024-09-22T08:40:55.999Z</time>
      </trkpt>
      <trkpt lat="42.42514" lon="3.16393">
        <ele>39.14</ele>
        <time>2024-09-22T08:41:55.999Z</time>
      </trkpt>
      <trkpt lat="42.42509" lon="3.16404">
        <ele>39.84</ele>
        <time>2024-09-22T08:42:00.999Z</time>
      </trkpt>
      <trkpt lat="42.42503" lon="3.16417">
        <ele>40.64</ele>
        <time>2024-09-22T08:42:06.999Z</time>
      </trkpt>
      <trkpt lat="42.42498" lon="3.1643">
        <ele>41.28</ele>
        <time>2024-09-22T08:42:11.999Z</time>
      </trkpt>
      <trkpt lat="42.42493" lon="3.16442">
        <ele>42.02</ele>
        <time>2024-09-22T08:42:17.999Z</time>
      </trkpt>
      <trkpt lat="42.42488" lon="3.16454">
        <ele>42.61</ele>
        <time>2024-09-22T08:42:22.999Z</time>
      </trkpt>
      <trkpt lat="42.42483" lon="3.16466">
        <ele>43.19</ele>
        <time>2024-09-22T08:42:27.999Z</time>
      </trkpt>
      <trkpt lat="42.42476" lon="3.16477">
        <ele>43.77</ele>
        <time>2024-09-22T08:42:32.999Z</time>
      </trkpt>
      <trkpt lat="42.42469" lon="3.16486">
        <ele>44.33</ele>
        <time>2024-09-22T08:42:37.999Z</time>
      </trkpt>
      <trkpt lat="42.42462" lon="3.16493">
        <ele>44.89</ele>
        <time>2024-09-22T08:42:42.999Z</time>
      </trkpt>
      <trkpt lat="42.42452" lon="3.165">
        <ele>45.44</ele>
        <time>2024-09-22T08:42:47.999Z</time>
      </trkpt>
      <trkpt lat="42.42444" lon="3.16505">
        <ele>45.99</ele>
        <time>2024-09-22T08:42:52.999Z</time>
      </trkpt>
      <trkpt lat="42.42434" lon="3.16507">
        <ele>46.54</ele>
        <time>2024-09-22T08:42:57.999Z</time>
      </trkpt>
      <trkpt lat="42.42424" lon="3.16508">
        <ele>47.2</ele>
        <time>2024-09-22T08:43:03.999Z</time>
      </trkpt>
      <trkpt lat="42.42422" lon="3.16493">
        <ele>49.31</ele>
        <time>2024-09-22T08:43:50.999Z</time>
      </trkpt>
      <trkpt lat="42.42412" lon="3.1649">
        <ele>51.15</ele>
        <time>2024-09-22T08:44:48.999Z</time>
      </trkpt>
      <trkpt lat="42.42389" lon="3.1649">
        <ele>55.82</ele>
        <time>2024-09-22T08:44:58.999Z</time>
      </trkpt>
      <trkpt lat="42.42377" lon="3.16504">
        <ele>58.3</ele>
        <time>2024-09-22T08:45:09.999Z</time>
      </trkpt>
      <trkpt lat="42.42375" lon="3.1648">
        <ele>58.33</ele>
        <time>2024-09-22T08:45:14.999Z</time>
      </trkpt>
      <trkpt lat="42.42376" lon="3.16461">
        <ele>58.4</ele>
        <time>2024-09-22T08:45:19.999Z</time>
      </trkpt>
      <trkpt lat="42.42372" lon="3.16449">
        <ele>58.68</ele>
        <time>2024-09-22T08:45:24.999Z</time>
      </trkpt>
      <trkpt lat="42.42369" lon="3.16437">
        <ele>59.21</ele>
        <time>2024-09-22T08:45:29.999Z</time>
      </trkpt>
      <trkpt lat="42.42365" lon="3.16423">
        <ele>59.9</ele>
        <time>2024-09-22T08:45:34.999Z</time>
      </trkpt>
      <trkpt lat="42.42362" lon="3.1641">
        <ele>60.67</ele>
        <time>2024-09-22T08:45:39.999Z</time>
      </trkpt>
      <trkpt lat="42.4236" lon="3.16398">
        <ele>61.65</ele>
        <time>2024-09-22T08:45:45.999Z</time>
      </trkpt>
      <trkpt lat="42.42357" lon="3.16385">
        <ele>62.51</ele>
        <time>2024-09-22T08:45:50.999Z</time>
      </trkpt>
      <trkpt lat="42.42354" lon="3.16372">
        <ele>63.39</ele>
        <time>2024-09-22T08:45:55.999Z</time>
      </trkpt>
      <trkpt lat="42.42353" lon="3.16357">
        <ele>64.45</ele>
        <time>2024-09-22T08:46:01.999Z</time>
      </trkpt>
      <trkpt lat="42.42351" lon="3.16345">
        <ele>65.36</ele>
        <time>2024-09-22T08:46:06.999Z</time>
      </trkpt>
      <trkpt lat="42.42349" lon="3.16333">
        <ele>66.46</ele>
        <time>2024-09-22T08:46:11.999Z</time>
      </trkpt>
      <trkpt lat="42.42347" lon="3.1632">
        <ele>67.73</ele>
        <time>2024-09-22T08:46:16.999Z</time>
      </trkpt>
      <trkpt lat="42.42346" lon="3.16307">
        <ele>69.35</ele>
        <time>2024-09-22T08:46:22.999Z</time>
      </trkpt>
      <trkpt lat="42.42344" lon="3.16294">
        <ele>70.75</ele>
        <time>2024-09-22T08:46:27.999Z</time>
      </trkpt>
      <trkpt lat="42.42341" lon="3.16281">
        <ele>72.17</ele>
        <time>2024-09-22T08:46:32.999Z</time>
      </trkpt>
      <trkpt lat="42.4234" lon="3.16267">
        <ele>73.87</ele>
        <time>2024-09-22T08:46:38.999Z</time>
      </trkpt>
      <trkpt lat="42.42338" lon="3.16254">
        <ele>75.25</ele>
        <time>2024-09-22T08:46:43.999Z</time>
      </trkpt>
      <trkpt lat="42.42336" lon="3.16242">
        <ele>76.58</ele>
        <time>2024-09-22T08:46:48.999Z</time>
      </trkpt>
      <trkpt lat="42.42334" lon="3.16228">
        <ele>77.86</ele>
        <time>2024-09-22T08:46:53.999Z</time>
      </trkpt>
      <trkpt lat="42.42331" lon="3.16213">
        <ele>79.07</ele>
        <time>2024-09-22T08:46:58.999Z</time>
      </trkpt>
      <trkpt lat="42.42327" lon="3.16199">
        <ele>80.21</ele>
        <time>2024-09-22T08:47:03.999Z</time>
      </trkpt>
      <trkpt lat="42.42322" lon="3.16184">
        <ele>81.28</ele>
        <time>2024-09-22T08:47:08.999Z</time>
      </trkpt>
      <trkpt lat="42.42316" lon="3.16169">
        <ele>82.27</ele>
        <time>2024-09-22T08:47:13.999Z</time>
      </trkpt>
      <trkpt lat="42.42309" lon="3.16155">
        <ele>83.2</ele>
        <time>2024-09-22T08:47:18.999Z</time>
      </trkpt>
      <trkpt lat="42.423" lon="3.16142">
        <ele>84.08</ele>
        <time>2024-09-22T08:47:23.999Z</time>
      </trkpt>
      <trkpt lat="42.42291" lon="3.1613">
        <ele>84.91</ele>
        <time>2024-09-22T08:47:28.999Z</time>
      </trkpt>
      <trkpt lat="42.42279" lon="3.16116">
        <ele>85.7</ele>
        <time>2024-09-22T08:47:33.999Z</time>
      </trkpt>
      <trkpt lat="42.42267" lon="3.16104">
        <ele>86.47</ele>
        <time>2024-09-22T08:47:38.999Z</time>
      </trkpt>
      <trkpt lat="42.42256" lon="3.16099">
        <ele>87.23</ele>
        <time>2024-09-22T08:47:43.999Z</time>
      </trkpt>
      <trkpt lat="42.42243" lon="3.1609">
        <ele>87.93</ele>
        <time>2024-09-22T08:47:48.999Z</time>
      </trkpt>
      <trkpt lat="42.42175" lon="3.16079">
        <ele>92.97</ele>
        <time>2024-09-22T08:48:07.999Z</time>
      </trkpt>
      <trkpt lat="42.42157" lon="3.16079">
        <ele>94.8</ele>
        <time>2024-09-22T08:48:12.999Z</time>
      </trkpt>
      <trkpt lat="42.42145" lon="3.16084">
        <ele>95.16</ele>
        <time>2024-09-22T08:48:17.999Z</time>
      </trkpt>
      <trkpt lat="42.42131" lon="3.16085">
        <ele>95.4</ele>
        <time>2024-09-22T08:48:22.999Z</time>
      </trkpt>
      <trkpt lat="42.41596" lon="3.16054">
        <ele>99.15</ele>
        <time>2024-09-22T08:50:14.999Z</time>
      </trkpt>
      <trkpt lat="42.41584" lon="3.1605">
        <ele>100.88</ele>
        <time>2024-09-22T08:50:19.999Z</time>
      </trkpt>
      <trkpt lat="42.41574" lon="3.16043">
        <ele>101.6</ele>
        <time>2024-09-22T08:50:24.999Z</time>
      </trkpt>
      <trkpt lat="42.41566" lon="3.16028">
        <ele>99.99</ele>
        <time>2024-09-22T08:50:29.999Z</time>
      </trkpt>
      <trkpt lat="42.4155" lon="3.16033">
        <ele>98.42</ele>
        <time>2024-09-22T08:50:34.999Z</time>
      </trkpt>
      <trkpt lat="42.41506" lon="3.16006">
        <ele>98.28</ele>
        <time>2024-09-22T08:50:39.999Z</time>
      </trkpt>
      <trkpt lat="42.41509" lon="3.16018">
        <ele>105.58</ele>
        <time>2024-09-22T08:55:37.000Z</time>
      </trkpt>
      <trkpt lat="42.41522" lon="3.16025">
        <ele>106.22</ele>
        <time>2024-09-22T08:55:42.000Z</time>
      </trkpt>
      <trkpt lat="42.41536" lon="3.16034">
        <ele>106.79</ele>
        <time>2024-09-22T08:55:47.000Z</time>
      </trkpt>
      <trkpt lat="42.41549" lon="3.16043">
        <ele>107.31</ele>
        <time>2024-09-22T08:55:52.000Z</time>
      </trkpt>
      <trkpt lat="42.41561" lon="3.16051">
        <ele>107.78</ele>
        <time>2024-09-22T08:55:57.000Z</time>
      </trkpt>
      <trkpt lat="42.4158" lon="3.16066">
        <ele>110.28</ele>
        <time>2024-09-22T08:56:02.000Z</time>
      </trkpt>
      <trkpt lat="42.41601" lon="3.16083">
        <ele>111.54</ele>
        <time>2024-09-22T08:56:07.000Z</time>
      </trkpt>
      <trkpt lat="42.41605" lon="3.16105">
        <ele>111.72</ele>
        <time>2024-09-22T08:56:12.000Z</time>
      </trkpt>
      <trkpt lat="42.41602" lon="3.16118">
        <ele>111.75</ele>
        <time>2024-09-22T08:56:18.000Z</time>
      </trkpt>
      <trkpt lat="42.416" lon="3.16133">
        <ele>111.77</ele>
        <time>2024-09-22T08:56:23.000Z</time>
      </trkpt>
      <trkpt lat="42.41601" lon="3.16147">
        <ele>111.78</ele>
        <time>2024-09-22T08:56:28.000Z</time>
      </trkpt>
      <trkpt lat="42.41604" lon="3.16163">
        <ele>111.78</ele>
        <time>2024-09-22T08:56:33.000Z</time>
      </trkpt>
      <trkpt lat="42.41596" lon="3.16186">
        <ele>111.77</ele>
        <time>2024-09-22T08:56:38.000Z</time>
      </trkpt>
      <trkpt lat="42.41579" lon="3.16206">
        <ele>111.7</ele>
        <time>2024-09-22T08:56:43.000Z</time>
      </trkpt>
      <trkpt lat="42.41556" lon="3.16239">
        <ele>111.51</ele>
        <time>2024-09-22T08:56:48.000Z</time>
      </trkpt>
      <trkpt lat="42.41533" lon="3.16294">
        <ele>110.97</ele>
        <time>2024-09-22T08:56:53.000Z</time>
      </trkpt>
      <trkpt lat="42.41501" lon="3.1631">
        <ele>109.97</ele>
        <time>2024-09-22T08:56:58.000Z</time>
      </trkpt>
      <trkpt lat="42.41453" lon="3.16284">
        <ele>108.15</ele>
        <time>2024-09-22T08:57:03.000Z</time>
      </trkpt>
      <trkpt lat="42.41417" lon="3.16284">
        <ele>107.18</ele>
        <time>2024-09-22T08:57:08.000Z</time>
      </trkpt>
      <trkpt lat="42.41395" lon="3.16293">
        <ele>106.37</ele>
        <time>2024-09-22T08:57:13.000Z</time>
      </trkpt>
      <trkpt lat="42.41362" lon="3.16304">
        <ele>101</ele>
        <time>2024-09-22T08:57:18.000Z</time>
      </trkpt>
      <trkpt lat="42.41328" lon="3.16316">
        <ele>94.69</ele>
        <time>2024-09-22T08:57:23.000Z</time>
      </trkpt>
      <trkpt lat="42.4129" lon="3.16335">
        <ele>88.74</ele>
        <time>2024-09-22T08:57:28.000Z</time>
      </trkpt>
      <trkpt lat="42.41248" lon="3.16343">
        <ele>83.25</ele>
        <time>2024-09-22T08:57:33.000Z</time>
      </trkpt>
      <trkpt lat="42.41211" lon="3.1634">
        <ele>78.93</ele>
        <time>2024-09-22T08:57:38.000Z</time>
      </trkpt>
      <trkpt lat="42.41183" lon="3.16363">
        <ele>74.43</ele>
        <time>2024-09-22T08:57:43.000Z</time>
      </trkpt>
      <trkpt lat="42.41172" lon="3.16399">
        <ele>69.21</ele>
        <time>2024-09-22T08:57:48.000Z</time>
      </trkpt>
      <trkpt lat="42.41171" lon="3.16434">
        <ele>64.79</ele>
        <time>2024-09-22T08:57:53.000Z</time>
      </trkpt>
      <trkpt lat="42.41174" lon="3.16473">
        <ele>61.41</ele>
        <time>2024-09-22T08:57:58.000Z</time>
      </trkpt>
      <trkpt lat="42.41161" lon="3.16498">
        <ele>58.23</ele>
        <time>2024-09-22T08:58:03.000Z</time>
      </trkpt>
      <trkpt lat="42.41142" lon="3.16475">
        <ele>55.64</ele>
        <time>2024-09-22T08:58:08.000Z</time>
      </trkpt>
      <trkpt lat="42.41132" lon="3.16429">
        <ele>53.66</ele>
        <time>2024-09-22T08:58:13.000Z</time>
      </trkpt>
      <trkpt lat="42.41134" lon="3.16381">
        <ele>52.42</ele>
        <time>2024-09-22T08:58:18.000Z</time>
      </trkpt>
      <trkpt lat="42.41136" lon="3.16335">
        <ele>50.92</ele>
        <time>2024-09-22T08:58:23.000Z</time>
      </trkpt>
      <trkpt lat="42.41146" lon="3.16297">
        <ele>48.07</ele>
        <time>2024-09-22T08:58:28.000Z</time>
      </trkpt>
      <trkpt lat="42.4116" lon="3.1628">
        <ele>46.6</ele>
        <time>2024-09-22T08:58:33.000Z</time>
      </trkpt>
      <trkpt lat="42.41185" lon="3.16277">
        <ele>43.93</ele>
        <time>2024-09-22T08:58:38.000Z</time>
      </trkpt>
      <trkpt lat="42.41203" lon="3.16261">
        <ele>42.47</ele>
        <time>2024-09-22T08:58:43.000Z</time>
      </trkpt>
      <trkpt lat="42.41203" lon="3.16235">
        <ele>41.93</ele>
        <time>2024-09-22T08:58:48.000Z</time>
      </trkpt>
      <trkpt lat="42.41197" lon="3.16218">
        <ele>42.04</ele>
        <time>2024-09-22T08:58:53.000Z</time>
      </trkpt>
      <trkpt lat="42.41195" lon="3.16202">
        <ele>42.09</ele>
        <time>2024-09-22T08:58:58.000Z</time>
      </trkpt>
      <trkpt lat="42.41191" lon="3.16186">
        <ele>42.09</ele>
        <time>2024-09-22T08:59:03.000Z</time>
      </trkpt>
      <trkpt lat="42.41188" lon="3.1617">
        <ele>42</ele>
        <time>2024-09-22T08:59:08.000Z</time>
      </trkpt>
      <trkpt lat="42.4118" lon="3.16151">
        <ele>41.83</ele>
        <time>2024-09-22T08:59:13.000Z</time>
      </trkpt>
      <trkpt lat="42.41172" lon="3.16143">
        <ele>41.62</ele>
        <time>2024-09-22T08:59:18.000Z</time>
      </trkpt>
      <trkpt lat="42.41162" lon="3.16146">
        <ele>41.22</ele>
        <time>2024-09-22T08:59:25.000Z</time>
      </trkpt>
      <trkpt lat="42.41154" lon="3.1615">
        <ele>40.83</ele>
        <time>2024-09-22T08:59:31.000Z</time>
      </trkpt>
      <trkpt lat="42.41145" lon="3.16155">
        <ele>40.37</ele>
        <time>2024-09-22T08:59:38.000Z</time>
      </trkpt>
      <trkpt lat="42.41135" lon="3.16158">
        <ele>39.94</ele>
        <time>2024-09-22T08:59:45.000Z</time>
      </trkpt>
      <trkpt lat="42.41126" lon="3.1616">
        <ele>39.6</ele>
        <time>2024-09-22T08:59:51.000Z</time>
      </trkpt>
      <trkpt lat="42.41117" lon="3.16158">
        <ele>39.23</ele>
        <time>2024-09-22T08:59:58.000Z</time>
      </trkpt>
      <trkpt lat="42.41108" lon="3.16152">
        <ele>38.95</ele>
        <time>2024-09-22T09:00:04.000Z</time>
      </trkpt>
      <trkpt lat="42.41101" lon="3.16141">
        <ele>38.69</ele>
        <time>2024-09-22T09:00:10.000Z</time>
      </trkpt>
      <trkpt lat="42.41096" lon="3.1613">
        <ele>38.49</ele>
        <time>2024-09-22T09:00:15.000Z</time>
      </trkpt>
      <trkpt lat="42.41093" lon="3.16118">
        <ele>38.29</ele>
        <time>2024-09-22T09:00:20.000Z</time>
      </trkpt>
      <trkpt lat="42.4109" lon="3.16105">
        <ele>38.11</ele>
        <time>2024-09-22T09:00:25.000Z</time>
      </trkpt>
      <trkpt lat="42.41087" lon="3.16092">
        <ele>37.93</ele>
        <time>2024-09-22T09:00:30.000Z</time>
      </trkpt>
      <trkpt lat="42.41084" lon="3.16078">
        <ele>37.77</ele>
        <time>2024-09-22T09:00:35.000Z</time>
      </trkpt>
      <trkpt lat="42.41078" lon="3.16067">
        <ele>37.62</ele>
        <time>2024-09-22T09:00:40.000Z</time>
      </trkpt>
      <trkpt lat="42.41068" lon="3.16065">
        <ele>37.48</ele>
        <time>2024-09-22T09:00:45.000Z</time>
      </trkpt>
      <trkpt lat="42.41058" lon="3.16066">
        <ele>37.34</ele>
        <time>2024-09-22T09:00:51.000Z</time>
      </trkpt>
      <trkpt lat="42.41049" lon="3.16069">
        <ele>37.24</ele>
        <time>2024-09-22T09:00:57.000Z</time>
      </trkpt>
      <trkpt lat="42.4104" lon="3.16074">
        <ele>37.16</ele>
        <time>2024-09-22T09:01:03.000Z</time>
      </trkpt>
      <trkpt lat="42.41032" lon="3.16082">
        <ele>37.11</ele>
        <time>2024-09-22T09:01:08.000Z</time>
      </trkpt>
      <trkpt lat="42.41024" lon="3.16092">
        <ele>37.09</ele>
        <time>2024-09-22T09:01:13.000Z</time>
      </trkpt>
      <trkpt lat="42.41016" lon="3.16104">
        <ele>37.07</ele>
        <time>2024-09-22T09:01:18.000Z</time>
      </trkpt>
      <trkpt lat="42.41007" lon="3.16116">
        <ele>37.08</ele>
        <time>2024-09-22T09:01:23.000Z</time>
      </trkpt>
      <trkpt lat="42.40997" lon="3.16119">
        <ele>37.09</ele>
        <time>2024-09-22T09:01:29.000Z</time>
      </trkpt>
      <trkpt lat="42.40987" lon="3.16119">
        <ele>37.11</ele>
        <time>2024-09-22T09:01:34.000Z</time>
      </trkpt>
      <trkpt lat="42.40978" lon="3.16116">
        <ele>37.14</ele>
        <time>2024-09-22T09:01:40.000Z</time>
      </trkpt>
      <trkpt lat="42.4097" lon="3.16107">
        <ele>37.18</ele>
        <time>2024-09-22T09:01:46.000Z</time>
      </trkpt>
      <trkpt lat="42.40964" lon="3.16095">
        <ele>37.23</ele>
        <time>2024-09-22T09:01:51.000Z</time>
      </trkpt>
      <trkpt lat="42.40958" lon="3.16082">
        <ele>37.29</ele>
        <time>2024-09-22T09:01:56.000Z</time>
      </trkpt>
      <trkpt lat="42.40953" lon="3.16062">
        <ele>37.34</ele>
        <time>2024-09-22T09:02:01.000Z</time>
      </trkpt>
      <trkpt lat="42.40945" lon="3.16035">
        <ele>37.73</ele>
        <time>2024-09-22T09:02:06.000Z</time>
      </trkpt>
      <trkpt lat="42.40937" lon="3.16007">
        <ele>37.9</ele>
        <time>2024-09-22T09:02:11.000Z</time>
      </trkpt>
      <trkpt lat="42.40929" lon="3.15988">
        <ele>37.94</ele>
        <time>2024-09-22T09:02:16.000Z</time>
      </trkpt>
      <trkpt lat="42.40925" lon="3.15975">
        <ele>37.96</ele>
        <time>2024-09-22T09:02:21.000Z</time>
      </trkpt>
      <trkpt lat="42.40922" lon="3.1596">
        <ele>38</ele>
        <time>2024-09-22T09:02:26.000Z</time>
      </trkpt>
      <trkpt lat="42.40922" lon="3.15945">
        <ele>38.04</ele>
        <time>2024-09-22T09:02:31.000Z</time>
      </trkpt>
      <trkpt lat="42.40924" lon="3.15924">
        <ele>38.17</ele>
        <time>2024-09-22T09:02:36.000Z</time>
      </trkpt>
      <trkpt lat="42.40922" lon="3.15888">
        <ele>38.6</ele>
        <time>2024-09-22T09:02:41.000Z</time>
      </trkpt>
      <trkpt lat="42.40908" lon="3.15839">
        <ele>38.86</ele>
        <time>2024-09-22T09:02:46.000Z</time>
      </trkpt>
      <trkpt lat="42.40892" lon="3.15793">
        <ele>39.02</ele>
        <time>2024-09-22T09:02:51.000Z</time>
      </trkpt>
      <trkpt lat="42.4088" lon="3.15751">
        <ele>39.4</ele>
        <time>2024-09-22T09:02:56.000Z</time>
      </trkpt>
      <trkpt lat="42.40862" lon="3.15715">
        <ele>38.99</ele>
        <time>2024-09-22T09:03:01.000Z</time>
      </trkpt>
      <trkpt lat="42.40832" lon="3.15681">
        <ele>37.21</ele>
        <time>2024-09-22T09:03:06.000Z</time>
      </trkpt>
      <trkpt lat="42.40799" lon="3.15643">
        <ele>36.49</ele>
        <time>2024-09-22T09:03:11.000Z</time>
      </trkpt>
      <trkpt lat="42.40767" lon="3.15602">
        <ele>37.01</ele>
        <time>2024-09-22T09:03:16.000Z</time>
      </trkpt>
      <trkpt lat="42.40734" lon="3.15557">
        <ele>37.39</ele>
        <time>2024-09-22T09:03:21.999Z</time>
      </trkpt>
      <trkpt lat="42.40716" lon="3.15533">
        <ele>37.64</ele>
        <time>2024-09-22T09:03:26.999Z</time>
      </trkpt>
      <trkpt lat="42.40706" lon="3.1552">
        <ele>37.68</ele>
        <time>2024-09-22T09:03:31.999Z</time>
      </trkpt>
      <trkpt lat="42.40698" lon="3.15509">
        <ele>37.69</ele>
        <time>2024-09-22T09:03:36.999Z</time>
      </trkpt>
      <trkpt lat="42.40689" lon="3.15498">
        <ele>37.74</ele>
        <time>2024-09-22T09:03:41.999Z</time>
      </trkpt>
      <trkpt lat="42.40679" lon="3.15489">
        <ele>37.79</ele>
        <time>2024-09-22T09:03:46.999Z</time>
      </trkpt>
      <trkpt lat="42.40672" lon="3.15474">
        <ele>37.84</ele>
        <time>2024-09-22T09:03:51.999Z</time>
      </trkpt>
      <trkpt lat="42.40663" lon="3.15458">
        <ele>37.86</ele>
        <time>2024-09-22T09:03:56.999Z</time>
      </trkpt>
      <trkpt lat="42.40653" lon="3.15446">
        <ele>37.89</ele>
        <time>2024-09-22T09:04:01.999Z</time>
      </trkpt>
      <trkpt lat="42.40641" lon="3.15432">
        <ele>37.92</ele>
        <time>2024-09-22T09:04:06.999Z</time>
      </trkpt>
      <trkpt lat="42.40628" lon="3.15419">
        <ele>37.98</ele>
        <time>2024-09-22T09:04:11.999Z</time>
      </trkpt>
      <trkpt lat="42.40614" lon="3.15408">
        <ele>38.01</ele>
        <time>2024-09-22T09:04:16.999Z</time>
      </trkpt>
      <trkpt lat="42.40602" lon="3.15398">
        <ele>37.99</ele>
        <time>2024-09-22T09:04:21.999Z</time>
      </trkpt>
      <trkpt lat="42.40591" lon="3.154">
        <ele>37.98</ele>
        <time>2024-09-22T09:04:26.999Z</time>
      </trkpt>
      <trkpt lat="42.40575" lon="3.15422">
        <ele>38.26</ele>
        <time>2024-09-22T09:04:31.999Z</time>
      </trkpt>
      <trkpt lat="42.40556" lon="3.15451">
        <ele>38.45</ele>
        <time>2024-09-22T09:04:36.999Z</time>
      </trkpt>
      <trkpt lat="42.40538" lon="3.1548">
        <ele>38.42</ele>
        <time>2024-09-22T09:04:41.999Z</time>
      </trkpt>
      <trkpt lat="42.40526" lon="3.15511">
        <ele>38.39</ele>
        <time>2024-09-22T09:04:46.999Z</time>
      </trkpt>
      <trkpt lat="42.40516" lon="3.15539">
        <ele>38.31</ele>
        <time>2024-09-22T09:04:51.999Z</time>
      </trkpt>
      <trkpt lat="42.405" lon="3.15572">
        <ele>38.08</ele>
        <time>2024-09-22T09:04:56.999Z</time>
      </trkpt>
      <trkpt lat="42.40489" lon="3.15593">
        <ele>37.87</ele>
        <time>2024-09-22T09:05:01.999Z</time>
      </trkpt>
      <trkpt lat="42.40478" lon="3.15558">
        <ele>37.59</ele>
        <time>2024-09-22T09:05:06.999Z</time>
      </trkpt>
      <trkpt lat="42.40464" lon="3.15515">
        <ele>37.32</ele>
        <time>2024-09-22T09:05:11.999Z</time>
      </trkpt>
      <trkpt lat="42.40451" lon="3.155">
        <ele>37.04</ele>
        <time>2024-09-22T09:05:16.999Z</time>
      </trkpt>
      <trkpt lat="42.40445" lon="3.1549">
        <ele>36.89</ele>
        <time>2024-09-22T09:05:21.999Z</time>
      </trkpt>
      <trkpt lat="42.40442" lon="3.15474">
        <ele>36.67</ele>
        <time>2024-09-22T09:05:26.999Z</time>
      </trkpt>
      <trkpt lat="42.4044" lon="3.15462">
        <ele>36.41</ele>
        <time>2024-09-22T09:05:31.999Z</time>
      </trkpt>
      <trkpt lat="42.40438" lon="3.15449">
        <ele>35.99</ele>
        <time>2024-09-22T09:05:38.999Z</time>
      </trkpt>
      <trkpt lat="42.40432" lon="3.15435">
        <ele>35.32</ele>
        <time>2024-09-22T09:06:29.999Z</time>
      </trkpt>
      <trkpt lat="42.40429" lon="3.15423">
        <ele>34.96</ele>
        <time>2024-09-22T09:06:35.999Z</time>
      </trkpt>
      <trkpt lat="42.40427" lon="3.15408">
        <ele>34.64</ele>
        <time>2024-09-22T09:06:40.999Z</time>
      </trkpt>
      <trkpt lat="42.40423" lon="3.15389">
        <ele>34.31</ele>
        <time>2024-09-22T09:06:45.999Z</time>
      </trkpt>
      <trkpt lat="42.40419" lon="3.1537">
        <ele>33.96</ele>
        <time>2024-09-22T09:06:50.999Z</time>
      </trkpt>
      <trkpt lat="42.40417" lon="3.15353">
        <ele>33.58</ele>
        <time>2024-09-22T09:06:55.999Z</time>
      </trkpt>
      <trkpt lat="42.40409" lon="3.15332">
        <ele>33.23</ele>
        <time>2024-09-22T09:07:00.999Z</time>
      </trkpt>
      <trkpt lat="42.40407" lon="3.15315">
        <ele>32.88</ele>
        <time>2024-09-22T09:07:05.999Z</time>
      </trkpt>
      <trkpt lat="42.40407" lon="3.15299">
        <ele>32.59</ele>
        <time>2024-09-22T09:07:10.999Z</time>
      </trkpt>
      <trkpt lat="42.40408" lon="3.15281">
        <ele>32.36</ele>
        <time>2024-09-22T09:07:15.999Z</time>
      </trkpt>
      <trkpt lat="42.40408" lon="3.15262">
        <ele>32.16</ele>
        <time>2024-09-22T09:07:20.999Z</time>
      </trkpt>
      <trkpt lat="42.40403" lon="3.15242">
        <ele>31.93</ele>
        <time>2024-09-22T09:07:25.999Z</time>
      </trkpt>
      <trkpt lat="42.40395" lon="3.15221">
        <ele>31.7</ele>
        <time>2024-09-22T09:07:30.999Z</time>
      </trkpt>
      <trkpt lat="42.40393" lon="3.15205">
        <ele>31.5</ele>
        <time>2024-09-22T09:07:35.999Z</time>
      </trkpt>
      <trkpt lat="42.40384" lon="3.15195">
        <ele>31.12</ele>
        <time>2024-09-22T09:07:54.999Z</time>
      </trkpt>
      <trkpt lat="42.40366" lon="3.15193">
        <ele>30.96</ele>
        <time>2024-09-22T09:07:59.999Z</time>
      </trkpt>
      <trkpt lat="42.40351" lon="3.15191">
        <ele>30.81</ele>
        <time>2024-09-22T09:08:04.999Z</time>
      </trkpt>
      <trkpt lat="42.40333" lon="3.152">
        <ele>30.69</ele>
        <time>2024-09-22T09:08:09.999Z</time>
      </trkpt>
      <trkpt lat="42.40315" lon="3.15209">
        <ele>30.57</ele>
        <time>2024-09-22T09:08:14.999Z</time>
      </trkpt>
      <trkpt lat="42.403" lon="3.15215">
        <ele>30.46</ele>
        <time>2024-09-22T09:08:19.999Z</time>
      </trkpt>
      <trkpt lat="42.40288" lon="3.15218">
        <ele>30.31</ele>
        <time>2024-09-22T09:08:24.999Z</time>
      </trkpt>
      <trkpt lat="42.40277" lon="3.15222">
        <ele>30.17</ele>
        <time>2024-09-22T09:08:29.999Z</time>
      </trkpt>
      <trkpt lat="42.40261" lon="3.15222">
        <ele>30.04</ele>
        <time>2024-09-22T09:08:34.999Z</time>
      </trkpt>
      <trkpt lat="42.40245" lon="3.15217">
        <ele>29.91</ele>
        <time>2024-09-22T09:08:39.999Z</time>
      </trkpt>
      <trkpt lat="42.40231" lon="3.15207">
        <ele>29.79</ele>
        <time>2024-09-22T09:08:44.999Z</time>
      </trkpt>
      <trkpt lat="42.40223" lon="3.15192">
        <ele>29.64</ele>
        <time>2024-09-22T09:08:49.999Z</time>
      </trkpt>
      <trkpt lat="42.40216" lon="3.15176">
        <ele>29.49</ele>
        <time>2024-09-22T09:08:54.999Z</time>
      </trkpt>
      <trkpt lat="42.40208" lon="3.15171">
        <ele>29.34</ele>
        <time>2024-09-22T09:08:59.999Z</time>
      </trkpt>
      <trkpt lat="42.40198" lon="3.15173">
        <ele>29.09</ele>
        <time>2024-09-22T09:09:08.999Z</time>
      </trkpt>
      <trkpt lat="42.40188" lon="3.15174">
        <ele>28.93</ele>
        <time>2024-09-22T09:09:15.999Z</time>
      </trkpt>
      <trkpt lat="42.40179" lon="3.15172">
        <ele>28.81</ele>
        <time>2024-09-22T09:09:21.999Z</time>
      </trkpt>
      <trkpt lat="42.40169" lon="3.15172">
        <ele>28.69</ele>
        <time>2024-09-22T09:09:27.999Z</time>
      </trkpt>
      <trkpt lat="42.40164" lon="3.15161">
        <ele>28.56</ele>
        <time>2024-09-22T09:09:33.999Z</time>
      </trkpt>
      <trkpt lat="42.4016" lon="3.1515">
        <ele>28.26</ele>
        <time>2024-09-22T09:10:14.999Z</time>
      </trkpt>
      <trkpt lat="42.40154" lon="3.1514">
        <ele>28.01</ele>
        <time>2024-09-22T09:10:27.999Z</time>
      </trkpt>
      <trkpt lat="42.4015" lon="3.15129">
        <ele>27.73</ele>
        <time>2024-09-22T09:10:54.999Z</time>
      </trkpt>
      <trkpt lat="42.40143" lon="3.15121">
        <ele>27.58</ele>
        <time>2024-09-22T09:12:10.999Z</time>
      </trkpt>
      <trkpt lat="42.40138" lon="3.15111">
        <ele>27.74</ele>
        <time>2024-09-22T09:12:46.999Z</time>
      </trkpt>
      <trkpt lat="42.40136" lon="3.15099">
        <ele>27.87</ele>
        <time>2024-09-22T09:13:10.999Z</time>
      </trkpt>
      <trkpt lat="42.40129" lon="3.1509">
        <ele>27.99</ele>
        <time>2024-09-22T09:13:25.999Z</time>
      </trkpt>
      <trkpt lat="42.40123" lon="3.1508">
        <ele>28.17</ele>
        <time>2024-09-22T09:13:50.999Z</time>
      </trkpt>
      <trkpt lat="42.40114" lon="3.15079">
        <ele>30.25</ele>
        <time>2024-09-22T09:17:33.000Z</time>
      </trkpt>
      <trkpt lat="42.40105" lon="3.15074">
        <ele>30.78</ele>
        <time>2024-09-22T09:17:49.000Z</time>
      </trkpt>
      <trkpt lat="42.40096" lon="3.15071">
        <ele>31.4</ele>
        <time>2024-09-22T09:18:11.000Z</time>
      </trkpt>
      <trkpt lat="42.40086" lon="3.1507">
        <ele>31.69</ele>
        <time>2024-09-22T09:18:23.000Z</time>
      </trkpt>
      <trkpt lat="42.40077" lon="3.15072">
        <ele>31.98</ele>
        <time>2024-09-22T09:18:40.000Z</time>
      </trkpt>
      <trkpt lat="42.40068" lon="3.15072">
        <ele>32.21</ele>
        <time>2024-09-22T09:18:53.000Z</time>
      </trkpt>
      <trkpt lat="42.40059" lon="3.15074">
        <ele>32.42</ele>
        <time>2024-09-22T09:19:07.000Z</time>
      </trkpt>
      <trkpt lat="42.4005" lon="3.1507">
        <ele>32.72</ele>
        <time>2024-09-22T09:19:21.000Z</time>
      </trkpt>
      <trkpt lat="42.4004" lon="3.15068">
        <ele>32.95</ele>
        <time>2024-09-22T09:19:31.000Z</time>
      </trkpt>
      <trkpt lat="42.40031" lon="3.15068">
        <ele>33.29</ele>
        <time>2024-09-22T09:19:46.000Z</time>
      </trkpt>
      <trkpt lat="42.40022" lon="3.15066">
        <ele>34.08</ele>
        <time>2024-09-22T09:20:09.000Z</time>
      </trkpt>
      <trkpt lat="42.40013" lon="3.15063">
        <ele>34.51</ele>
        <time>2024-09-22T09:20:21.000Z</time>
      </trkpt>
      <trkpt lat="42.40004" lon="3.15063">
        <ele>35.08</ele>
        <time>2024-09-22T09:20:36.000Z</time>
      </trkpt>
      <trkpt lat="42.39995" lon="3.15064">
        <ele>35.89</ele>
        <time>2024-09-22T09:20:53.000Z</time>
      </trkpt>
      <trkpt lat="42.39985" lon="3.15066">
        <ele>37.36</ele>
        <time>2024-09-22T09:21:16.000Z</time>
      </trkpt>
      <trkpt lat="42.39976" lon="3.15068">
        <ele>38.16</ele>
        <time>2024-09-22T09:21:26.000Z</time>
      </trkpt>
      <trkpt lat="42.39967" lon="3.15067">
        <ele>40.27</ele>
        <time>2024-09-22T09:21:56.000Z</time>
      </trkpt>
      <trkpt lat="42.3996" lon="3.1506">
        <ele>43.52</ele>
        <time>2024-09-22T09:22:41.000Z</time>
      </trkpt>
      <trkpt lat="42.3995" lon="3.15056">
        <ele>45.17</ele>
        <time>2024-09-22T09:22:57.000Z</time>
      </trkpt>
      <trkpt lat="42.39941" lon="3.15053">
        <ele>46.87</ele>
        <time>2024-09-22T09:23:15.000Z</time>
      </trkpt>
      <trkpt lat="42.39936" lon="3.15042">
        <ele>48.76</ele>
        <time>2024-09-22T09:23:38.000Z</time>
      </trkpt>
      <trkpt lat="42.39936" lon="3.1503">
        <ele>50.53</ele>
        <time>2024-09-22T09:24:03.000Z</time>
      </trkpt>
      <trkpt lat="42.39937" lon="3.15017">
        <ele>52.52</ele>
        <time>2024-09-22T09:24:16.000Z</time>
      </trkpt>
      <trkpt lat="42.39939" lon="3.15005">
        <ele>54.84</ele>
        <time>2024-09-22T09:24:29.000Z</time>
      </trkpt>
      <trkpt lat="42.39938" lon="3.14992">
        <ele>70.22</ele>
        <time>2024-09-22T09:30:35.999Z</time>
      </trkpt>
      <trkpt lat="42.39933" lon="3.14982">
        <ele>72.63</ele>
        <time>2024-09-22T09:31:05.999Z</time>
      </trkpt>
      <trkpt lat="42.39925" lon="3.14975">
        <ele>75.68</ele>
        <time>2024-09-22T09:34:45.999Z</time>
      </trkpt>
      <trkpt lat="42.39916" lon="3.14978">
        <ele>76.26</ele>
        <time>2024-09-22T09:35:07.999Z</time>
      </trkpt>
      <trkpt lat="42.39912" lon="3.14989">
        <ele>76.51</ele>
        <time>2024-09-22T09:35:14.999Z</time>
      </trkpt>
      <trkpt lat="42.39907" lon="3.15001">
        <ele>76.67</ele>
        <time>2024-09-22T09:35:19.999Z</time>
      </trkpt>
      <trkpt lat="42.39902" lon="3.15015">
        <ele>76.83</ele>
        <time>2024-09-22T09:35:24.999Z</time>
      </trkpt>
      <trkpt lat="42.39897" lon="3.15032">
        <ele>76.98</ele>
        <time>2024-09-22T09:35:29.999Z</time>
      </trkpt>
      <trkpt lat="42.39892" lon="3.15052">
        <ele>77.12</ele>
        <time>2024-09-22T09:35:34.999Z</time>
      </trkpt>
      <trkpt lat="42.39888" lon="3.15074">
        <ele>77.26</ele>
        <time>2024-09-22T09:35:39.999Z</time>
      </trkpt>
      <trkpt lat="42.39884" lon="3.15102">
        <ele>78.13</ele>
        <time>2024-09-22T09:35:44.999Z</time>
      </trkpt>
      <trkpt lat="42.39881" lon="3.15137">
        <ele>78.48</ele>
        <time>2024-09-22T09:35:49.999Z</time>
      </trkpt>
      <trkpt lat="42.3987" lon="3.15181">
        <ele>78.74</ele>
        <time>2024-09-22T09:35:54.999Z</time>
      </trkpt>
      <trkpt lat="42.39839" lon="3.15216">
        <ele>78.73</ele>
        <time>2024-09-22T09:35:59.999Z</time>
      </trkpt>
      <trkpt lat="42.39796" lon="3.15233">
        <ele>78.41</ele>
        <time>2024-09-22T09:36:04.999Z</time>
      </trkpt>
      <trkpt lat="42.39751" lon="3.15253">
        <ele>78.14</ele>
        <time>2024-09-22T09:36:09.999Z</time>
      </trkpt>
      <trkpt lat="42.39708" lon="3.15285">
        <ele>77.89</ele>
        <time>2024-09-22T09:36:14.999Z</time>
      </trkpt>
      <trkpt lat="42.39693" lon="3.15345">
        <ele>77.49</ele>
        <time>2024-09-22T09:36:19.999Z</time>
      </trkpt>
      <trkpt lat="42.39734" lon="3.15377">
        <ele>77.07</ele>
        <time>2024-09-22T09:36:24.999Z</time>
      </trkpt>
      <trkpt lat="42.39776" lon="3.15397">
        <ele>75.81</ele>
        <time>2024-09-22T09:36:29.999Z</time>
      </trkpt>
      <trkpt lat="42.39757" lon="3.1545">
        <ele>74.06</ele>
        <time>2024-09-22T09:36:34.999Z</time>
      </trkpt>
      <trkpt lat="42.39709" lon="3.15472">
        <ele>72.21</ele>
        <time>2024-09-22T09:36:39.999Z</time>
      </trkpt>
      <trkpt lat="42.39658" lon="3.15481">
        <ele>69.62</ele>
        <time>2024-09-22T09:36:44.999Z</time>
      </trkpt>
      <trkpt lat="42.39626" lon="3.15427">
        <ele>66.87</ele>
        <time>2024-09-22T09:36:49.999Z</time>
      </trkpt>
      <trkpt lat="42.39599" lon="3.15368">
        <ele>64.53</ele>
        <time>2024-09-22T09:36:54.999Z</time>
      </trkpt>
      <trkpt lat="42.39548" lon="3.15383">
        <ele>61.81</ele>
        <time>2024-09-22T09:36:59.999Z</time>
      </trkpt>
      <trkpt lat="42.3953" lon="3.15319">
        <ele>58.56</ele>
        <time>2024-09-22T09:37:04.999Z</time>
      </trkpt>
      <trkpt lat="42.39546" lon="3.15244">
        <ele>55.66</ele>
        <time>2024-09-22T09:37:09.999Z</time>
      </trkpt>
      <trkpt lat="42.39532" lon="3.15179">
        <ele>52.69</ele>
        <time>2024-09-22T09:37:14.999Z</time>
      </trkpt>
      <trkpt lat="42.39489" lon="3.15175">
        <ele>49.41</ele>
        <time>2024-09-22T09:37:19.999Z</time>
      </trkpt>
      <trkpt lat="42.39451" lon="3.15175">
        <ele>45.69</ele>
        <time>2024-09-22T09:37:24.999Z</time>
      </trkpt>
      <trkpt lat="42.39414" lon="3.15175">
        <ele>42.23</ele>
        <time>2024-09-22T09:37:29.999Z</time>
      </trkpt>
      <trkpt lat="42.39379" lon="3.15176">
        <ele>39.49</ele>
        <time>2024-09-22T09:37:34.999Z</time>
      </trkpt>
      <trkpt lat="42.3935" lon="3.15182">
        <ele>37.45</ele>
        <time>2024-09-22T09:37:39.999Z</time>
      </trkpt>
      <trkpt lat="42.39331" lon="3.15191">
        <ele>36.79</ele>
        <time>2024-09-22T09:37:44.999Z</time>
      </trkpt>
      <trkpt lat="42.3932" lon="3.15197">
        <ele>36.68</ele>
        <time>2024-09-22T09:37:49.999Z</time>
      </trkpt>
      <trkpt lat="42.39309" lon="3.15203">
        <ele>36.52</ele>
        <time>2024-09-22T09:37:54.999Z</time>
      </trkpt>
      <trkpt lat="42.39299" lon="3.15207">
        <ele>36.35</ele>
        <time>2024-09-22T09:37:59.999Z</time>
      </trkpt>
      <trkpt lat="42.3929" lon="3.1521">
        <ele>36.19</ele>
        <time>2024-09-22T09:38:04.999Z</time>
      </trkpt>
      <trkpt lat="42.3928" lon="3.1521">
        <ele>36.02</ele>
        <time>2024-09-22T09:38:10.999Z</time>
      </trkpt>
      <trkpt lat="42.3927" lon="3.15209">
        <ele>35.88</ele>
        <time>2024-09-22T09:38:16.999Z</time>
      </trkpt>
      <trkpt lat="42.3926" lon="3.15208">
        <ele>35.78</ele>
        <time>2024-09-22T09:38:22.999Z</time>
      </trkpt>
      <trkpt lat="42.39251" lon="3.15205">
        <ele>35.69</ele>
        <time>2024-09-22T09:38:28.999Z</time>
      </trkpt>
      <trkpt lat="42.39241" lon="3.15204">
        <ele>35.6</ele>
        <time>2024-09-22T09:38:34.999Z</time>
      </trkpt>
      <trkpt lat="42.3923" lon="3.15201">
        <ele>35.55</ele>
        <time>2024-09-22T09:38:41.999Z</time>
      </trkpt>
      <trkpt lat="42.39221" lon="3.15199">
        <ele>35.55</ele>
        <time>2024-09-22T09:38:46.999Z</time>
      </trkpt>
      <trkpt lat="42.39212" lon="3.15197">
        <ele>35.57</ele>
        <time>2024-09-22T09:38:51.999Z</time>
      </trkpt>
      <trkpt lat="42.39202" lon="3.15196">
        <ele>35.61</ele>
        <time>2024-09-22T09:38:56.999Z</time>
      </trkpt>
      <trkpt lat="42.39191" lon="3.15193">
        <ele>35.69</ele>
        <time>2024-09-22T09:39:01.999Z</time>
      </trkpt>
      <trkpt lat="42.39181" lon="3.15193">
        <ele>35.78</ele>
        <time>2024-09-22T09:39:06.999Z</time>
      </trkpt>
      <trkpt lat="42.3917" lon="3.15192">
        <ele>35.9</ele>
        <time>2024-09-22T09:39:11.999Z</time>
      </trkpt>
      <trkpt lat="42.39159" lon="3.15191">
        <ele>36.05</ele>
        <time>2024-09-22T09:39:16.999Z</time>
      </trkpt>
      <trkpt lat="42.39149" lon="3.15189">
        <ele>36.24</ele>
        <time>2024-09-22T09:39:21.999Z</time>
      </trkpt>
      <trkpt lat="42.39139" lon="3.15188">
        <ele>36.43</ele>
        <time>2024-09-22T09:39:26.999Z</time>
      </trkpt>
      <trkpt lat="42.3913" lon="3.15187">
        <ele>36.62</ele>
        <time>2024-09-22T09:39:31.999Z</time>
      </trkpt>
      <trkpt lat="42.39118" lon="3.15184">
        <ele>36.81</ele>
        <time>2024-09-22T09:39:36.999Z</time>
      </trkpt>
      <trkpt lat="42.39109" lon="3.15184">
        <ele>37</ele>
        <time>2024-09-22T09:39:41.999Z</time>
      </trkpt>
      <trkpt lat="42.391" lon="3.15188">
        <ele>37.22</ele>
        <time>2024-09-22T09:39:46.999Z</time>
      </trkpt>
      <trkpt lat="42.39091" lon="3.15195">
        <ele>37.46</ele>
        <time>2024-09-22T09:39:51.999Z</time>
      </trkpt>
      <trkpt lat="42.39083" lon="3.15202">
        <ele>37.69</ele>
        <time>2024-09-22T09:39:57.000Z</time>
      </trkpt>
      <trkpt lat="42.39075" lon="3.15209">
        <ele>37.94</ele>
        <time>2024-09-22T09:40:02.000Z</time>
      </trkpt>
      <trkpt lat="42.39068" lon="3.15219">
        <ele>38.26</ele>
        <time>2024-09-22T09:40:08.000Z</time>
      </trkpt>
      <trkpt lat="42.39061" lon="3.1523">
        <ele>38.53</ele>
        <time>2024-09-22T09:40:13.000Z</time>
      </trkpt>
      <trkpt lat="42.39056" lon="3.15242">
        <ele>38.8</ele>
        <time>2024-09-22T09:40:18.000Z</time>
      </trkpt>
      <trkpt lat="42.39053" lon="3.15255">
        <ele>39.09</ele>
        <time>2024-09-22T09:40:24.000Z</time>
      </trkpt>
      <trkpt lat="42.3905" lon="3.15267">
        <ele>39.34</ele>
        <time>2024-09-22T09:40:29.000Z</time>
      </trkpt>
      <trkpt lat="42.39049" lon="3.1528">
        <ele>39.65</ele>
        <time>2024-09-22T09:40:35.000Z</time>
      </trkpt>
      <trkpt lat="42.39048" lon="3.15293">
        <ele>40.01</ele>
        <time>2024-09-22T09:40:41.000Z</time>
      </trkpt>
      <trkpt lat="42.39049" lon="3.15306">
        <ele>40.36</ele>
        <time>2024-09-22T09:40:46.000Z</time>
      </trkpt>
      <trkpt lat="42.3905" lon="3.1532">
        <ele>40.79</ele>
        <time>2024-09-22T09:40:52.000Z</time>
      </trkpt>
      <trkpt lat="42.39051" lon="3.15334">
        <ele>41.26</ele>
        <time>2024-09-22T09:40:58.000Z</time>
      </trkpt>
      <trkpt lat="42.39052" lon="3.15346">
        <ele>41.67</ele>
        <time>2024-09-22T09:41:03.000Z</time>
      </trkpt>
      <trkpt lat="42.3905" lon="3.1536">
        <ele>42.14</ele>
        <time>2024-09-22T09:41:08.000Z</time>
      </trkpt>
      <trkpt lat="42.39047" lon="3.15374">
        <ele>42.74</ele>
        <time>2024-09-22T09:41:14.000Z</time>
      </trkpt>
      <trkpt lat="42.39042" lon="3.15385">
        <ele>43.26</ele>
        <time>2024-09-22T09:41:19.000Z</time>
      </trkpt>
      <trkpt lat="42.39035" lon="3.15395">
        <ele>43.94</ele>
        <time>2024-09-22T09:41:25.000Z</time>
      </trkpt>
      <trkpt lat="42.39027" lon="3.15405">
        <ele>44.55</ele>
        <time>2024-09-22T09:41:30.000Z</time>
      </trkpt>
      <trkpt lat="42.39017" lon="3.15417">
        <ele>45.18</ele>
        <time>2024-09-22T09:41:35.000Z</time>
      </trkpt>
      <trkpt lat="42.39004" lon="3.15432">
        <ele>45.78</ele>
        <time>2024-09-22T09:41:40.000Z</time>
      </trkpt>
      <trkpt lat="42.38991" lon="3.1545">
        <ele>47.21</ele>
        <time>2024-09-22T09:41:45.000Z</time>
      </trkpt>
      <trkpt lat="42.38979" lon="3.15471">
        <ele>50.51</ele>
        <time>2024-09-22T09:41:50.000Z</time>
      </trkpt>
      <trkpt lat="42.38966" lon="3.15499">
        <ele>52.39</ele>
        <time>2024-09-22T09:41:55.000Z</time>
      </trkpt>
      <trkpt lat="42.38961" lon="3.15531">
        <ele>52.79</ele>
        <time>2024-09-22T09:42:00.000Z</time>
      </trkpt>
      <trkpt lat="42.38964" lon="3.15568">
        <ele>52.75</ele>
        <time>2024-09-22T09:42:05.000Z</time>
      </trkpt>
      <trkpt lat="42.38957" lon="3.15605">
        <ele>52.58</ele>
        <time>2024-09-22T09:42:10.000Z</time>
      </trkpt>
      <trkpt lat="42.38941" lon="3.15637">
        <ele>52.42</ele>
        <time>2024-09-22T09:42:15.000Z</time>
      </trkpt>
      <trkpt lat="42.38931" lon="3.15676">
        <ele>52.22</ele>
        <time>2024-09-22T09:42:20.000Z</time>
      </trkpt>
      <trkpt lat="42.38923" lon="3.15714">
        <ele>52.09</ele>
        <time>2024-09-22T09:42:25.000Z</time>
      </trkpt>
      <trkpt lat="42.38907" lon="3.15743">
        <ele>52</ele>
        <time>2024-09-22T09:42:30.000Z</time>
      </trkpt>
      <trkpt lat="42.38889" lon="3.15768">
        <ele>51.85</ele>
        <time>2024-09-22T09:42:35.000Z</time>
      </trkpt>
      <trkpt lat="42.3887" lon="3.15793">
        <ele>51.68</ele>
        <time>2024-09-22T09:42:40.000Z</time>
      </trkpt>
      <trkpt lat="42.3885" lon="3.15811">
        <ele>51.52</ele>
        <time>2024-09-22T09:42:45.000Z</time>
      </trkpt>
      <trkpt lat="42.38827" lon="3.15819">
        <ele>51.38</ele>
        <time>2024-09-22T09:42:50.000Z</time>
      </trkpt>
      <trkpt lat="42.38802" lon="3.15823">
        <ele>51.15</ele>
        <time>2024-09-22T09:42:55.000Z</time>
      </trkpt>
      <trkpt lat="42.38774" lon="3.15827">
        <ele>50.92</ele>
        <time>2024-09-22T09:43:00.000Z</time>
      </trkpt>
      <trkpt lat="42.38742" lon="3.15818">
        <ele>50.74</ele>
        <time>2024-09-22T09:43:05.000Z</time>
      </trkpt>
      <trkpt lat="42.38711" lon="3.15809">
        <ele>50.42</ele>
        <time>2024-09-22T09:43:10.000Z</time>
      </trkpt>
      <trkpt lat="42.3868" lon="3.1583">
        <ele>49.83</ele>
        <time>2024-09-22T09:43:15.000Z</time>
      </trkpt>
      <trkpt lat="42.38642" lon="3.15842">
        <ele>49.02</ele>
        <time>2024-09-22T09:43:20.000Z</time>
      </trkpt>
      <trkpt lat="42.38601" lon="3.15851">
        <ele>48.57</ele>
        <time>2024-09-22T09:43:25.000Z</time>
      </trkpt>
      <trkpt lat="42.38565" lon="3.15857">
        <ele>48.41</ele>
        <time>2024-09-22T09:43:30.000Z</time>
      </trkpt>
      <trkpt lat="42.38538" lon="3.15843">
        <ele>47.86</ele>
        <time>2024-09-22T09:43:35.000Z</time>
      </trkpt>
      <trkpt lat="42.38526" lon="3.15809">
        <ele>47.01</ele>
        <time>2024-09-22T09:43:40.000Z</time>
      </trkpt>
      <trkpt lat="42.38519" lon="3.15777">
        <ele>45.73</ele>
        <time>2024-09-22T09:43:45.000Z</time>
      </trkpt>
      <trkpt lat="42.38507" lon="3.15751">
        <ele>44.36</ele>
        <time>2024-09-22T09:43:50.000Z</time>
      </trkpt>
      <trkpt lat="42.38494" lon="3.15725">
        <ele>43.17</ele>
        <time>2024-09-22T09:43:55.000Z</time>
      </trkpt>
      <trkpt lat="42.38489" lon="3.15689">
        <ele>41.74</ele>
        <time>2024-09-22T09:44:00.000Z</time>
      </trkpt>
      <trkpt lat="42.38483" lon="3.15648">
        <ele>40.63</ele>
        <time>2024-09-22T09:44:05.000Z</time>
      </trkpt>
      <trkpt lat="42.38469" lon="3.15615">
        <ele>39.91</ele>
        <time>2024-09-22T09:44:10.000Z</time>
      </trkpt>
      <trkpt lat="42.38443" lon="3.15608">
        <ele>39.45</ele>
        <time>2024-09-22T09:44:15.000Z</time>
      </trkpt>
      <trkpt lat="42.38423" lon="3.15623">
        <ele>38.97</ele>
        <time>2024-09-22T09:44:20.000Z</time>
      </trkpt>
      <trkpt lat="42.38412" lon="3.15643">
        <ele>38.89</ele>
        <time>2024-09-22T09:44:25.000Z</time>
      </trkpt>
      <trkpt lat="42.38411" lon="3.15655">
        <ele>36.48</ele>
        <time>2024-09-22T09:46:13.000Z</time>
      </trkpt>
      <trkpt lat="42.38408" lon="3.15673">
        <ele>35.99</ele>
        <time>2024-09-22T09:46:18.000Z</time>
      </trkpt>
      <trkpt lat="42.38403" lon="3.15694">
        <ele>35.53</ele>
        <time>2024-09-22T09:46:23.000Z</time>
      </trkpt>
      <trkpt lat="42.38392" lon="3.15712">
        <ele>35.13</ele>
        <time>2024-09-22T09:46:28.000Z</time>
      </trkpt>
      <trkpt lat="42.38377" lon="3.15726">
        <ele>34.78</ele>
        <time>2024-09-22T09:46:33.000Z</time>
      </trkpt>
      <trkpt lat="42.38362" lon="3.15736">
        <ele>34.51</ele>
        <time>2024-09-22T09:46:38.000Z</time>
      </trkpt>
      <trkpt lat="42.38348" lon="3.15746">
        <ele>34.29</ele>
        <time>2024-09-22T09:46:43.000Z</time>
      </trkpt>
      <trkpt lat="42.38331" lon="3.15755">
        <ele>34.1</ele>
        <time>2024-09-22T09:46:48.000Z</time>
      </trkpt>
      <trkpt lat="42.38313" lon="3.15748">
        <ele>33.95</ele>
        <time>2024-09-22T09:46:53.000Z</time>
      </trkpt>
      <trkpt lat="42.38299" lon="3.15733">
        <ele>33.84</ele>
        <time>2024-09-22T09:46:58.000Z</time>
      </trkpt>
      <trkpt lat="42.38282" lon="3.15726">
        <ele>33.78</ele>
        <time>2024-09-22T09:47:03.000Z</time>
      </trkpt>
      <trkpt lat="42.38262" lon="3.1573">
        <ele>33.56</ele>
        <time>2024-09-22T09:47:08.000Z</time>
      </trkpt>
      <trkpt lat="42.38238" lon="3.15727">
        <ele>33.43</ele>
        <time>2024-09-22T09:47:13.000Z</time>
      </trkpt>
      <trkpt lat="42.38208" lon="3.15712">
        <ele>33.38</ele>
        <time>2024-09-22T09:47:18.000Z</time>
      </trkpt>
      <trkpt lat="42.3818" lon="3.15682">
        <ele>33.42</ele>
        <time>2024-09-22T09:47:23.000Z</time>
      </trkpt>
      <trkpt lat="42.38187" lon="3.15624">
        <ele>33.02</ele>
        <time>2024-09-22T09:47:28.000Z</time>
      </trkpt>
      <trkpt lat="42.38198" lon="3.15563">
        <ele>32.2</ele>
        <time>2024-09-22T09:47:33.000Z</time>
      </trkpt>
      <trkpt lat="42.38195" lon="3.15503">
        <ele>31.41</ele>
        <time>2024-09-22T09:47:38.000Z</time>
      </trkpt>
      <trkpt lat="42.38172" lon="3.15457">
        <ele>30.96</ele>
        <time>2024-09-22T09:47:43.000Z</time>
      </trkpt>
      <trkpt lat="42.38139" lon="3.15436">
        <ele>30.63</ele>
        <time>2024-09-22T09:47:48.000Z</time>
      </trkpt>
      <trkpt lat="42.38108" lon="3.15438">
        <ele>30.4</ele>
        <time>2024-09-22T09:47:53.000Z</time>
      </trkpt>
      <trkpt lat="42.38083" lon="3.15448">
        <ele>30.19</ele>
        <time>2024-09-22T09:47:58.000Z</time>
      </trkpt>
      <trkpt lat="42.38064" lon="3.15457">
        <ele>30.2</ele>
        <time>2024-09-22T09:48:03.000Z</time>
      </trkpt>
      <trkpt lat="42.38049" lon="3.15465">
        <ele>30.22</ele>
        <time>2024-09-22T09:48:08.000Z</time>
      </trkpt>
      <trkpt lat="42.38033" lon="3.15473">
        <ele>30.31</ele>
        <time>2024-09-22T09:48:13.000Z</time>
      </trkpt>
      <trkpt lat="42.38016" lon="3.15476">
        <ele>30.4</ele>
        <time>2024-09-22T09:48:18.000Z</time>
      </trkpt>
      <trkpt lat="42.37997" lon="3.15477">
        <ele>30.44</ele>
        <time>2024-09-22T09:48:23.000Z</time>
      </trkpt>
      <trkpt lat="42.37983" lon="3.15477">
        <ele>30.46</ele>
        <time>2024-09-22T09:48:28.000Z</time>
      </trkpt>
      <trkpt lat="42.37966" lon="3.15475">
        <ele>30.49</ele>
        <time>2024-09-22T09:48:33.000Z</time>
      </trkpt>
      <trkpt lat="42.37949" lon="3.15472">
        <ele>30.52</ele>
        <time>2024-09-22T09:48:38.000Z</time>
      </trkpt>
      <trkpt lat="42.37931" lon="3.1547">
        <ele>30.69</ele>
        <time>2024-09-22T09:48:43.000Z</time>
      </trkpt>
      <trkpt lat="42.37908" lon="3.15468">
        <ele>30.59</ele>
        <time>2024-09-22T09:48:48.000Z</time>
      </trkpt>
      <trkpt lat="42.37884" lon="3.15465">
        <ele>30.38</ele>
        <time>2024-09-22T09:48:53.000Z</time>
      </trkpt>
      <trkpt lat="42.37862" lon="3.15466">
        <ele>30.14</ele>
        <time>2024-09-22T09:48:58.000Z</time>
      </trkpt>
      <trkpt lat="42.37842" lon="3.15477">
        <ele>29.98</ele>
        <time>2024-09-22T09:49:03.000Z</time>
      </trkpt>
      <trkpt lat="42.37825" lon="3.15497">
        <ele>29.84</ele>
        <time>2024-09-22T09:49:08.000Z</time>
      </trkpt>
      <trkpt lat="42.37813" lon="3.15523">
        <ele>29.76</ele>
        <time>2024-09-22T09:49:13.000Z</time>
      </trkpt>
      <trkpt lat="42.37802" lon="3.15548">
        <ele>29.71</ele>
        <time>2024-09-22T09:49:18.000Z</time>
      </trkpt>
      <trkpt lat="42.37788" lon="3.15571">
        <ele>29.6</ele>
        <time>2024-09-22T09:49:23.000Z</time>
      </trkpt>
      <trkpt lat="42.37763" lon="3.15592">
        <ele>29.54</ele>
        <time>2024-09-22T09:49:28.000Z</time>
      </trkpt>
      <trkpt lat="42.37738" lon="3.15613">
        <ele>30.18</ele>
        <time>2024-09-22T09:49:33.000Z</time>
      </trkpt>
      <trkpt lat="42.37711" lon="3.15633">
        <ele>30.9</ele>
        <time>2024-09-22T09:49:38.000Z</time>
      </trkpt>
      <trkpt lat="42.37689" lon="3.15643">
        <ele>31.25</ele>
        <time>2024-09-22T09:49:43.000Z</time>
      </trkpt>
      <trkpt lat="42.37679" lon="3.15644">
        <ele>31.35</ele>
        <time>2024-09-22T09:50:03.000Z</time>
      </trkpt>
      <trkpt lat="42.37657" lon="3.15645">
        <ele>31.61</ele>
        <time>2024-09-22T09:50:08.000Z</time>
      </trkpt>
      <trkpt lat="42.37628" lon="3.15643">
        <ele>31.53</ele>
        <time>2024-09-22T09:50:13.000Z</time>
      </trkpt>
      <trkpt lat="42.37598" lon="3.15641">
        <ele>31.04</ele>
        <time>2024-09-22T09:50:18.000Z</time>
      </trkpt>
      <trkpt lat="42.37569" lon="3.15638">
        <ele>30.4</ele>
        <time>2024-09-22T09:50:23.000Z</time>
      </trkpt>
      <trkpt lat="42.37542" lon="3.15641">
        <ele>29.79</ele>
        <time>2024-09-22T09:50:28.000Z</time>
      </trkpt>
      <trkpt lat="42.37515" lon="3.15639">
        <ele>29.34</ele>
        <time>2024-09-22T09:50:33.000Z</time>
      </trkpt>
      <trkpt lat="42.37489" lon="3.15636">
        <ele>28.91</ele>
        <time>2024-09-22T09:50:38.000Z</time>
      </trkpt>
      <trkpt lat="42.37464" lon="3.15636">
        <ele>28.49</ele>
        <time>2024-09-22T09:50:43.000Z</time>
      </trkpt>
      <trkpt lat="42.37441" lon="3.15636">
        <ele>28.02</ele>
        <time>2024-09-22T09:50:48.000Z</time>
      </trkpt>
      <trkpt lat="42.37419" lon="3.15636">
        <ele>27.55</ele>
        <time>2024-09-22T09:50:53.000Z</time>
      </trkpt>
      <trkpt lat="42.37401" lon="3.15649">
        <ele>27.01</ele>
        <time>2024-09-22T09:50:58.000Z</time>
      </trkpt>
      <trkpt lat="42.37382" lon="3.15658">
        <ele>26.39</ele>
        <time>2024-09-22T09:51:03.000Z</time>
      </trkpt>
      <trkpt lat="42.37363" lon="3.15665">
        <ele>26.21</ele>
        <time>2024-09-22T09:51:08.000Z</time>
      </trkpt>
      <trkpt lat="42.37344" lon="3.15674">
        <ele>25.94</ele>
        <time>2024-09-22T09:51:13.000Z</time>
      </trkpt>
      <trkpt lat="42.37324" lon="3.15685">
        <ele>25.71</ele>
        <time>2024-09-22T09:51:18.000Z</time>
      </trkpt>
      <trkpt lat="42.37303" lon="3.15696">
        <ele>25.9</ele>
        <time>2024-09-22T09:51:23.000Z</time>
      </trkpt>
      <trkpt lat="42.37284" lon="3.1571">
        <ele>26.04</ele>
        <time>2024-09-22T09:51:28.000Z</time>
      </trkpt>
      <trkpt lat="42.37264" lon="3.15723">
        <ele>26.03</ele>
        <time>2024-09-22T09:51:33.000Z</time>
      </trkpt>
      <trkpt lat="42.37248" lon="3.15738">
        <ele>26.04</ele>
        <time>2024-09-22T09:51:38.000Z</time>
      </trkpt>
      <trkpt lat="42.37228" lon="3.15754">
        <ele>26.04</ele>
        <time>2024-09-22T09:51:43.000Z</time>
      </trkpt>
      <trkpt lat="42.37214" lon="3.15772">
        <ele>25.99</ele>
        <time>2024-09-22T09:51:48.000Z</time>
      </trkpt>
      <trkpt lat="42.37201" lon="3.15789">
        <ele>25.98</ele>
        <time>2024-09-22T09:51:53.999Z</time>
      </trkpt>
      <trkpt lat="42.3719" lon="3.158">
        <ele>25.93</ele>
        <time>2024-09-22T09:51:58.999Z</time>
      </trkpt>
      <trkpt lat="42.37177" lon="3.15817">
        <ele>25.31</ele>
        <time>2024-09-22T09:52:03.999Z</time>
      </trkpt>
      <trkpt lat="42.37158" lon="3.15842">
        <ele>24.7</ele>
        <time>2024-09-22T09:52:08.999Z</time>
      </trkpt>
      <trkpt lat="42.37141" lon="3.15867">
        <ele>24.47</ele>
        <time>2024-09-22T09:52:13.999Z</time>
      </trkpt>
      <trkpt lat="42.37126" lon="3.15886">
        <ele>24.39</ele>
        <time>2024-09-22T09:52:18.999Z</time>
      </trkpt>
      <trkpt lat="42.3711" lon="3.15908">
        <ele>24.35</ele>
        <time>2024-09-22T09:52:23.999Z</time>
      </trkpt>
      <trkpt lat="42.37095" lon="3.15929">
        <ele>24.36</ele>
        <time>2024-09-22T09:52:28.999Z</time>
      </trkpt>
      <trkpt lat="42.37081" lon="3.15947">
        <ele>24.35</ele>
        <time>2024-09-22T09:52:33.999Z</time>
      </trkpt>
      <trkpt lat="42.3707" lon="3.15964">
        <ele>24.33</ele>
        <time>2024-09-22T09:52:38.999Z</time>
      </trkpt>
      <trkpt lat="42.3706" lon="3.15976">
        <ele>24.31</ele>
        <time>2024-09-22T09:52:43.999Z</time>
      </trkpt>
      <trkpt lat="42.37053" lon="3.15984">
        <ele>24.17</ele>
        <time>2024-09-22T09:53:07.999Z</time>
      </trkpt>
      <trkpt lat="42.37056" lon="3.15996">
        <ele>24.04</ele>
        <time>2024-09-22T09:53:15.999Z</time>
      </trkpt>
      <trkpt lat="42.37062" lon="3.16007">
        <ele>23.97</ele>
        <time>2024-09-22T09:53:21.999Z</time>
      </trkpt>
      <trkpt lat="42.37073" lon="3.16018">
        <ele>23.92</ele>
        <time>2024-09-22T09:53:26.999Z</time>
      </trkpt>
      <trkpt lat="42.37087" lon="3.16029">
        <ele>23.87</ele>
        <time>2024-09-22T09:53:31.999Z</time>
      </trkpt>
      <trkpt lat="42.37091" lon="3.16041">
        <ele>23.81</ele>
        <time>2024-09-22T09:53:38.999Z</time>
      </trkpt>
      <trkpt lat="42.37089" lon="3.16055">
        <ele>23.77</ele>
        <time>2024-09-22T09:53:43.999Z</time>
      </trkpt>
      <trkpt lat="42.37088" lon="3.16069">
        <ele>23.73</ele>
        <time>2024-09-22T09:53:48.999Z</time>
      </trkpt>
      <trkpt lat="42.37093" lon="3.16079">
        <ele>23.47</ele>
        <time>2024-09-22T09:55:10.999Z</time>
      </trkpt>
      <trkpt lat="42.37093" lon="3.16092">
        <ele>23.12</ele>
        <time>2024-09-22T09:56:08.999Z</time>
      </trkpt>
      <trkpt lat="42.37091" lon="3.16111">
        <ele>22.97</ele>
        <time>2024-09-22T09:56:13.999Z</time>
      </trkpt>
      <trkpt lat="42.37087" lon="3.16127">
        <ele>22.83</ele>
        <time>2024-09-22T09:56:18.999Z</time>
      </trkpt>
      <trkpt lat="42.37082" lon="3.16139">
        <ele>22.68</ele>
        <time>2024-09-22T09:56:24.999Z</time>
      </trkpt>
      <trkpt lat="42.37073" lon="3.16145">
        <ele>22.57</ele>
        <time>2024-09-22T09:56:29.999Z</time>
      </trkpt>
      <trkpt lat="42.37065" lon="3.16136">
        <ele>22.46</ele>
        <time>2024-09-22T09:56:34.999Z</time>
      </trkpt>
      <trkpt lat="42.37059" lon="3.16123">
        <ele>22.35</ele>
        <time>2024-09-22T09:56:39.999Z</time>
      </trkpt>
      <trkpt lat="42.37049" lon="3.16125">
        <ele>22.23</ele>
        <time>2024-09-22T09:56:44.999Z</time>
      </trkpt>
      <trkpt lat="42.37039" lon="3.1613">
        <ele>22.13</ele>
        <time>2024-09-22T09:56:49.999Z</time>
      </trkpt>
      <trkpt lat="42.3703" lon="3.16134">
        <ele>21.97</ele>
        <time>2024-09-22T09:57:11.999Z</time>
      </trkpt>
      <trkpt lat="42.37026" lon="3.16122">
        <ele>21.92</ele>
        <time>2024-09-22T09:57:16.999Z</time>
      </trkpt>
      <trkpt lat="42.3702" lon="3.16102">
        <ele>21.86</ele>
        <time>2024-09-22T09:57:21.999Z</time>
      </trkpt>
      <trkpt lat="42.37012" lon="3.16083">
        <ele>21.8</ele>
        <time>2024-09-22T09:57:26.999Z</time>
      </trkpt>
      <trkpt lat="42.37005" lon="3.16063">
        <ele>21.74</ele>
        <time>2024-09-22T09:57:31.999Z</time>
      </trkpt>
      <trkpt lat="42.37004" lon="3.1605">
        <ele>21.68</ele>
        <time>2024-09-22T09:57:36.999Z</time>
      </trkpt>
      <trkpt lat="42.36999" lon="3.16039">
        <ele>21.61</ele>
        <time>2024-09-22T09:57:58.999Z</time>
      </trkpt>
      <trkpt lat="42.36995" lon="3.16021">
        <ele>21.59</ele>
        <time>2024-09-22T09:58:03.999Z</time>
      </trkpt>
      <trkpt lat="42.36992" lon="3.16003">
        <ele>21.57</ele>
        <time>2024-09-22T09:58:08.999Z</time>
      </trkpt>
      <trkpt lat="42.36989" lon="3.15988">
        <ele>21.56</ele>
        <time>2024-09-22T09:58:13.999Z</time>
      </trkpt>
      <trkpt lat="42.36986" lon="3.15971">
        <ele>21.55</ele>
        <time>2024-09-22T09:58:18.999Z</time>
      </trkpt>
      <trkpt lat="42.36983" lon="3.15959">
        <ele>21.54</ele>
        <time>2024-09-22T09:58:24.999Z</time>
      </trkpt>
      <trkpt lat="42.36974" lon="3.15962">
        <ele>21.52</ele>
        <time>2024-09-22T09:58:35.999Z</time>
      </trkpt>
      <trkpt lat="42.36981" lon="3.15954">
        <ele>21.62</ele>
        <time>2024-09-22T09:58:58.999Z</time>
      </trkpt>
      <trkpt lat="42.36976" lon="3.15935">
        <ele>21.63</ele>
        <time>2024-09-22T09:59:03.999Z</time>
      </trkpt>
      <trkpt lat="42.36968" lon="3.15917">
        <ele>21.62</ele>
        <time>2024-09-22T09:59:08.999Z</time>
      </trkpt>
      <trkpt lat="42.3696" lon="3.159">
        <ele>21.6</ele>
        <time>2024-09-22T09:59:13.999Z</time>
      </trkpt>
      <trkpt lat="42.36953" lon="3.1589">
        <ele>21.58</ele>
        <time>2024-09-22T09:59:18.999Z</time>
      </trkpt>
      <trkpt lat="42.36943" lon="3.15881">
        <ele>21.56</ele>
        <time>2024-09-22T09:59:23.999Z</time>
      </trkpt>
      <trkpt lat="42.36936" lon="3.15872">
        <ele>21.54</ele>
        <time>2024-09-22T09:59:29.999Z</time>
      </trkpt>
      <trkpt lat="42.36928" lon="3.15866">
        <ele>21.54</ele>
        <time>2024-09-22T09:59:34.999Z</time>
      </trkpt>
      <trkpt lat="42.36915" lon="3.15854">
        <ele>21.54</ele>
        <time>2024-09-22T09:59:39.999Z</time>
      </trkpt>
      <trkpt lat="42.36903" lon="3.15842">
        <ele>21.53</ele>
        <time>2024-09-22T09:59:44.999Z</time>
      </trkpt>
      <trkpt lat="42.36894" lon="3.15827">
        <ele>21.53</ele>
        <time>2024-09-22T09:59:49.999Z</time>
      </trkpt>
      <trkpt lat="42.36887" lon="3.15808">
        <ele>21.52</ele>
        <time>2024-09-22T09:59:54.999Z</time>
      </trkpt>
      <trkpt lat="42.36884" lon="3.1579">
        <ele>21.5</ele>
        <time>2024-09-22T09:59:59.999Z</time>
      </trkpt>
      <trkpt lat="42.36881" lon="3.1577">
        <ele>21.49</ele>
        <time>2024-09-22T10:00:04.999Z</time>
      </trkpt>
      <trkpt lat="42.36876" lon="3.15758">
        <ele>21.48</ele>
        <time>2024-09-22T10:00:09.999Z</time>
      </trkpt>
      <trkpt lat="42.36869" lon="3.15745">
        <ele>21.46</ele>
        <time>2024-09-22T10:00:24.999Z</time>
      </trkpt>
      <trkpt lat="42.36862" lon="3.15734">
        <ele>21.45</ele>
        <time>2024-09-22T10:00:29.999Z</time>
      </trkpt>
      <trkpt lat="42.36855" lon="3.15726">
        <ele>21.25</ele>
        <time>2024-09-22T10:02:09.999Z</time>
      </trkpt>
      <trkpt lat="42.36848" lon="3.15716">
        <ele>21.15</ele>
        <time>2024-09-22T10:02:14.999Z</time>
      </trkpt>
      <trkpt lat="42.36836" lon="3.15712">
        <ele>21.04</ele>
        <time>2024-09-22T10:02:19.999Z</time>
      </trkpt>
      <trkpt lat="42.36821" lon="3.15705">
        <ele>20.94</ele>
        <time>2024-09-22T10:02:24.999Z</time>
      </trkpt>
      <trkpt lat="42.36806" lon="3.15695">
        <ele>20.85</ele>
        <time>2024-09-22T10:02:29.999Z</time>
      </trkpt>
      <trkpt lat="42.3679" lon="3.15692">
        <ele>20.76</ele>
        <time>2024-09-22T10:02:34.999Z</time>
      </trkpt>
      <trkpt lat="42.36788" lon="3.15711">
        <ele>20.68</ele>
        <time>2024-09-22T10:02:39.999Z</time>
      </trkpt>
      <trkpt lat="42.36796" lon="3.15727">
        <ele>20.61</ele>
        <time>2024-09-22T10:02:44.999Z</time>
      </trkpt>
      <trkpt lat="42.36803" lon="3.15741">
        <ele>20.56</ele>
        <time>2024-09-22T10:02:49.999Z</time>
      </trkpt>
      <trkpt lat="42.3681" lon="3.15755">
        <ele>20.51</ele>
        <time>2024-09-22T10:02:54.999Z</time>
      </trkpt>
      <trkpt lat="42.36814" lon="3.15767">
        <ele>20.41</ele>
        <time>2024-09-22T10:03:15.999Z</time>
      </trkpt>
      <trkpt lat="42.36822" lon="3.15786">
        <ele>20.32</ele>
        <time>2024-09-22T10:03:20.999Z</time>
      </trkpt>
      <trkpt lat="42.36828" lon="3.15812">
        <ele>20.15</ele>
        <time>2024-09-22T10:03:25.999Z</time>
      </trkpt>
      <trkpt lat="42.36823" lon="3.15835">
        <ele>20.19</ele>
        <time>2024-09-22T10:03:30.999Z</time>
      </trkpt>
      <trkpt lat="42.36812" lon="3.15854">
        <ele>20.23</ele>
        <time>2024-09-22T10:03:35.999Z</time>
      </trkpt>
      <trkpt lat="42.36801" lon="3.1587">
        <ele>20.33</ele>
        <time>2024-09-22T10:03:40.999Z</time>
      </trkpt>
      <trkpt lat="42.3679" lon="3.15886">
        <ele>20.52</ele>
        <time>2024-09-22T10:03:45.999Z</time>
      </trkpt>
      <trkpt lat="42.3678" lon="3.15902">
        <ele>20.77</ele>
        <time>2024-09-22T10:03:50.999Z</time>
      </trkpt>
      <trkpt lat="42.36774" lon="3.15912">
        <ele>21.51</ele>
        <time>2024-09-22T10:04:07.000Z</time>
      </trkpt>
      <trkpt lat="42.36763" lon="3.15928">
        <ele>21.96</ele>
        <time>2024-09-22T10:04:12.000Z</time>
      </trkpt>
      <trkpt lat="42.36753" lon="3.15946">
        <ele>22.47</ele>
        <time>2024-09-22T10:04:17.000Z</time>
      </trkpt>
      <trkpt lat="42.36741" lon="3.15962">
        <ele>23.01</ele>
        <time>2024-09-22T10:04:22.000Z</time>
      </trkpt>
      <trkpt lat="42.3673" lon="3.15978">
        <ele>23.53</ele>
        <time>2024-09-22T10:04:27.000Z</time>
      </trkpt>
      <trkpt lat="42.3672" lon="3.15993">
        <ele>24.05</ele>
        <time>2024-09-22T10:04:32.000Z</time>
      </trkpt>
      <trkpt lat="42.3671" lon="3.16006">
        <ele>24.57</ele>
        <time>2024-09-22T10:04:37.000Z</time>
      </trkpt>
      <trkpt lat="42.367" lon="3.16018">
        <ele>25.09</ele>
        <time>2024-09-22T10:04:42.000Z</time>
      </trkpt>
      <trkpt lat="42.36689" lon="3.16027">
        <ele>25.61</ele>
        <time>2024-09-22T10:04:47.000Z</time>
      </trkpt>
      <trkpt lat="42.3668" lon="3.16034">
        <ele>26.51</ele>
        <time>2024-09-22T10:05:02.000Z</time>
      </trkpt>
      <trkpt lat="42.36667" lon="3.16045">
        <ele>27.03</ele>
        <time>2024-09-22T10:05:07.000Z</time>
      </trkpt>
      <trkpt lat="42.36655" lon="3.16055">
        <ele>27.56</ele>
        <time>2024-09-22T10:05:12.000Z</time>
      </trkpt>
      <trkpt lat="42.36642" lon="3.16065">
        <ele>28.11</ele>
        <time>2024-09-22T10:05:17.000Z</time>
      </trkpt>
      <trkpt lat="42.3663" lon="3.16074">
        <ele>28.67</ele>
        <time>2024-09-22T10:05:22.000Z</time>
      </trkpt>
      <trkpt lat="42.36616" lon="3.16079">
        <ele>29.19</ele>
        <time>2024-09-22T10:05:27.000Z</time>
      </trkpt>
      <trkpt lat="42.36602" lon="3.16084">
        <ele>29.68</ele>
        <time>2024-09-22T10:05:32.000Z</time>
      </trkpt>
      <trkpt lat="42.36587" lon="3.16089">
        <ele>30.14</ele>
        <time>2024-09-22T10:05:37.000Z</time>
      </trkpt>
      <trkpt lat="42.36571" lon="3.16096">
        <ele>30.6</ele>
        <time>2024-09-22T10:05:42.000Z</time>
      </trkpt>
      <trkpt lat="42.36556" lon="3.16102">
        <ele>31.07</ele>
        <time>2024-09-22T10:05:47.000Z</time>
      </trkpt>
      <trkpt lat="42.36541" lon="3.16106">
        <ele>31.52</ele>
        <time>2024-09-22T10:05:52.000Z</time>
      </trkpt>
      <trkpt lat="42.36526" lon="3.16112">
        <ele>31.98</ele>
        <time>2024-09-22T10:05:57.000Z</time>
      </trkpt>
      <trkpt lat="42.36511" lon="3.16119">
        <ele>32.44</ele>
        <time>2024-09-22T10:06:02.000Z</time>
      </trkpt>
      <trkpt lat="42.36497" lon="3.16124">
        <ele>32.88</ele>
        <time>2024-09-22T10:06:07.000Z</time>
      </trkpt>
      <trkpt lat="42.36484" lon="3.16129">
        <ele>33.34</ele>
        <time>2024-09-22T10:06:12.000Z</time>
      </trkpt>
      <trkpt lat="42.36468" lon="3.1613">
        <ele>33.83</ele>
        <time>2024-09-22T10:06:17.000Z</time>
      </trkpt>
      <trkpt lat="42.36455" lon="3.16116">
        <ele>34.33</ele>
        <time>2024-09-22T10:06:22.000Z</time>
      </trkpt>
      <trkpt lat="42.36446" lon="3.16099">
        <ele>34.84</ele>
        <time>2024-09-22T10:06:27.000Z</time>
      </trkpt>
      <trkpt lat="42.36438" lon="3.16079">
        <ele>35.34</ele>
        <time>2024-09-22T10:06:32.000Z</time>
      </trkpt>
      <trkpt lat="42.3643" lon="3.16061">
        <ele>35.84</ele>
        <time>2024-09-22T10:06:37.000Z</time>
      </trkpt>
      <trkpt lat="42.36422" lon="3.16043">
        <ele>36.31</ele>
        <time>2024-09-22T10:06:42.000Z</time>
      </trkpt>
      <trkpt lat="42.36413" lon="3.16024">
        <ele>36.77</ele>
        <time>2024-09-22T10:06:47.000Z</time>
      </trkpt>
      <trkpt lat="42.36404" lon="3.16009">
        <ele>37.22</ele>
        <time>2024-09-22T10:06:52.000Z</time>
      </trkpt>
      <trkpt lat="42.3639" lon="3.15999">
        <ele>37.66</ele>
        <time>2024-09-22T10:06:57.000Z</time>
      </trkpt>
      <trkpt lat="42.36375" lon="3.16">
        <ele>38.1</ele>
        <time>2024-09-22T10:07:02.000Z</time>
      </trkpt>
      <trkpt lat="42.36358" lon="3.15998">
        <ele>38.53</ele>
        <time>2024-09-22T10:07:07.000Z</time>
      </trkpt>
      <trkpt lat="42.36343" lon="3.15992">
        <ele>38.94</ele>
        <time>2024-09-22T10:07:12.000Z</time>
      </trkpt>
      <trkpt lat="42.36327" lon="3.15994">
        <ele>39.38</ele>
        <time>2024-09-22T10:07:17.000Z</time>
      </trkpt>
      <trkpt lat="42.36315" lon="3.16006">
        <ele>39.84</ele>
        <time>2024-09-22T10:07:22.000Z</time>
      </trkpt>
      <trkpt lat="42.36303" lon="3.16021">
        <ele>40.28</ele>
        <time>2024-09-22T10:07:27.000Z</time>
      </trkpt>
      <trkpt lat="42.36293" lon="3.16032">
        <ele>40.75</ele>
        <time>2024-09-22T10:07:32.000Z</time>
      </trkpt>
      <trkpt lat="42.36279" lon="3.16037">
        <ele>41.24</ele>
        <time>2024-09-22T10:07:37.000Z</time>
      </trkpt>
      <trkpt lat="42.36266" lon="3.16034">
        <ele>41.76</ele>
        <time>2024-09-22T10:07:42.000Z</time>
      </trkpt>
      <trkpt lat="42.36255" lon="3.16029">
        <ele>42.31</ele>
        <time>2024-09-22T10:07:47.000Z</time>
      </trkpt>
      <trkpt lat="42.36243" lon="3.1603">
        <ele>42.93</ele>
        <time>2024-09-22T10:07:52.000Z</time>
      </trkpt>
      <trkpt lat="42.36231" lon="3.16034">
        <ele>43.6</ele>
        <time>2024-09-22T10:07:57.000Z</time>
      </trkpt>
      <trkpt lat="42.36219" lon="3.16045">
        <ele>44.2</ele>
        <time>2024-09-22T10:08:02.000Z</time>
      </trkpt>
      <trkpt lat="42.36208" lon="3.16058">
        <ele>44.76</ele>
        <time>2024-09-22T10:08:07.000Z</time>
      </trkpt>
      <trkpt lat="42.36198" lon="3.1607">
        <ele>45.27</ele>
        <time>2024-09-22T10:08:12.000Z</time>
      </trkpt>
      <trkpt lat="42.36192" lon="3.16088">
        <ele>45.79</ele>
        <time>2024-09-22T10:08:17.000Z</time>
      </trkpt>
      <trkpt lat="42.3619" lon="3.16106">
        <ele>46.31</ele>
        <time>2024-09-22T10:08:22.000Z</time>
      </trkpt>
      <trkpt lat="42.36193" lon="3.16126">
        <ele>46.83</ele>
        <time>2024-09-22T10:08:27.000Z</time>
      </trkpt>
      <trkpt lat="42.36195" lon="3.16144">
        <ele>47.37</ele>
        <time>2024-09-22T10:08:32.000Z</time>
      </trkpt>
      <trkpt lat="42.3619" lon="3.1616">
        <ele>47.87</ele>
        <time>2024-09-22T10:08:37.000Z</time>
      </trkpt>
      <trkpt lat="42.36178" lon="3.16164">
        <ele>48.32</ele>
        <time>2024-09-22T10:08:42.000Z</time>
      </trkpt>
      <trkpt lat="42.36166" lon="3.16155">
        <ele>48.74</ele>
        <time>2024-09-22T10:08:47.000Z</time>
      </trkpt>
      <trkpt lat="42.36154" lon="3.16143">
        <ele>49.13</ele>
        <time>2024-09-22T10:08:52.000Z</time>
      </trkpt>
      <trkpt lat="42.3614" lon="3.16133">
        <ele>49.94</ele>
        <time>2024-09-22T10:08:57.000Z</time>
      </trkpt>
      <trkpt lat="42.36119" lon="3.16134">
        <ele>51.62</ele>
        <time>2024-09-22T10:09:02.000Z</time>
      </trkpt>
      <trkpt lat="42.36104" lon="3.16156">
        <ele>52.43</ele>
        <time>2024-09-22T10:09:07.000Z</time>
      </trkpt>
      <trkpt lat="42.36092" lon="3.16184">
        <ele>52.76</ele>
        <time>2024-09-22T10:09:12.000Z</time>
      </trkpt>
      <trkpt lat="42.3607" lon="3.1619">
        <ele>52.97</ele>
        <time>2024-09-22T10:09:17.000Z</time>
      </trkpt>
      <trkpt lat="42.3605" lon="3.16191">
        <ele>53.08</ele>
        <time>2024-09-22T10:09:22.000Z</time>
      </trkpt>
      <trkpt lat="42.36026" lon="3.16198">
        <ele>53.11</ele>
        <time>2024-09-22T10:09:27.000Z</time>
      </trkpt>
      <trkpt lat="42.36002" lon="3.16187">
        <ele>53.15</ele>
        <time>2024-09-22T10:09:32.000Z</time>
      </trkpt>
      <trkpt lat="42.35978" lon="3.16186">
        <ele>53.18</ele>
        <time>2024-09-22T10:09:37.000Z</time>
      </trkpt>
      <trkpt lat="42.35962" lon="3.16204">
        <ele>53.23</ele>
        <time>2024-09-22T10:09:42.000Z</time>
      </trkpt>
      <trkpt lat="42.35956" lon="3.16213">
        <ele>53.31</ele>
        <time>2024-09-22T10:10:16.000Z</time>
      </trkpt>
      <trkpt lat="42.35954" lon="3.16226">
        <ele>53.36</ele>
        <time>2024-09-22T10:10:40.000Z</time>
      </trkpt>
      <trkpt lat="42.35958" lon="3.1624">
        <ele>53.39</ele>
        <time>2024-09-22T10:10:45.000Z</time>
      </trkpt>
      <trkpt lat="42.35951" lon="3.16249">
        <ele>53.51</ele>
        <time>2024-09-22T10:11:14.000Z</time>
      </trkpt>
      <trkpt lat="42.35948" lon="3.16265">
        <ele>53.53</ele>
        <time>2024-09-22T10:11:19.000Z</time>
      </trkpt>
      <trkpt lat="42.35944" lon="3.16291">
        <ele>53.66</ele>
        <time>2024-09-22T10:11:24.000Z</time>
      </trkpt>
      <trkpt lat="42.3594" lon="3.16321">
        <ele>53.79</ele>
        <time>2024-09-22T10:11:29.000Z</time>
      </trkpt>
      <trkpt lat="42.35939" lon="3.16352">
        <ele>53.87</ele>
        <time>2024-09-22T10:11:34.000Z</time>
      </trkpt>
      <trkpt lat="42.35938" lon="3.16385">
        <ele>54</ele>
        <time>2024-09-22T10:11:39.000Z</time>
      </trkpt>
      <trkpt lat="42.35921" lon="3.164">
        <ele>54.05</ele>
        <time>2024-09-22T10:11:44.000Z</time>
      </trkpt>
      <trkpt lat="42.35898" lon="3.16392">
        <ele>54.03</ele>
        <time>2024-09-22T10:11:49.000Z</time>
      </trkpt>
      <trkpt lat="42.35875" lon="3.16406">
        <ele>54.02</ele>
        <time>2024-09-22T10:11:54.000Z</time>
      </trkpt>
      <trkpt lat="42.35871" lon="3.16442">
        <ele>54.12</ele>
        <time>2024-09-22T10:11:59.000Z</time>
      </trkpt>
      <trkpt lat="42.35879" lon="3.16475">
        <ele>54.03</ele>
        <time>2024-09-22T10:12:04.000Z</time>
      </trkpt>
      <trkpt lat="42.3589" lon="3.16507">
        <ele>53.91</ele>
        <time>2024-09-22T10:12:09.000Z</time>
      </trkpt>
      <trkpt lat="42.35886" lon="3.16541">
        <ele>53.89</ele>
        <time>2024-09-22T10:12:14.000Z</time>
      </trkpt>
      <trkpt lat="42.3587" lon="3.16567">
        <ele>53.76</ele>
        <time>2024-09-22T10:12:19.000Z</time>
      </trkpt>
      <trkpt lat="42.35847" lon="3.16586">
        <ele>53.72</ele>
        <time>2024-09-22T10:12:24.000Z</time>
      </trkpt>
      <trkpt lat="42.35824" lon="3.16605">
        <ele>53.65</ele>
        <time>2024-09-22T10:12:29.000Z</time>
      </trkpt>
      <trkpt lat="42.35802" lon="3.16623">
        <ele>53.53</ele>
        <time>2024-09-22T10:12:34.000Z</time>
      </trkpt>
      <trkpt lat="42.35781" lon="3.16639">
        <ele>53.46</ele>
        <time>2024-09-22T10:12:39.000Z</time>
      </trkpt>
      <trkpt lat="42.35762" lon="3.16654">
        <ele>53.34</ele>
        <time>2024-09-22T10:12:44.000Z</time>
      </trkpt>
      <trkpt lat="42.35742" lon="3.16669">
        <ele>53.2</ele>
        <time>2024-09-22T10:12:49.000Z</time>
      </trkpt>
      <trkpt lat="42.3572" lon="3.16674">
        <ele>53.22</ele>
        <time>2024-09-22T10:12:54.000Z</time>
      </trkpt>
      <trkpt lat="42.35698" lon="3.16663">
        <ele>53.3</ele>
        <time>2024-09-22T10:12:59.000Z</time>
      </trkpt>
      <trkpt lat="42.35676" lon="3.16651">
        <ele>53.41</ele>
        <time>2024-09-22T10:13:04.000Z</time>
      </trkpt>
      <trkpt lat="42.35653" lon="3.16644">
        <ele>53.49</ele>
        <time>2024-09-22T10:13:09.000Z</time>
      </trkpt>
      <trkpt lat="42.35633" lon="3.16664">
        <ele>53.74</ele>
        <time>2024-09-22T10:13:14.000Z</time>
      </trkpt>
      <trkpt lat="42.35633" lon="3.16697">
        <ele>53.85</ele>
        <time>2024-09-22T10:13:19.000Z</time>
      </trkpt>
      <trkpt lat="42.35631" lon="3.16731">
        <ele>53.74</ele>
        <time>2024-09-22T10:13:24.000Z</time>
      </trkpt>
      <trkpt lat="42.35618" lon="3.16765">
        <ele>53.51</ele>
        <time>2024-09-22T10:13:29.000Z</time>
      </trkpt>
      <trkpt lat="42.35604" lon="3.168">
        <ele>53.41</ele>
        <time>2024-09-22T10:13:34.000Z</time>
      </trkpt>
      <trkpt lat="42.35592" lon="3.16835">
        <ele>53.31</ele>
        <time>2024-09-22T10:13:39.000Z</time>
      </trkpt>
      <trkpt lat="42.35581" lon="3.16868">
        <ele>53.11</ele>
        <time>2024-09-22T10:13:44.000Z</time>
      </trkpt>
      <trkpt lat="42.35578" lon="3.16904">
        <ele>53.05</ele>
        <time>2024-09-22T10:13:49.000Z</time>
      </trkpt>
      <trkpt lat="42.35576" lon="3.16939">
        <ele>53.17</ele>
        <time>2024-09-22T10:13:54.000Z</time>
      </trkpt>
      <trkpt lat="42.35562" lon="3.16967">
        <ele>53.31</ele>
        <time>2024-09-22T10:13:59.000Z</time>
      </trkpt>
      <trkpt lat="42.35541" lon="3.1699">
        <ele>53.55</ele>
        <time>2024-09-22T10:14:04.000Z</time>
      </trkpt>
      <trkpt lat="42.3552" lon="3.17014">
        <ele>53.92</ele>
        <time>2024-09-22T10:14:09.000Z</time>
      </trkpt>
      <trkpt lat="42.35494" lon="3.17011">
        <ele>54.22</ele>
        <time>2024-09-22T10:14:14.000Z</time>
      </trkpt>
      <trkpt lat="42.35474" lon="3.16988">
        <ele>54.6</ele>
        <time>2024-09-22T10:14:19.000Z</time>
      </trkpt>
      <trkpt lat="42.35456" lon="3.16965">
        <ele>54.88</ele>
        <time>2024-09-22T10:14:24.000Z</time>
      </trkpt>
      <trkpt lat="42.35438" lon="3.16941">
        <ele>54.97</ele>
        <time>2024-09-22T10:14:29.000Z</time>
      </trkpt>
      <trkpt lat="42.35419" lon="3.16917">
        <ele>55.05</ele>
        <time>2024-09-22T10:14:34.000Z</time>
      </trkpt>
      <trkpt lat="42.35393" lon="3.16918">
        <ele>55.14</ele>
        <time>2024-09-22T10:14:39.000Z</time>
      </trkpt>
      <trkpt lat="42.35385" lon="3.16952">
        <ele>55.24</ele>
        <time>2024-09-22T10:14:44.000Z</time>
      </trkpt>
      <trkpt lat="42.35395" lon="3.16988">
        <ele>55.25</ele>
        <time>2024-09-22T10:14:49.000Z</time>
      </trkpt>
      <trkpt lat="42.35409" lon="3.17026">
        <ele>55.28</ele>
        <time>2024-09-22T10:14:54.000Z</time>
      </trkpt>
      <trkpt lat="42.35422" lon="3.17063">
        <ele>55.3</ele>
        <time>2024-09-22T10:14:59.000Z</time>
      </trkpt>
      <trkpt lat="42.35432" lon="3.17101">
        <ele>55.2</ele>
        <time>2024-09-22T10:15:04.000Z</time>
      </trkpt>
      <trkpt lat="42.35427" lon="3.17142">
        <ele>55.1</ele>
        <time>2024-09-22T10:15:09.000Z</time>
      </trkpt>
      <trkpt lat="42.35418" lon="3.17182">
        <ele>54.96</ele>
        <time>2024-09-22T10:15:14.000Z</time>
      </trkpt>
      <trkpt lat="42.35411" lon="3.17224">
        <ele>55.05</ele>
        <time>2024-09-22T10:15:19.000Z</time>
      </trkpt>
      <trkpt lat="42.35419" lon="3.17264">
        <ele>55.44</ele>
        <time>2024-09-22T10:15:24.000Z</time>
      </trkpt>
      <trkpt lat="42.35436" lon="3.17302">
        <ele>55.53</ele>
        <time>2024-09-22T10:15:29.000Z</time>
      </trkpt>
      <trkpt lat="42.35431" lon="3.17342">
        <ele>55.6</ele>
        <time>2024-09-22T10:15:34.000Z</time>
      </trkpt>
      <trkpt lat="42.35419" lon="3.17375">
        <ele>55.62</ele>
        <time>2024-09-22T10:15:39.000Z</time>
      </trkpt>
      <trkpt lat="42.35405" lon="3.17403">
        <ele>55.39</ele>
        <time>2024-09-22T10:15:44.000Z</time>
      </trkpt>
      <trkpt lat="42.35388" lon="3.17432">
        <ele>55.42</ele>
        <time>2024-09-22T10:15:49.000Z</time>
      </trkpt>
      <trkpt lat="42.35361" lon="3.17454">
        <ele>55.43</ele>
        <time>2024-09-22T10:15:54.999Z</time>
      </trkpt>
      <trkpt lat="42.35336" lon="3.17464">
        <ele>55.38</ele>
        <time>2024-09-22T10:15:59.999Z</time>
      </trkpt>
      <trkpt lat="42.35313" lon="3.17465">
        <ele>55.36</ele>
        <time>2024-09-22T10:16:04.999Z</time>
      </trkpt>
      <trkpt lat="42.35291" lon="3.1746">
        <ele>55.05</ele>
        <time>2024-09-22T10:16:09.999Z</time>
      </trkpt>
      <trkpt lat="42.35275" lon="3.17468">
        <ele>54.89</ele>
        <time>2024-09-22T10:16:14.999Z</time>
      </trkpt>
      <trkpt lat="42.35263" lon="3.17487">
        <ele>54.67</ele>
        <time>2024-09-22T10:16:19.999Z</time>
      </trkpt>
      <trkpt lat="42.35252" lon="3.17511">
        <ele>54.57</ele>
        <time>2024-09-22T10:16:24.999Z</time>
      </trkpt>
      <trkpt lat="42.35243" lon="3.17532">
        <ele>54.71</ele>
        <time>2024-09-22T10:16:29.999Z</time>
      </trkpt>
      <trkpt lat="42.35233" lon="3.17556">
        <ele>54.86</ele>
        <time>2024-09-22T10:16:34.999Z</time>
      </trkpt>
      <trkpt lat="42.35223" lon="3.17578">
        <ele>55.01</ele>
        <time>2024-09-22T10:16:39.999Z</time>
      </trkpt>
      <trkpt lat="42.35209" lon="3.17599">
        <ele>55.54</ele>
        <time>2024-09-22T10:16:44.999Z</time>
      </trkpt>
      <trkpt lat="42.3519" lon="3.17617">
        <ele>55.74</ele>
        <time>2024-09-22T10:16:49.999Z</time>
      </trkpt>
      <trkpt lat="42.35171" lon="3.17634">
        <ele>55.93</ele>
        <time>2024-09-22T10:16:54.999Z</time>
      </trkpt>
      <trkpt lat="42.35152" lon="3.17644">
        <ele>55.91</ele>
        <time>2024-09-22T10:16:59.999Z</time>
      </trkpt>
      <trkpt lat="42.3513" lon="3.17647">
        <ele>55.56</ele>
        <time>2024-09-22T10:17:04.999Z</time>
      </trkpt>
      <trkpt lat="42.35109" lon="3.17651">
        <ele>55.25</ele>
        <time>2024-09-22T10:17:09.999Z</time>
      </trkpt>
      <trkpt lat="42.35089" lon="3.17654">
        <ele>55.27</ele>
        <time>2024-09-22T10:17:14.999Z</time>
      </trkpt>
      <trkpt lat="42.35069" lon="3.17649">
        <ele>55.22</ele>
        <time>2024-09-22T10:17:19.999Z</time>
      </trkpt>
      <trkpt lat="42.35053" lon="3.17632">
        <ele>55.07</ele>
        <time>2024-09-22T10:17:24.999Z</time>
      </trkpt>
      <trkpt lat="42.35034" lon="3.17623">
        <ele>55.05</ele>
        <time>2024-09-22T10:17:29.999Z</time>
      </trkpt>
      <trkpt lat="42.35017" lon="3.17647">
        <ele>55.13</ele>
        <time>2024-09-22T10:17:34.999Z</time>
      </trkpt>
      <trkpt lat="42.35012" lon="3.17678">
        <ele>55.36</ele>
        <time>2024-09-22T10:17:39.999Z</time>
      </trkpt>
      <trkpt lat="42.3501" lon="3.1771">
        <ele>55.27</ele>
        <time>2024-09-22T10:17:44.999Z</time>
      </trkpt>
      <trkpt lat="42.35009" lon="3.17743">
        <ele>55</ele>
        <time>2024-09-22T10:17:49.999Z</time>
      </trkpt>
      <trkpt lat="42.35009" lon="3.17777">
        <ele>55.15</ele>
        <time>2024-09-22T10:17:54.999Z</time>
      </trkpt>
      <trkpt lat="42.35008" lon="3.1781">
        <ele>55.34</ele>
        <time>2024-09-22T10:17:59.999Z</time>
      </trkpt>
      <trkpt lat="42.35007" lon="3.17842">
        <ele>55.41</ele>
        <time>2024-09-22T10:18:04.999Z</time>
      </trkpt>
      <trkpt lat="42.34999" lon="3.17872">
        <ele>55.36</ele>
        <time>2024-09-22T10:18:09.999Z</time>
      </trkpt>
      <trkpt lat="42.34985" lon="3.17897">
        <ele>55.27</ele>
        <time>2024-09-22T10:18:14.999Z</time>
      </trkpt>
      <trkpt lat="42.34971" lon="3.17924">
        <ele>55.32</ele>
        <time>2024-09-22T10:18:19.999Z</time>
      </trkpt>
      <trkpt lat="42.34957" lon="3.17952">
        <ele>55.42</ele>
        <time>2024-09-22T10:18:24.999Z</time>
      </trkpt>
      <trkpt lat="42.34936" lon="3.17965">
        <ele>55.45</ele>
        <time>2024-09-22T10:18:29.999Z</time>
      </trkpt>
      <trkpt lat="42.34917" lon="3.17955">
        <ele>55.45</ele>
        <time>2024-09-22T10:18:34.999Z</time>
      </trkpt>
      <trkpt lat="42.34897" lon="3.17953">
        <ele>55.47</ele>
        <time>2024-09-22T10:18:39.999Z</time>
      </trkpt>
      <trkpt lat="42.34885" lon="3.1798">
        <ele>55.55</ele>
        <time>2024-09-22T10:18:44.999Z</time>
      </trkpt>
      <trkpt lat="42.34887" lon="3.18005">
        <ele>55.58</ele>
        <time>2024-09-22T10:18:49.999Z</time>
      </trkpt>
      <trkpt lat="42.3489" lon="3.18025">
        <ele>55.58</ele>
        <time>2024-09-22T10:18:54.999Z</time>
      </trkpt>
      <trkpt lat="42.34894" lon="3.18046">
        <ele>55.59</ele>
        <time>2024-09-22T10:18:59.999Z</time>
      </trkpt>
      <trkpt lat="42.34891" lon="3.18071">
        <ele>55.63</ele>
        <time>2024-09-22T10:19:04.999Z</time>
      </trkpt>
      <trkpt lat="42.34883" lon="3.18093">
        <ele>55.67</ele>
        <time>2024-09-22T10:19:09.999Z</time>
      </trkpt>
      <trkpt lat="42.34869" lon="3.18113">
        <ele>55.77</ele>
        <time>2024-09-22T10:19:14.999Z</time>
      </trkpt>
      <trkpt lat="42.34855" lon="3.18132">
        <ele>55.79</ele>
        <time>2024-09-22T10:19:19.999Z</time>
      </trkpt>
      <trkpt lat="42.34842" lon="3.18151">
        <ele>55.82</ele>
        <time>2024-09-22T10:19:24.999Z</time>
      </trkpt>
      <trkpt lat="42.34828" lon="3.1817">
        <ele>55.88</ele>
        <time>2024-09-22T10:19:29.999Z</time>
      </trkpt>
      <trkpt lat="42.34814" lon="3.1819">
        <ele>55.96</ele>
        <time>2024-09-22T10:19:34.999Z</time>
      </trkpt>
      <trkpt lat="42.34796" lon="3.182">
        <ele>56.04</ele>
        <time>2024-09-22T10:19:39.999Z</time>
      </trkpt>
      <trkpt lat="42.34775" lon="3.18201">
        <ele>56.12</ele>
        <time>2024-09-22T10:19:44.999Z</time>
      </trkpt>
      <trkpt lat="42.34751" lon="3.18203">
        <ele>56.16</ele>
        <time>2024-09-22T10:19:49.999Z</time>
      </trkpt>
      <trkpt lat="42.34723" lon="3.18205">
        <ele>56.16</ele>
        <time>2024-09-22T10:19:54.999Z</time>
      </trkpt>
      <trkpt lat="42.34694" lon="3.18208">
        <ele>56.12</ele>
        <time>2024-09-22T10:19:59.999Z</time>
      </trkpt>
      <trkpt lat="42.34665" lon="3.18217">
        <ele>56.06</ele>
        <time>2024-09-22T10:20:04.999Z</time>
      </trkpt>
      <trkpt lat="42.34638" lon="3.18235">
        <ele>55.99</ele>
        <time>2024-09-22T10:20:09.999Z</time>
      </trkpt>
      <trkpt lat="42.3461" lon="3.18256">
        <ele>55.95</ele>
        <time>2024-09-22T10:20:14.999Z</time>
      </trkpt>
      <trkpt lat="42.34581" lon="3.18276">
        <ele>55.77</ele>
        <time>2024-09-22T10:20:19.999Z</time>
      </trkpt>
      <trkpt lat="42.34549" lon="3.18281">
        <ele>55.57</ele>
        <time>2024-09-22T10:20:24.999Z</time>
      </trkpt>
      <trkpt lat="42.34521" lon="3.1826">
        <ele>55.27</ele>
        <time>2024-09-22T10:20:29.999Z</time>
      </trkpt>
      <trkpt lat="42.34492" lon="3.18269">
        <ele>54.48</ele>
        <time>2024-09-22T10:20:34.999Z</time>
      </trkpt>
      <trkpt lat="42.34473" lon="3.18305">
        <ele>53.59</ele>
        <time>2024-09-22T10:20:39.999Z</time>
      </trkpt>
      <trkpt lat="42.34444" lon="3.18314">
        <ele>52.73</ele>
        <time>2024-09-22T10:20:44.999Z</time>
      </trkpt>
      <trkpt lat="42.34417" lon="3.18297">
        <ele>51.83</ele>
        <time>2024-09-22T10:20:49.999Z</time>
      </trkpt>
      <trkpt lat="42.3439" lon="3.18287">
        <ele>51.15</ele>
        <time>2024-09-22T10:20:54.999Z</time>
      </trkpt>
      <trkpt lat="42.34362" lon="3.18307">
        <ele>50.53</ele>
        <time>2024-09-22T10:20:59.999Z</time>
      </trkpt>
      <trkpt lat="42.34334" lon="3.18324">
        <ele>49.76</ele>
        <time>2024-09-22T10:21:04.999Z</time>
      </trkpt>
      <trkpt lat="42.3431" lon="3.18305">
        <ele>49.5</ele>
        <time>2024-09-22T10:21:09.999Z</time>
      </trkpt>
      <trkpt lat="42.34287" lon="3.18292">
        <ele>49.06</ele>
        <time>2024-09-22T10:21:14.999Z</time>
      </trkpt>
      <trkpt lat="42.34259" lon="3.18287">
        <ele>48.25</ele>
        <time>2024-09-22T10:21:19.999Z</time>
      </trkpt>
      <trkpt lat="42.3423" lon="3.18281">
        <ele>47.33</ele>
        <time>2024-09-22T10:21:24.999Z</time>
      </trkpt>
      <trkpt lat="42.34199" lon="3.18275">
        <ele>46.27</ele>
        <time>2024-09-22T10:21:29.999Z</time>
      </trkpt>
      <trkpt lat="42.34167" lon="3.18269">
        <ele>45.02</ele>
        <time>2024-09-22T10:21:34.999Z</time>
      </trkpt>
      <trkpt lat="42.34136" lon="3.18266">
        <ele>43.84</ele>
        <time>2024-09-22T10:21:39.999Z</time>
      </trkpt>
      <trkpt lat="42.34105" lon="3.18278">
        <ele>42.93</ele>
        <time>2024-09-22T10:21:44.999Z</time>
      </trkpt>
      <trkpt lat="42.34082" lon="3.18302">
        <ele>42.72</ele>
        <time>2024-09-22T10:21:49.999Z</time>
      </trkpt>
      <trkpt lat="42.34074" lon="3.18339">
        <ele>42.52</ele>
        <time>2024-09-22T10:21:54.999Z</time>
      </trkpt>
      <trkpt lat="42.34075" lon="3.18376">
        <ele>42</ele>
        <time>2024-09-22T10:21:59.999Z</time>
      </trkpt>
      <trkpt lat="42.34086" lon="3.18404">
        <ele>41.46</ele>
        <time>2024-09-22T10:22:04.999Z</time>
      </trkpt>
      <trkpt lat="42.34104" lon="3.18426">
        <ele>40.58</ele>
        <time>2024-09-22T10:22:09.999Z</time>
      </trkpt>
      <trkpt lat="42.34123" lon="3.18448">
        <ele>39.75</ele>
        <time>2024-09-22T10:22:14.999Z</time>
      </trkpt>
      <trkpt lat="42.34138" lon="3.18474">
        <ele>39</ele>
        <time>2024-09-22T10:22:19.999Z</time>
      </trkpt>
      <trkpt lat="42.34134" lon="3.18506">
        <ele>38.52</ele>
        <time>2024-09-22T10:22:24.999Z</time>
      </trkpt>
      <trkpt lat="42.34126" lon="3.18536">
        <ele>38.56</ele>
        <time>2024-09-22T10:22:29.999Z</time>
      </trkpt>
      <trkpt lat="42.34121" lon="3.18568">
        <ele>38.52</ele>
        <time>2024-09-22T10:22:34.999Z</time>
      </trkpt>
      <trkpt lat="42.34137" lon="3.18593">
        <ele>38.34</ele>
        <time>2024-09-22T10:22:39.999Z</time>
      </trkpt>
      <trkpt lat="42.3415" lon="3.18619">
        <ele>38.07</ele>
        <time>2024-09-22T10:22:44.999Z</time>
      </trkpt>
      <trkpt lat="42.34153" lon="3.18651">
        <ele>37.82</ele>
        <time>2024-09-22T10:22:49.999Z</time>
      </trkpt>
      <trkpt lat="42.34155" lon="3.18682">
        <ele>37.6</ele>
        <time>2024-09-22T10:22:54.999Z</time>
      </trkpt>
      <trkpt lat="42.34157" lon="3.18715">
        <ele>37.42</ele>
        <time>2024-09-22T10:22:59.999Z</time>
      </trkpt>
      <trkpt lat="42.34159" lon="3.18745">
        <ele>37.29</ele>
        <time>2024-09-22T10:23:04.999Z</time>
      </trkpt>
      <trkpt lat="42.3415" lon="3.18772">
        <ele>37.21</ele>
        <time>2024-09-22T10:23:09.999Z</time>
      </trkpt>
      <trkpt lat="42.34132" lon="3.18795">
        <ele>37.14</ele>
        <time>2024-09-22T10:23:14.999Z</time>
      </trkpt>
      <trkpt lat="42.34113" lon="3.18818">
        <ele>37.04</ele>
        <time>2024-09-22T10:23:19.999Z</time>
      </trkpt>
      <trkpt lat="42.34095" lon="3.18835">
        <ele>36.94</ele>
        <time>2024-09-22T10:23:24.999Z</time>
      </trkpt>
      <trkpt lat="42.34076" lon="3.18841">
        <ele>36.89</ele>
        <time>2024-09-22T10:23:29.999Z</time>
      </trkpt>
      <trkpt lat="42.34057" lon="3.18838">
        <ele>36.86</ele>
        <time>2024-09-22T10:23:34.999Z</time>
      </trkpt>
      <trkpt lat="42.34034" lon="3.18836">
        <ele>36.79</ele>
        <time>2024-09-22T10:23:39.999Z</time>
      </trkpt>
      <trkpt lat="42.34017" lon="3.18857">
        <ele>36.75</ele>
        <time>2024-09-22T10:23:44.999Z</time>
      </trkpt>
      <trkpt lat="42.34017" lon="3.18888">
        <ele>36.79</ele>
        <time>2024-09-22T10:23:49.999Z</time>
      </trkpt>
      <trkpt lat="42.34015" lon="3.18916">
        <ele>36.78</ele>
        <time>2024-09-22T10:23:54.999Z</time>
      </trkpt>
      <trkpt lat="42.34" lon="3.18934">
        <ele>36.75</ele>
        <time>2024-09-22T10:23:59.999Z</time>
      </trkpt>
      <trkpt lat="42.33982" lon="3.18949">
        <ele>36.73</ele>
        <time>2024-09-22T10:24:04.999Z</time>
      </trkpt>
      <trkpt lat="42.33962" lon="3.18963">
        <ele>36.72</ele>
        <time>2024-09-22T10:24:09.999Z</time>
      </trkpt>
      <trkpt lat="42.33941" lon="3.18956">
        <ele>36.75</ele>
        <time>2024-09-22T10:24:14.999Z</time>
      </trkpt>
      <trkpt lat="42.33926" lon="3.18934">
        <ele>36.78</ele>
        <time>2024-09-22T10:24:19.999Z</time>
      </trkpt>
      <trkpt lat="42.3391" lon="3.18909">
        <ele>36.76</ele>
        <time>2024-09-22T10:24:24.999Z</time>
      </trkpt>
      <trkpt lat="42.33888" lon="3.18901">
        <ele>36.68</ele>
        <time>2024-09-22T10:24:29.999Z</time>
      </trkpt>
      <trkpt lat="42.33869" lon="3.18921">
        <ele>36.63</ele>
        <time>2024-09-22T10:24:34.999Z</time>
      </trkpt>
      <trkpt lat="42.33865" lon="3.18955">
        <ele>36.58</ele>
        <time>2024-09-22T10:24:39.999Z</time>
      </trkpt>
      <trkpt lat="42.3387" lon="3.18989">
        <ele>36.48</ele>
        <time>2024-09-22T10:24:44.999Z</time>
      </trkpt>
      <trkpt lat="42.33873" lon="3.19017">
        <ele>36.39</ele>
        <time>2024-09-22T10:24:49.999Z</time>
      </trkpt>
      <trkpt lat="42.33871" lon="3.19041">
        <ele>36.32</ele>
        <time>2024-09-22T10:24:54.999Z</time>
      </trkpt>
      <trkpt lat="42.33866" lon="3.19051">
        <ele>36.31</ele>
        <time>2024-09-22T10:24:59.999Z</time>
      </trkpt>
      <trkpt lat="42.33857" lon="3.19044">
        <ele>35.42</ele>
        <time>2024-09-22T10:27:51.999Z</time>
      </trkpt>
      <trkpt lat="42.33841" lon="3.19057">
        <ele>34.85</ele>
        <time>2024-09-22T10:27:57.000Z</time>
      </trkpt>
      <trkpt lat="42.33826" lon="3.19078">
        <ele>34.12</ele>
        <time>2024-09-22T10:28:02.000Z</time>
      </trkpt>
      <trkpt lat="42.33822" lon="3.19112">
        <ele>33.8</ele>
        <time>2024-09-22T10:28:07.000Z</time>
      </trkpt>
      <trkpt lat="42.3382" lon="3.19153">
        <ele>33.62</ele>
        <time>2024-09-22T10:28:12.000Z</time>
      </trkpt>
      <trkpt lat="42.33809" lon="3.19195">
        <ele>33.51</ele>
        <time>2024-09-22T10:28:17.000Z</time>
      </trkpt>
      <trkpt lat="42.33785" lon="3.19232">
        <ele>33.35</ele>
        <time>2024-09-22T10:28:22.000Z</time>
      </trkpt>
      <trkpt lat="42.3376" lon="3.19269">
        <ele>33.36</ele>
        <time>2024-09-22T10:28:27.000Z</time>
      </trkpt>
      <trkpt lat="42.33732" lon="3.19302">
        <ele>32.82</ele>
        <time>2024-09-22T10:28:32.000Z</time>
      </trkpt>
      <trkpt lat="42.337" lon="3.19325">
        <ele>32.4</ele>
        <time>2024-09-22T10:28:37.000Z</time>
      </trkpt>
      <trkpt lat="42.33668" lon="3.19346">
        <ele>32.02</ele>
        <time>2024-09-22T10:28:42.000Z</time>
      </trkpt>
      <trkpt lat="42.33637" lon="3.19366">
        <ele>31.69</ele>
        <time>2024-09-22T10:28:47.000Z</time>
      </trkpt>
      <trkpt lat="42.33604" lon="3.19372">
        <ele>31.28</ele>
        <time>2024-09-22T10:28:52.000Z</time>
      </trkpt>
      <trkpt lat="42.33571" lon="3.19373">
        <ele>31.05</ele>
        <time>2024-09-22T10:28:57.000Z</time>
      </trkpt>
      <trkpt lat="42.33545" lon="3.19398">
        <ele>30.67</ele>
        <time>2024-09-22T10:29:02.000Z</time>
      </trkpt>
      <trkpt lat="42.33535" lon="3.1944">
        <ele>30.06</ele>
        <time>2024-09-22T10:29:07.000Z</time>
      </trkpt>
      <trkpt lat="42.33515" lon="3.19477">
        <ele>29.25</ele>
        <time>2024-09-22T10:29:12.000Z</time>
      </trkpt>
      <trkpt lat="42.3349" lon="3.19511">
        <ele>28.53</ele>
        <time>2024-09-22T10:29:17.000Z</time>
      </trkpt>
      <trkpt lat="42.33469" lon="3.19549">
        <ele>27.86</ele>
        <time>2024-09-22T10:29:22.000Z</time>
      </trkpt>
      <trkpt lat="42.33465" lon="3.19596">
        <ele>27.06</ele>
        <time>2024-09-22T10:29:27.000Z</time>
      </trkpt>
      <trkpt lat="42.33461" lon="3.19647">
        <ele>26.19</ele>
        <time>2024-09-22T10:29:32.000Z</time>
      </trkpt>
      <trkpt lat="42.33442" lon="3.19693">
        <ele>25.43</ele>
        <time>2024-09-22T10:29:37.000Z</time>
      </trkpt>
      <trkpt lat="42.33422" lon="3.1974">
        <ele>24.89</ele>
        <time>2024-09-22T10:29:42.000Z</time>
      </trkpt>
      <trkpt lat="42.33412" lon="3.19787">
        <ele>24.42</ele>
        <time>2024-09-22T10:29:47.000Z</time>
      </trkpt>
      <trkpt lat="42.33424" lon="3.19835">
        <ele>23.57</ele>
        <time>2024-09-22T10:29:52.000Z</time>
      </trkpt>
      <trkpt lat="42.33438" lon="3.19882">
        <ele>23.02</ele>
        <time>2024-09-22T10:29:57.000Z</time>
      </trkpt>
      <trkpt lat="42.33451" lon="3.19925">
        <ele>22.69</ele>
        <time>2024-09-22T10:30:02.000Z</time>
      </trkpt>
      <trkpt lat="42.33463" lon="3.19968">
        <ele>22.52</ele>
        <time>2024-09-22T10:30:07.000Z</time>
      </trkpt>
      <trkpt lat="42.33474" lon="3.20008">
        <ele>22.4</ele>
        <time>2024-09-22T10:30:12.000Z</time>
      </trkpt>
      <trkpt lat="42.33484" lon="3.20043">
        <ele>22.33</ele>
        <time>2024-09-22T10:30:17.000Z</time>
      </trkpt>
      <trkpt lat="42.33493" lon="3.20074">
        <ele>22.11</ele>
        <time>2024-09-22T10:30:22.000Z</time>
      </trkpt>
      <trkpt lat="42.33502" lon="3.20107">
        <ele>21.26</ele>
        <time>2024-09-22T10:30:27.000Z</time>
      </trkpt>
      <trkpt lat="42.33514" lon="3.20145">
        <ele>20.55</ele>
        <time>2024-09-22T10:30:32.000Z</time>
      </trkpt>
      <trkpt lat="42.33528" lon="3.20189">
        <ele>19.99</ele>
        <time>2024-09-22T10:30:37.000Z</time>
      </trkpt>
      <trkpt lat="42.33541" lon="3.20233">
        <ele>19.71</ele>
        <time>2024-09-22T10:30:42.000Z</time>
      </trkpt>
      <trkpt lat="42.33557" lon="3.20276">
        <ele>19.97</ele>
        <time>2024-09-22T10:30:47.000Z</time>
      </trkpt>
      <trkpt lat="42.33583" lon="3.20305">
        <ele>20.31</ele>
        <time>2024-09-22T10:30:52.000Z</time>
      </trkpt>
      <trkpt lat="42.3361" lon="3.20328">
        <ele>20.47</ele>
        <time>2024-09-22T10:30:57.000Z</time>
      </trkpt>
      <trkpt lat="42.33633" lon="3.20351">
        <ele>20.36</ele>
        <time>2024-09-22T10:31:02.000Z</time>
      </trkpt>
      <trkpt lat="42.33655" lon="3.20367">
        <ele>20.13</ele>
        <time>2024-09-22T10:31:07.000Z</time>
      </trkpt>
      <trkpt lat="42.33681" lon="3.20368">
        <ele>20.01</ele>
        <time>2024-09-22T10:31:12.000Z</time>
      </trkpt>
      <trkpt lat="42.33706" lon="3.20366">
        <ele>20.1</ele>
        <time>2024-09-22T10:31:17.000Z</time>
      </trkpt>
      <trkpt lat="42.3373" lon="3.20364">
        <ele>20.83</ele>
        <time>2024-09-22T10:31:22.000Z</time>
      </trkpt>
      <trkpt lat="42.33751" lon="3.20362">
        <ele>21.34</ele>
        <time>2024-09-22T10:31:27.000Z</time>
      </trkpt>
      <trkpt lat="42.33767" lon="3.20361">
        <ele>21.44</ele>
        <time>2024-09-22T10:31:32.000Z</time>
      </trkpt>
      <trkpt lat="42.33779" lon="3.20365">
        <ele>21.58</ele>
        <time>2024-09-22T10:31:37.000Z</time>
      </trkpt>
      <trkpt lat="42.33789" lon="3.20374">
        <ele>21.71</ele>
        <time>2024-09-22T10:31:42.000Z</time>
      </trkpt>
      <trkpt lat="42.33798" lon="3.20379">
        <ele>21.87</ele>
        <time>2024-09-22T10:31:49.000Z</time>
      </trkpt>
      <trkpt lat="42.33808" lon="3.20381">
        <ele>22.06</ele>
        <time>2024-09-22T10:31:56.000Z</time>
      </trkpt>
      <trkpt lat="42.33817" lon="3.20381">
        <ele>22.28</ele>
        <time>2024-09-22T10:32:03.000Z</time>
      </trkpt>
      <trkpt lat="42.33828" lon="3.20384">
        <ele>22.43</ele>
        <time>2024-09-22T10:32:09.000Z</time>
      </trkpt>
      <trkpt lat="42.33842" lon="3.20388">
        <ele>22.41</ele>
        <time>2024-09-22T10:32:14.000Z</time>
      </trkpt>
      <trkpt lat="42.33852" lon="3.20389">
        <ele>22.17</ele>
        <time>2024-09-22T10:32:23.000Z</time>
      </trkpt>
      <trkpt lat="42.33861" lon="3.20393">
        <ele>21.97</ele>
        <time>2024-09-22T10:32:28.000Z</time>
      </trkpt>
      <trkpt lat="42.33871" lon="3.20401">
        <ele>21.75</ele>
        <time>2024-09-22T10:32:33.000Z</time>
      </trkpt>
      <trkpt lat="42.3388" lon="3.20408">
        <ele>21.48</ele>
        <time>2024-09-22T10:32:43.000Z</time>
      </trkpt>
      <trkpt lat="42.33888" lon="3.20416">
        <ele>21.32</ele>
        <time>2024-09-22T10:32:48.000Z</time>
      </trkpt>
      <trkpt lat="42.33883" lon="3.20403">
        <ele>20.94</ele>
        <time>2024-09-22T10:33:08.000Z</time>
      </trkpt>
      <trkpt lat="42.33869" lon="3.20389">
        <ele>20.88</ele>
        <time>2024-09-22T10:33:13.000Z</time>
      </trkpt>
      <trkpt lat="42.33854" lon="3.20378">
        <ele>20.84</ele>
        <time>2024-09-22T10:33:18.000Z</time>
      </trkpt>
      <trkpt lat="42.33843" lon="3.2036">
        <ele>20.75</ele>
        <time>2024-09-22T10:33:23.000Z</time>
      </trkpt>
      <trkpt lat="42.33844" lon="3.20333">
        <ele>20.69</ele>
        <time>2024-09-22T10:33:28.000Z</time>
      </trkpt>
      <trkpt lat="42.33848" lon="3.20305">
        <ele>20.64</ele>
        <time>2024-09-22T10:33:33.000Z</time>
      </trkpt>
      <trkpt lat="42.3384" lon="3.20286">
        <ele>20.6</ele>
        <time>2024-09-22T10:33:38.000Z</time>
      </trkpt>
      <trkpt lat="42.33821" lon="3.20278">
        <ele>20.57</ele>
        <time>2024-09-22T10:33:43.000Z</time>
      </trkpt>
      <trkpt lat="42.33803" lon="3.20273">
        <ele>20.55</ele>
        <time>2024-09-22T10:33:48.000Z</time>
      </trkpt>
      <trkpt lat="42.3379" lon="3.20289">
        <ele>20.52</ele>
        <time>2024-09-22T10:33:53.000Z</time>
      </trkpt>
      <trkpt lat="42.33785" lon="3.20314">
        <ele>20.5</ele>
        <time>2024-09-22T10:33:58.000Z</time>
      </trkpt>
      <trkpt lat="42.33783" lon="3.20335">
        <ele>20.48</ele>
        <time>2024-09-22T10:34:03.000Z</time>
      </trkpt>
      <trkpt lat="42.33772" lon="3.20353">
        <ele>20.45</ele>
        <time>2024-09-22T10:34:08.000Z</time>
      </trkpt>
      <trkpt lat="42.33756" lon="3.20354">
        <ele>20.42</ele>
        <time>2024-09-22T10:34:13.000Z</time>
      </trkpt>
      <trkpt lat="42.33744" lon="3.20354">
        <ele>20.36</ele>
        <time>2024-09-22T10:34:18.000Z</time>
      </trkpt>
      <trkpt lat="42.3373" lon="3.20355">
        <ele>20.29</ele>
        <time>2024-09-22T10:34:23.000Z</time>
      </trkpt>
      <trkpt lat="42.33717" lon="3.20356">
        <ele>20.2</ele>
        <time>2024-09-22T10:34:28.000Z</time>
      </trkpt>
      <trkpt lat="42.33707" lon="3.20366">
        <ele>20.12</ele>
        <time>2024-09-22T10:34:33.000Z</time>
      </trkpt>
      <trkpt lat="42.33699" lon="3.20375">
        <ele>20.05</ele>
        <time>2024-09-22T10:34:38.000Z</time>
      </trkpt>
      <trkpt lat="42.33696" lon="3.20386">
        <ele>20.46</ele>
        <time>2024-09-22T10:37:29.000Z</time>
      </trkpt>
      <trkpt lat="42.33687" lon="3.20384">
        <ele>20.73</ele>
        <time>2024-09-22T10:38:05.000Z</time>
      </trkpt>
      <trkpt lat="42.33683" lon="3.20395">
        <ele>21.22</ele>
        <time>2024-09-22T10:40:54.999Z</time>
      </trkpt>
      <trkpt lat="42.33691" lon="3.20398">
        <ele>21.63</ele>
        <time>2024-09-22T10:42:38.999Z</time>
      </trkpt>
      <trkpt lat="42.33686" lon="3.20388">
        <ele>24.94</ele>
        <time>2024-09-22T11:24:26.000Z</time>
      </trkpt>
      <trkpt lat="42.33682" lon="3.20377">
        <ele>25.23</ele>
        <time>2024-09-22T11:29:56.999Z</time>
      </trkpt>
      <trkpt lat="42.33682" lon="3.20389">
        <ele>25.21</ele>
        <time>2024-09-22T11:30:17.999Z</time>
      </trkpt>
      <trkpt lat="42.33685" lon="3.20402">
        <ele>25.2</ele>
        <time>2024-09-22T11:30:35.999Z</time>
      </trkpt>
      <trkpt lat="42.33694" lon="3.20407">
        <ele>25.19</ele>
        <time>2024-09-22T11:30:43.999Z</time>
      </trkpt>
      <trkpt lat="42.33703" lon="3.20411">
        <ele>25.19</ele>
        <time>2024-09-22T11:30:50.999Z</time>
      </trkpt>
      <trkpt lat="42.33715" lon="3.20415">
        <ele>25.19</ele>
        <time>2024-09-22T11:30:55.999Z</time>
      </trkpt>
      <trkpt lat="42.33725" lon="3.20417">
        <ele>25.18</ele>
        <time>2024-09-22T11:31:00.999Z</time>
      </trkpt>
      <trkpt lat="42.33741" lon="3.2042">
        <ele>25.18</ele>
        <time>2024-09-22T11:31:05.999Z</time>
      </trkpt>
      <trkpt lat="42.33751" lon="3.20419">
        <ele>25.18</ele>
        <time>2024-09-22T11:31:10.999Z</time>
      </trkpt>
      <trkpt lat="42.33762" lon="3.20418">
        <ele>25.18</ele>
        <time>2024-09-22T11:31:15.999Z</time>
      </trkpt>
      <trkpt lat="42.33771" lon="3.20416">
        <ele>25.17</ele>
        <time>2024-09-22T11:31:20.999Z</time>
      </trkpt>
      <trkpt lat="42.3378" lon="3.20415">
        <ele>25.17</ele>
        <time>2024-09-22T11:31:25.999Z</time>
      </trkpt>
      <trkpt lat="42.3379" lon="3.20418">
        <ele>25.17</ele>
        <time>2024-09-22T11:31:30.999Z</time>
      </trkpt>
      <trkpt lat="42.33801" lon="3.20418">
        <ele>25.16</ele>
        <time>2024-09-22T11:31:36.999Z</time>
      </trkpt>
      <trkpt lat="42.3381" lon="3.20419">
        <ele>25.16</ele>
        <time>2024-09-22T11:31:42.999Z</time>
      </trkpt>
      <trkpt lat="42.33809" lon="3.20431">
        <ele>25.26</ele>
        <time>2024-09-22T11:32:07.999Z</time>
      </trkpt>
      <trkpt lat="42.338" lon="3.20441">
        <ele>25.26</ele>
        <time>2024-09-22T11:32:14.999Z</time>
      </trkpt>
      <trkpt lat="42.33801" lon="3.20454">
        <ele>25.29</ele>
        <time>2024-09-22T11:32:22.999Z</time>
      </trkpt>
      <trkpt lat="42.33809" lon="3.2046">
        <ele>25.37</ele>
        <time>2024-09-22T11:32:28.999Z</time>
      </trkpt>
      <trkpt lat="42.33818" lon="3.20462">
        <ele>25.47</ele>
        <time>2024-09-22T11:32:35.999Z</time>
      </trkpt>
      <trkpt lat="42.33828" lon="3.20466">
        <ele>25.57</ele>
        <time>2024-09-22T11:32:44.999Z</time>
      </trkpt>
      <trkpt lat="42.33836" lon="3.20474">
        <ele>25.69</ele>
        <time>2024-09-22T11:32:52.999Z</time>
      </trkpt>
      <trkpt lat="42.33844" lon="3.20469">
        <ele>26.66</ele>
        <time>2024-09-22T11:33:57.999Z</time>
      </trkpt>
      <trkpt lat="42.33851" lon="3.2046">
        <ele>31.31</ele>
        <time>2024-09-22T11:35:19.999Z</time>
      </trkpt>
      <trkpt lat="42.3386" lon="3.20458">
        <ele>32.38</ele>
        <time>2024-09-22T11:35:58.999Z</time>
      </trkpt>
      <trkpt lat="42.33868" lon="3.20453">
        <ele>33.25</ele>
        <time>2024-09-22T11:36:21.999Z</time>
      </trkpt>
      <trkpt lat="42.33873" lon="3.20438">
        <ele>33.26</ele>
        <time>2024-09-22T11:36:26.999Z</time>
      </trkpt>
      <trkpt lat="42.33876" lon="3.20426">
        <ele>33.16</ele>
        <time>2024-09-22T11:36:48.999Z</time>
      </trkpt>
      <trkpt lat="42.33885" lon="3.20422">
        <ele>33.03</ele>
        <time>2024-09-22T11:37:29.999Z</time>
      </trkpt>
      <trkpt lat="42.3389" lon="3.20412">
        <ele>32.99</ele>
        <time>2024-09-22T11:37:38.999Z</time>
      </trkpt>
      <trkpt lat="42.33902" lon="3.20422">
        <ele>32.97</ele>
        <time>2024-09-22T11:37:43.999Z</time>
      </trkpt>
      <trkpt lat="42.33918" lon="3.20427">
        <ele>32.95</ele>
        <time>2024-09-22T11:37:48.999Z</time>
      </trkpt>
      <trkpt lat="42.33936" lon="3.20426">
        <ele>32.83</ele>
        <time>2024-09-22T11:37:53.999Z</time>
      </trkpt>
      <trkpt lat="42.33958" lon="3.20424">
        <ele>32.7</ele>
        <time>2024-09-22T11:37:58.999Z</time>
      </trkpt>
      <trkpt lat="42.33977" lon="3.2041">
        <ele>32.56</ele>
        <time>2024-09-22T11:38:03.999Z</time>
      </trkpt>
      <trkpt lat="42.33996" lon="3.20395">
        <ele>32.32</ele>
        <time>2024-09-22T11:38:08.999Z</time>
      </trkpt>
      <trkpt lat="42.34015" lon="3.20379">
        <ele>32.17</ele>
        <time>2024-09-22T11:38:13.999Z</time>
      </trkpt>
      <trkpt lat="42.34035" lon="3.20363">
        <ele>32.04</ele>
        <time>2024-09-22T11:38:18.999Z</time>
      </trkpt>
      <trkpt lat="42.34055" lon="3.20351">
        <ele>31.97</ele>
        <time>2024-09-22T11:38:23.999Z</time>
      </trkpt>
      <trkpt lat="42.34073" lon="3.20353">
        <ele>31.94</ele>
        <time>2024-09-22T11:38:28.999Z</time>
      </trkpt>
      <trkpt lat="42.34093" lon="3.20357">
        <ele>31.94</ele>
        <time>2024-09-22T11:38:33.999Z</time>
      </trkpt>
      <trkpt lat="42.34113" lon="3.20355">
        <ele>31.93</ele>
        <time>2024-09-22T11:38:38.999Z</time>
      </trkpt>
      <trkpt lat="42.34129" lon="3.20348">
        <ele>31.9</ele>
        <time>2024-09-22T11:38:43.999Z</time>
      </trkpt>
      <trkpt lat="42.34142" lon="3.20341">
        <ele>31.88</ele>
        <time>2024-09-22T11:38:48.999Z</time>
      </trkpt>
      <trkpt lat="42.34155" lon="3.20336">
        <ele>31.86</ele>
        <time>2024-09-22T11:38:53.999Z</time>
      </trkpt>
      <trkpt lat="42.34169" lon="3.20333">
        <ele>31.79</ele>
        <time>2024-09-22T11:38:58.999Z</time>
      </trkpt>
      <trkpt lat="42.34186" lon="3.20324">
        <ele>31.54</ele>
        <time>2024-09-22T11:39:03.999Z</time>
      </trkpt>
      <trkpt lat="42.34203" lon="3.20313">
        <ele>31.42</ele>
        <time>2024-09-22T11:39:08.999Z</time>
      </trkpt>
      <trkpt lat="42.34218" lon="3.20304">
        <ele>31.25</ele>
        <time>2024-09-22T11:39:13.999Z</time>
      </trkpt>
      <trkpt lat="42.34232" lon="3.20294">
        <ele>30.94</ele>
        <time>2024-09-22T11:39:18.999Z</time>
      </trkpt>
      <trkpt lat="42.34244" lon="3.20287">
        <ele>30.41</ele>
        <time>2024-09-22T11:39:41.999Z</time>
      </trkpt>
      <trkpt lat="42.34253" lon="3.2028">
        <ele>30.66</ele>
        <time>2024-09-22T11:39:47.999Z</time>
      </trkpt>
      <trkpt lat="42.34266" lon="3.20275">
        <ele>30.82</ele>
        <time>2024-09-22T11:39:52.999Z</time>
      </trkpt>
      <trkpt lat="42.34278" lon="3.20268">
        <ele>30.94</ele>
        <time>2024-09-22T11:39:57.999Z</time>
      </trkpt>
      <trkpt lat="42.3429" lon="3.20262">
        <ele>31.05</ele>
        <time>2024-09-22T11:40:03.000Z</time>
      </trkpt>
      <trkpt lat="42.343" lon="3.20252">
        <ele>31.16</ele>
        <time>2024-09-22T11:40:08.000Z</time>
      </trkpt>
      <trkpt lat="42.34309" lon="3.20243">
        <ele>31.25</ele>
        <time>2024-09-22T11:40:13.000Z</time>
      </trkpt>
      <trkpt lat="42.34319" lon="3.2024">
        <ele>31.48</ele>
        <time>2024-09-22T11:41:06.000Z</time>
      </trkpt>
      <trkpt lat="42.34329" lon="3.20231">
        <ele>31.58</ele>
        <time>2024-09-22T11:41:11.000Z</time>
      </trkpt>
      <trkpt lat="42.34344" lon="3.2022">
        <ele>31.68</ele>
        <time>2024-09-22T11:41:16.000Z</time>
      </trkpt>
      <trkpt lat="42.34354" lon="3.20203">
        <ele>31.74</ele>
        <time>2024-09-22T11:41:21.000Z</time>
      </trkpt>
      <trkpt lat="42.34355" lon="3.2019">
        <ele>31.84</ele>
        <time>2024-09-22T11:42:23.000Z</time>
      </trkpt>
      <trkpt lat="42.34346" lon="3.20171">
        <ele>31.88</ele>
        <time>2024-09-22T11:42:28.000Z</time>
      </trkpt>
      <trkpt lat="42.34341" lon="3.20152">
        <ele>31.9</ele>
        <time>2024-09-22T11:42:33.000Z</time>
      </trkpt>
      <trkpt lat="42.34342" lon="3.20138">
        <ele>31.89</ele>
        <time>2024-09-22T11:42:38.000Z</time>
      </trkpt>
      <trkpt lat="42.34349" lon="3.20145">
        <ele>27.99</ele>
        <time>2024-09-22T11:49:50.000Z</time>
      </trkpt>
      <trkpt lat="42.34341" lon="3.2014">
        <ele>19.09</ele>
        <time>2024-09-22T12:26:45.999Z</time>
      </trkpt>
      <trkpt lat="42.34332" lon="3.20136">
        <ele>14.75</ele>
        <time>2024-09-22T12:54:37.000Z</time>
      </trkpt>
      <trkpt lat="42.34323" lon="3.20134">
        <ele>14.84</ele>
        <time>2024-09-22T12:54:46.000Z</time>
      </trkpt>
      <trkpt lat="42.34313" lon="3.20128">
        <ele>14.93</ele>
        <time>2024-09-22T12:54:57.000Z</time>
      </trkpt>
      <trkpt lat="42.34302" lon="3.20125">
        <ele>14.99</ele>
        <time>2024-09-22T12:55:02.000Z</time>
      </trkpt>
      <trkpt lat="42.34288" lon="3.20122">
        <ele>15.05</ele>
        <time>2024-09-22T12:55:07.000Z</time>
      </trkpt>
      <trkpt lat="42.34274" lon="3.2012">
        <ele>15.11</ele>
        <time>2024-09-22T12:55:12.000Z</time>
      </trkpt>
      <trkpt lat="42.34259" lon="3.20124">
        <ele>15.17</ele>
        <time>2024-09-22T12:55:17.000Z</time>
      </trkpt>
      <trkpt lat="42.34247" lon="3.20131">
        <ele>15.23</ele>
        <time>2024-09-22T12:55:22.000Z</time>
      </trkpt>
      <trkpt lat="42.34234" lon="3.20139">
        <ele>15.28</ele>
        <time>2024-09-22T12:55:27.000Z</time>
      </trkpt>
      <trkpt lat="42.34227" lon="3.20155">
        <ele>15.33</ele>
        <time>2024-09-22T12:55:32.000Z</time>
      </trkpt>
      <trkpt lat="42.34234" lon="3.20178">
        <ele>15.38</ele>
        <time>2024-09-22T12:55:37.000Z</time>
      </trkpt>
      <trkpt lat="42.34245" lon="3.2019">
        <ele>15.43</ele>
        <time>2024-09-22T12:55:42.000Z</time>
      </trkpt>
      <trkpt lat="42.34253" lon="3.202">
        <ele>15.48</ele>
        <time>2024-09-22T12:55:47.000Z</time>
      </trkpt>
      <trkpt lat="42.34262" lon="3.20209">
        <ele>15.53</ele>
        <time>2024-09-22T12:55:52.000Z</time>
      </trkpt>
      <trkpt lat="42.3427" lon="3.20217">
        <ele>15.58</ele>
        <time>2024-09-22T12:55:57.000Z</time>
      </trkpt>
      <trkpt lat="42.34278" lon="3.20224">
        <ele>15.63</ele>
        <time>2024-09-22T12:56:03.000Z</time>
      </trkpt>
      <trkpt lat="42.34286" lon="3.20233">
        <ele>15.68</ele>
        <time>2024-09-22T12:56:09.000Z</time>
      </trkpt>
      <trkpt lat="42.34292" lon="3.20244">
        <ele>15.73</ele>
        <time>2024-09-22T12:56:14.000Z</time>
      </trkpt>
      <trkpt lat="42.3429" lon="3.20257">
        <ele>15.81</ele>
        <time>2024-09-22T12:56:21.000Z</time>
      </trkpt>
      <trkpt lat="42.34278" lon="3.20263">
        <ele>15.88</ele>
        <time>2024-09-22T12:56:26.000Z</time>
      </trkpt>
      <trkpt lat="42.34262" lon="3.20272">
        <ele>16.22</ele>
        <time>2024-09-22T12:56:31.000Z</time>
      </trkpt>
      <trkpt lat="42.34244" lon="3.20274">
        <ele>16.41</ele>
        <time>2024-09-22T12:56:36.000Z</time>
      </trkpt>
      <trkpt lat="42.3422" lon="3.20283">
        <ele>16.62</ele>
        <time>2024-09-22T12:56:41.000Z</time>
      </trkpt>
      <trkpt lat="42.34195" lon="3.203">
        <ele>16.76</ele>
        <time>2024-09-22T12:56:46.000Z</time>
      </trkpt>
      <trkpt lat="42.34174" lon="3.20318">
        <ele>16.86</ele>
        <time>2024-09-22T12:56:51.000Z</time>
      </trkpt>
      <trkpt lat="42.34159" lon="3.20326">
        <ele>16.87</ele>
        <time>2024-09-22T12:56:56.000Z</time>
      </trkpt>
      <trkpt lat="42.34144" lon="3.2033">
        <ele>16.88</ele>
        <time>2024-09-22T12:57:01.000Z</time>
      </trkpt>
      <trkpt lat="42.3413" lon="3.20339">
        <ele>16.89</ele>
        <time>2024-09-22T12:57:06.000Z</time>
      </trkpt>
      <trkpt lat="42.34117" lon="3.20348">
        <ele>16.92</ele>
        <time>2024-09-22T12:57:11.000Z</time>
      </trkpt>
      <trkpt lat="42.34107" lon="3.20352">
        <ele>16.94</ele>
        <time>2024-09-22T12:57:16.000Z</time>
      </trkpt>
      <trkpt lat="42.34097" lon="3.20352">
        <ele>17.04</ele>
        <time>2024-09-22T12:57:42.000Z</time>
      </trkpt>
      <trkpt lat="42.34086" lon="3.20349">
        <ele>17.08</ele>
        <time>2024-09-22T12:57:47.000Z</time>
      </trkpt>
      <trkpt lat="42.34076" lon="3.20349">
        <ele>17.14</ele>
        <time>2024-09-22T12:57:54.000Z</time>
      </trkpt>
      <trkpt lat="42.34073" lon="3.20338">
        <ele>17.29</ele>
        <time>2024-09-22T12:58:24.000Z</time>
      </trkpt>
      <trkpt lat="42.3408" lon="3.20329">
        <ele>17.97</ele>
        <time>2024-09-22T12:59:44.000Z</time>
      </trkpt>
      <trkpt lat="42.34074" lon="3.20338">
        <ele>15.98</ele>
        <time>2024-09-22T13:09:16.999Z</time>
      </trkpt>
      <trkpt lat="42.3407" lon="3.20349">
        <ele>19.02</ele>
        <time>2024-09-22T13:34:47.999Z</time>
      </trkpt>
      <trkpt lat="42.3406" lon="3.20349">
        <ele>18.99</ele>
        <time>2024-09-22T13:34:52.999Z</time>
      </trkpt>
      <trkpt lat="42.3405" lon="3.20352">
        <ele>18.96</ele>
        <time>2024-09-22T13:34:57.999Z</time>
      </trkpt>
      <trkpt lat="42.34034" lon="3.20361">
        <ele>18.93</ele>
        <time>2024-09-22T13:35:02.999Z</time>
      </trkpt>
      <trkpt lat="42.34018" lon="3.20373">
        <ele>18.88</ele>
        <time>2024-09-22T13:35:07.999Z</time>
      </trkpt>
      <trkpt lat="42.34002" lon="3.20386">
        <ele>18.82</ele>
        <time>2024-09-22T13:35:12.999Z</time>
      </trkpt>
      <trkpt lat="42.33984" lon="3.204">
        <ele>18.76</ele>
        <time>2024-09-22T13:35:17.999Z</time>
      </trkpt>
      <trkpt lat="42.33965" lon="3.20414">
        <ele>18.75</ele>
        <time>2024-09-22T13:35:22.999Z</time>
      </trkpt>
      <trkpt lat="42.33947" lon="3.20422">
        <ele>18.74</ele>
        <time>2024-09-22T13:35:27.999Z</time>
      </trkpt>
      <trkpt lat="42.33925" lon="3.20424">
        <ele>18.74</ele>
        <time>2024-09-22T13:35:32.999Z</time>
      </trkpt>
      <trkpt lat="42.33904" lon="3.20419">
        <ele>18.75</ele>
        <time>2024-09-22T13:35:37.999Z</time>
      </trkpt>
      <trkpt lat="42.33885" lon="3.20403">
        <ele>18.78</ele>
        <time>2024-09-22T13:35:42.999Z</time>
      </trkpt>
      <trkpt lat="42.33865" lon="3.20386">
        <ele>18.79</ele>
        <time>2024-09-22T13:35:47.999Z</time>
      </trkpt>
      <trkpt lat="42.33848" lon="3.20369">
        <ele>18.81</ele>
        <time>2024-09-22T13:35:52.999Z</time>
      </trkpt>
      <trkpt lat="42.33841" lon="3.20345">
        <ele>18.82</ele>
        <time>2024-09-22T13:35:57.999Z</time>
      </trkpt>
      <trkpt lat="42.33847" lon="3.20317">
        <ele>18.89</ele>
        <time>2024-09-22T13:36:02.999Z</time>
      </trkpt>
      <trkpt lat="42.33848" lon="3.20287">
        <ele>18.96</ele>
        <time>2024-09-22T13:36:07.999Z</time>
      </trkpt>
      <trkpt lat="42.3383" lon="3.20275">
        <ele>18.98</ele>
        <time>2024-09-22T13:36:12.999Z</time>
      </trkpt>
      <trkpt lat="42.33812" lon="3.20271">
        <ele>19</ele>
        <time>2024-09-22T13:36:17.999Z</time>
      </trkpt>
      <trkpt lat="42.33795" lon="3.20279">
        <ele>19.04</ele>
        <time>2024-09-22T13:36:22.999Z</time>
      </trkpt>
      <trkpt lat="42.33789" lon="3.20304">
        <ele>19.05</ele>
        <time>2024-09-22T13:36:27.999Z</time>
      </trkpt>
      <trkpt lat="42.33783" lon="3.20331">
        <ele>19.07</ele>
        <time>2024-09-22T13:36:32.999Z</time>
      </trkpt>
      <trkpt lat="42.33768" lon="3.20349">
        <ele>19.13</ele>
        <time>2024-09-22T13:36:37.999Z</time>
      </trkpt>
      <trkpt lat="42.33748" lon="3.20352">
        <ele>19.21</ele>
        <time>2024-09-22T13:36:42.999Z</time>
      </trkpt>
      <trkpt lat="42.33727" lon="3.20356">
        <ele>19.26</ele>
        <time>2024-09-22T13:36:47.999Z</time>
      </trkpt>
      <trkpt lat="42.33708" lon="3.20359">
        <ele>19.32</ele>
        <time>2024-09-22T13:36:52.999Z</time>
      </trkpt>
      <trkpt lat="42.33687" lon="3.20361">
        <ele>19.38</ele>
        <time>2024-09-22T13:36:57.999Z</time>
      </trkpt>
      <trkpt lat="42.33662" lon="3.20359">
        <ele>19.45</ele>
        <time>2024-09-22T13:37:02.999Z</time>
      </trkpt>
      <trkpt lat="42.33642" lon="3.20346">
        <ele>19.45</ele>
        <time>2024-09-22T13:37:07.999Z</time>
      </trkpt>
      <trkpt lat="42.33626" lon="3.20331">
        <ele>19.44</ele>
        <time>2024-09-22T13:37:12.999Z</time>
      </trkpt>
      <trkpt lat="42.3361" lon="3.20317">
        <ele>19.43</ele>
        <time>2024-09-22T13:37:17.999Z</time>
      </trkpt>
      <trkpt lat="42.33594" lon="3.20305">
        <ele>19.43</ele>
        <time>2024-09-22T13:37:22.999Z</time>
      </trkpt>
      <trkpt lat="42.33579" lon="3.20293">
        <ele>19.42</ele>
        <time>2024-09-22T13:37:27.999Z</time>
      </trkpt>
      <trkpt lat="42.33565" lon="3.20283">
        <ele>19.41</ele>
        <time>2024-09-22T13:37:32.999Z</time>
      </trkpt>
      <trkpt lat="42.33554" lon="3.20294">
        <ele>19.4</ele>
        <time>2024-09-22T13:37:37.999Z</time>
      </trkpt>
      <trkpt lat="42.33546" lon="3.20311">
        <ele>19.41</ele>
        <time>2024-09-22T13:37:42.999Z</time>
      </trkpt>
      <trkpt lat="42.33536" lon="3.20331">
        <ele>19.43</ele>
        <time>2024-09-22T13:37:47.999Z</time>
      </trkpt>
      <trkpt lat="42.33525" lon="3.20351">
        <ele>19.45</ele>
        <time>2024-09-22T13:37:52.999Z</time>
      </trkpt>
      <trkpt lat="42.33513" lon="3.20367">
        <ele>19.49</ele>
        <time>2024-09-22T13:37:57.999Z</time>
      </trkpt>
      <trkpt lat="42.33495" lon="3.2038">
        <ele>19.63</ele>
        <time>2024-09-22T13:38:02.999Z</time>
      </trkpt>
      <trkpt lat="42.33476" lon="3.2039">
        <ele>19.61</ele>
        <time>2024-09-22T13:38:07.999Z</time>
      </trkpt>
      <trkpt lat="42.33458" lon="3.20397">
        <ele>19.48</ele>
        <time>2024-09-22T13:38:12.999Z</time>
      </trkpt>
      <trkpt lat="42.33437" lon="3.20405">
        <ele>19.08</ele>
        <time>2024-09-22T13:38:17.999Z</time>
      </trkpt>
      <trkpt lat="42.33415" lon="3.20413">
        <ele>19</ele>
        <time>2024-09-22T13:38:22.999Z</time>
      </trkpt>
      <trkpt lat="42.33395" lon="3.20421">
        <ele>19.01</ele>
        <time>2024-09-22T13:38:27.999Z</time>
      </trkpt>
      <trkpt lat="42.33372" lon="3.2043">
        <ele>19.05</ele>
        <time>2024-09-22T13:38:32.999Z</time>
      </trkpt>
      <trkpt lat="42.3335" lon="3.20439">
        <ele>18.98</ele>
        <time>2024-09-22T13:38:37.999Z</time>
      </trkpt>
      <trkpt lat="42.33327" lon="3.20448">
        <ele>18.85</ele>
        <time>2024-09-22T13:38:42.999Z</time>
      </trkpt>
      <trkpt lat="42.33306" lon="3.20458">
        <ele>18.77</ele>
        <time>2024-09-22T13:38:47.999Z</time>
      </trkpt>
      <trkpt lat="42.33287" lon="3.20468">
        <ele>18.76</ele>
        <time>2024-09-22T13:38:52.999Z</time>
      </trkpt>
      <trkpt lat="42.3327" lon="3.20478">
        <ele>18.73</ele>
        <time>2024-09-22T13:38:57.999Z</time>
      </trkpt>
      <trkpt lat="42.33254" lon="3.20487">
        <ele>18.71</ele>
        <time>2024-09-22T13:39:02.999Z</time>
      </trkpt>
      <trkpt lat="42.33237" lon="3.20495">
        <ele>18.69</ele>
        <time>2024-09-22T13:39:07.999Z</time>
      </trkpt>
      <trkpt lat="42.3322" lon="3.20492">
        <ele>18.67</ele>
        <time>2024-09-22T13:39:12.999Z</time>
      </trkpt>
      <trkpt lat="42.33203" lon="3.20503">
        <ele>18.67</ele>
        <time>2024-09-22T13:39:17.999Z</time>
      </trkpt>
      <trkpt lat="42.33188" lon="3.20515">
        <ele>18.67</ele>
        <time>2024-09-22T13:39:22.999Z</time>
      </trkpt>
      <trkpt lat="42.3317" lon="3.20518">
        <ele>18.67</ele>
        <time>2024-09-22T13:39:27.999Z</time>
      </trkpt>
      <trkpt lat="42.33152" lon="3.20518">
        <ele>18.63</ele>
        <time>2024-09-22T13:39:32.999Z</time>
      </trkpt>
      <trkpt lat="42.33135" lon="3.20518">
        <ele>18.61</ele>
        <time>2024-09-22T13:39:37.999Z</time>
      </trkpt>
      <trkpt lat="42.33117" lon="3.20517">
        <ele>18.59</ele>
        <time>2024-09-22T13:39:42.999Z</time>
      </trkpt>
      <trkpt lat="42.33099" lon="3.20518">
        <ele>18.57</ele>
        <time>2024-09-22T13:39:47.999Z</time>
      </trkpt>
      <trkpt lat="42.33082" lon="3.20519">
        <ele>18.53</ele>
        <time>2024-09-22T13:39:52.999Z</time>
      </trkpt>
      <trkpt lat="42.33064" lon="3.20519">
        <ele>18.5</ele>
        <time>2024-09-22T13:39:58.000Z</time>
      </trkpt>
      <trkpt lat="42.33044" lon="3.2052">
        <ele>18.47</ele>
        <time>2024-09-22T13:40:03.000Z</time>
      </trkpt>
      <trkpt lat="42.33031" lon="3.2052">
        <ele>18.43</ele>
        <time>2024-09-22T13:40:08.000Z</time>
      </trkpt>
      <trkpt lat="42.33041" lon="3.20526">
        <ele>18.4</ele>
        <time>2024-09-22T13:40:17.000Z</time>
      </trkpt>
      <trkpt lat="42.33031" lon="3.2052">
        <ele>18.39</ele>
        <time>2024-09-22T13:40:28.000Z</time>
      </trkpt>
      <trkpt lat="42.33017" lon="3.20519">
        <ele>18.39</ele>
        <time>2024-09-22T13:40:33.000Z</time>
      </trkpt>
      <trkpt lat="42.33003" lon="3.20518">
        <ele>18.4</ele>
        <time>2024-09-22T13:40:38.000Z</time>
      </trkpt>
      <trkpt lat="42.32988" lon="3.20516">
        <ele>18.43</ele>
        <time>2024-09-22T13:40:43.000Z</time>
      </trkpt>
      <trkpt lat="42.32979" lon="3.20513">
        <ele>18.46</ele>
        <time>2024-09-22T13:40:48.000Z</time>
      </trkpt>
      <trkpt lat="42.32957" lon="3.20515">
        <ele>18.5</ele>
        <time>2024-09-22T13:40:53.000Z</time>
      </trkpt>
      <trkpt lat="42.32936" lon="3.20518">
        <ele>18.55</ele>
        <time>2024-09-22T13:40:58.000Z</time>
      </trkpt>
      <trkpt lat="42.32915" lon="3.20521">
        <ele>18.69</ele>
        <time>2024-09-22T13:41:03.000Z</time>
      </trkpt>
      <trkpt lat="42.32897" lon="3.20509">
        <ele>18.83</ele>
        <time>2024-09-22T13:41:08.000Z</time>
      </trkpt>
      <trkpt lat="42.32879" lon="3.20514">
        <ele>18.89</ele>
        <time>2024-09-22T13:41:13.000Z</time>
      </trkpt>
      <trkpt lat="42.32862" lon="3.20524">
        <ele>18.95</ele>
        <time>2024-09-22T13:41:18.000Z</time>
      </trkpt>
      <trkpt lat="42.32843" lon="3.20526">
        <ele>19.14</ele>
        <time>2024-09-22T13:41:23.000Z</time>
      </trkpt>
      <trkpt lat="42.32825" lon="3.20526">
        <ele>19.18</ele>
        <time>2024-09-22T13:41:28.000Z</time>
      </trkpt>
      <trkpt lat="42.32808" lon="3.20525">
        <ele>19.21</ele>
        <time>2024-09-22T13:41:33.000Z</time>
      </trkpt>
      <trkpt lat="42.32789" lon="3.20527">
        <ele>19.24</ele>
        <time>2024-09-22T13:41:38.000Z</time>
      </trkpt>
      <trkpt lat="42.32771" lon="3.20527">
        <ele>19.38</ele>
        <time>2024-09-22T13:41:43.000Z</time>
      </trkpt>
      <trkpt lat="42.32749" lon="3.20528">
        <ele>19.74</ele>
        <time>2024-09-22T13:41:48.000Z</time>
      </trkpt>
      <trkpt lat="42.32726" lon="3.20528">
        <ele>19.84</ele>
        <time>2024-09-22T13:41:53.000Z</time>
      </trkpt>
      <trkpt lat="42.32701" lon="3.20528">
        <ele>19.81</ele>
        <time>2024-09-22T13:41:58.000Z</time>
      </trkpt>
      <trkpt lat="42.32677" lon="3.20528">
        <ele>19.84</ele>
        <time>2024-09-22T13:42:03.000Z</time>
      </trkpt>
      <trkpt lat="42.32656" lon="3.20529">
        <ele>19.82</ele>
        <time>2024-09-22T13:42:08.000Z</time>
      </trkpt>
      <trkpt lat="42.32636" lon="3.2053">
        <ele>19.82</ele>
        <time>2024-09-22T13:42:13.000Z</time>
      </trkpt>
      <trkpt lat="42.32616" lon="3.2053">
        <ele>19.79</ele>
        <time>2024-09-22T13:42:18.000Z</time>
      </trkpt>
      <trkpt lat="42.32595" lon="3.20531">
        <ele>19.72</ele>
        <time>2024-09-22T13:42:23.000Z</time>
      </trkpt>
      <trkpt lat="42.32575" lon="3.20531">
        <ele>19.68</ele>
        <time>2024-09-22T13:42:28.000Z</time>
      </trkpt>
      <trkpt lat="42.32555" lon="3.20532">
        <ele>19.67</ele>
        <time>2024-09-22T13:42:33.000Z</time>
      </trkpt>
      <trkpt lat="42.32534" lon="3.20533">
        <ele>19.73</ele>
        <time>2024-09-22T13:42:38.000Z</time>
      </trkpt>
      <trkpt lat="42.32515" lon="3.20539">
        <ele>19.84</ele>
        <time>2024-09-22T13:42:43.000Z</time>
      </trkpt>
      <trkpt lat="42.32496" lon="3.20543">
        <ele>19.9</ele>
        <time>2024-09-22T13:42:48.000Z</time>
      </trkpt>
      <trkpt lat="42.32476" lon="3.20548">
        <ele>19.92</ele>
        <time>2024-09-22T13:42:53.000Z</time>
      </trkpt>
      <trkpt lat="42.32457" lon="3.20554">
        <ele>19.92</ele>
        <time>2024-09-22T13:42:58.000Z</time>
      </trkpt>
      <trkpt lat="42.32437" lon="3.2056">
        <ele>19.96</ele>
        <time>2024-09-22T13:43:03.000Z</time>
      </trkpt>
      <trkpt lat="42.32418" lon="3.20565">
        <ele>19.99</ele>
        <time>2024-09-22T13:43:08.000Z</time>
      </trkpt>
      <trkpt lat="42.32397" lon="3.20571">
        <ele>20.03</ele>
        <time>2024-09-22T13:43:13.000Z</time>
      </trkpt>
      <trkpt lat="42.32377" lon="3.20577">
        <ele>20.07</ele>
        <time>2024-09-22T13:43:18.000Z</time>
      </trkpt>
      <trkpt lat="42.32357" lon="3.20582">
        <ele>20.12</ele>
        <time>2024-09-22T13:43:23.000Z</time>
      </trkpt>
      <trkpt lat="42.32337" lon="3.20588">
        <ele>20.18</ele>
        <time>2024-09-22T13:43:28.000Z</time>
      </trkpt>
      <trkpt lat="42.32317" lon="3.20593">
        <ele>20.24</ele>
        <time>2024-09-22T13:43:33.000Z</time>
      </trkpt>
      <trkpt lat="42.32297" lon="3.206">
        <ele>20.29</ele>
        <time>2024-09-22T13:43:38.000Z</time>
      </trkpt>
      <trkpt lat="42.32278" lon="3.20605">
        <ele>20.32</ele>
        <time>2024-09-22T13:43:43.000Z</time>
      </trkpt>
      <trkpt lat="42.32259" lon="3.20611">
        <ele>20.35</ele>
        <time>2024-09-22T13:43:48.000Z</time>
      </trkpt>
      <trkpt lat="42.3224" lon="3.20616">
        <ele>20.36</ele>
        <time>2024-09-22T13:43:53.000Z</time>
      </trkpt>
      <trkpt lat="42.3222" lon="3.20622">
        <ele>20.41</ele>
        <time>2024-09-22T13:43:58.000Z</time>
      </trkpt>
      <trkpt lat="42.32202" lon="3.20627">
        <ele>20.43</ele>
        <time>2024-09-22T13:44:03.000Z</time>
      </trkpt>
      <trkpt lat="42.32183" lon="3.20631">
        <ele>20.44</ele>
        <time>2024-09-22T13:44:08.000Z</time>
      </trkpt>
      <trkpt lat="42.32164" lon="3.20635">
        <ele>20.46</ele>
        <time>2024-09-22T13:44:13.000Z</time>
      </trkpt>
      <trkpt lat="42.32145" lon="3.2064">
        <ele>20.47</ele>
        <time>2024-09-22T13:44:18.000Z</time>
      </trkpt>
      <trkpt lat="42.32128" lon="3.20645">
        <ele>20.5</ele>
        <time>2024-09-22T13:44:23.000Z</time>
      </trkpt>
      <trkpt lat="42.3211" lon="3.20652">
        <ele>20.54</ele>
        <time>2024-09-22T13:44:28.000Z</time>
      </trkpt>
      <trkpt lat="42.32093" lon="3.20662">
        <ele>20.68</ele>
        <time>2024-09-22T13:44:33.000Z</time>
      </trkpt>
      <trkpt lat="42.32081" lon="3.20681">
        <ele>20.79</ele>
        <time>2024-09-22T13:44:38.000Z</time>
      </trkpt>
      <trkpt lat="42.32073" lon="3.20702">
        <ele>20.84</ele>
        <time>2024-09-22T13:44:43.000Z</time>
      </trkpt>
      <trkpt lat="42.32066" lon="3.20724">
        <ele>20.89</ele>
        <time>2024-09-22T13:44:48.000Z</time>
      </trkpt>
      <trkpt lat="42.32063" lon="3.20746">
        <ele>20.94</ele>
        <time>2024-09-22T13:44:53.000Z</time>
      </trkpt>
      <trkpt lat="42.32061" lon="3.20771">
        <ele>21</ele>
        <time>2024-09-22T13:44:58.000Z</time>
      </trkpt>
      <trkpt lat="42.32061" lon="3.20795">
        <ele>21.06</ele>
        <time>2024-09-22T13:45:03.000Z</time>
      </trkpt>
      <trkpt lat="42.32061" lon="3.20819">
        <ele>21.14</ele>
        <time>2024-09-22T13:45:08.000Z</time>
      </trkpt>
      <trkpt lat="42.3206" lon="3.20841">
        <ele>21.23</ele>
        <time>2024-09-22T13:45:13.000Z</time>
      </trkpt>
      <trkpt lat="42.3206" lon="3.20864">
        <ele>21.34</ele>
        <time>2024-09-22T13:45:18.000Z</time>
      </trkpt>
      <trkpt lat="42.32062" lon="3.20886">
        <ele>21.45</ele>
        <time>2024-09-22T13:45:23.000Z</time>
      </trkpt>
      <trkpt lat="42.32064" lon="3.20907">
        <ele>21.56</ele>
        <time>2024-09-22T13:45:28.000Z</time>
      </trkpt>
      <trkpt lat="42.32065" lon="3.20931">
        <ele>21.68</ele>
        <time>2024-09-22T13:45:33.000Z</time>
      </trkpt>
      <trkpt lat="42.32064" lon="3.20954">
        <ele>21.8</ele>
        <time>2024-09-22T13:45:38.000Z</time>
      </trkpt>
      <trkpt lat="42.32062" lon="3.20976">
        <ele>21.92</ele>
        <time>2024-09-22T13:45:43.000Z</time>
      </trkpt>
      <trkpt lat="42.32053" lon="3.20998">
        <ele>22.05</ele>
        <time>2024-09-22T13:45:48.000Z</time>
      </trkpt>
      <trkpt lat="42.32041" lon="3.21016">
        <ele>22.18</ele>
        <time>2024-09-22T13:45:53.000Z</time>
      </trkpt>
      <trkpt lat="42.32028" lon="3.21032">
        <ele>22.32</ele>
        <time>2024-09-22T13:45:58.000Z</time>
      </trkpt>
      <trkpt lat="42.32016" lon="3.21046">
        <ele>22.47</ele>
        <time>2024-09-22T13:46:03.000Z</time>
      </trkpt>
      <trkpt lat="42.32001" lon="3.21056">
        <ele>22.63</ele>
        <time>2024-09-22T13:46:08.000Z</time>
      </trkpt>
      <trkpt lat="42.31983" lon="3.21063">
        <ele>22.8</ele>
        <time>2024-09-22T13:46:13.000Z</time>
      </trkpt>
      <trkpt lat="42.31966" lon="3.21069">
        <ele>22.98</ele>
        <time>2024-09-22T13:46:18.000Z</time>
      </trkpt>
      <trkpt lat="42.3195" lon="3.21073">
        <ele>23.15</ele>
        <time>2024-09-22T13:46:23.000Z</time>
      </trkpt>
      <trkpt lat="42.31936" lon="3.21084">
        <ele>23.3</ele>
        <time>2024-09-22T13:46:28.000Z</time>
      </trkpt>
      <trkpt lat="42.3192" lon="3.21099">
        <ele>23.44</ele>
        <time>2024-09-22T13:46:33.000Z</time>
      </trkpt>
      <trkpt lat="42.31901" lon="3.21096">
        <ele>23.59</ele>
        <time>2024-09-22T13:46:38.000Z</time>
      </trkpt>
      <trkpt lat="42.31883" lon="3.21088">
        <ele>23.97</ele>
        <time>2024-09-22T13:46:43.000Z</time>
      </trkpt>
      <trkpt lat="42.31862" lon="3.21083">
        <ele>24.08</ele>
        <time>2024-09-22T13:46:48.000Z</time>
      </trkpt>
      <trkpt lat="42.31842" lon="3.21075">
        <ele>24.52</ele>
        <time>2024-09-22T13:46:53.000Z</time>
      </trkpt>
      <trkpt lat="42.31823" lon="3.2106">
        <ele>25.01</ele>
        <time>2024-09-22T13:46:58.000Z</time>
      </trkpt>
      <trkpt lat="42.31804" lon="3.21047">
        <ele>25.28</ele>
        <time>2024-09-22T13:47:03.000Z</time>
      </trkpt>
      <trkpt lat="42.31785" lon="3.21033">
        <ele>25.51</ele>
        <time>2024-09-22T13:47:08.000Z</time>
      </trkpt>
      <trkpt lat="42.31766" lon="3.21019">
        <ele>25.67</ele>
        <time>2024-09-22T13:47:13.000Z</time>
      </trkpt>
      <trkpt lat="42.31746" lon="3.21004">
        <ele>25.97</ele>
        <time>2024-09-22T13:47:18.000Z</time>
      </trkpt>
      <trkpt lat="42.31727" lon="3.20987">
        <ele>26.27</ele>
        <time>2024-09-22T13:47:23.000Z</time>
      </trkpt>
      <trkpt lat="42.31707" lon="3.20978">
        <ele>26.46</ele>
        <time>2024-09-22T13:47:28.000Z</time>
      </trkpt>
      <trkpt lat="42.31686" lon="3.20968">
        <ele>26.77</ele>
        <time>2024-09-22T13:47:33.000Z</time>
      </trkpt>
      <trkpt lat="42.31665" lon="3.2096">
        <ele>26.97</ele>
        <time>2024-09-22T13:47:38.000Z</time>
      </trkpt>
      <trkpt lat="42.31643" lon="3.2095">
        <ele>27.25</ele>
        <time>2024-09-22T13:47:43.000Z</time>
      </trkpt>
      <trkpt lat="42.31626" lon="3.20939">
        <ele>27.29</ele>
        <time>2024-09-22T13:47:48.000Z</time>
      </trkpt>
      <trkpt lat="42.31612" lon="3.20932">
        <ele>27.34</ele>
        <time>2024-09-22T13:47:53.000Z</time>
      </trkpt>
      <trkpt lat="42.31598" lon="3.20928">
        <ele>27.4</ele>
        <time>2024-09-22T13:47:58.000Z</time>
      </trkpt>
      <trkpt lat="42.31585" lon="3.20933">
        <ele>27.46</ele>
        <time>2024-09-22T13:48:03.000Z</time>
      </trkpt>
      <trkpt lat="42.3157" lon="3.20939">
        <ele>27.52</ele>
        <time>2024-09-22T13:48:08.000Z</time>
      </trkpt>
      <trkpt lat="42.31553" lon="3.20945">
        <ele>27.6</ele>
        <time>2024-09-22T13:48:13.000Z</time>
      </trkpt>
      <trkpt lat="42.31538" lon="3.20945">
        <ele>27.68</ele>
        <time>2024-09-22T13:48:18.000Z</time>
      </trkpt>
      <trkpt lat="42.31524" lon="3.20943">
        <ele>27.77</ele>
        <time>2024-09-22T13:48:23.000Z</time>
      </trkpt>
      <trkpt lat="42.31509" lon="3.20941">
        <ele>27.88</ele>
        <time>2024-09-22T13:48:28.000Z</time>
      </trkpt>
      <trkpt lat="42.31495" lon="3.20937">
        <ele>27.98</ele>
        <time>2024-09-22T13:48:33.000Z</time>
      </trkpt>
      <trkpt lat="42.31483" lon="3.20935">
        <ele>28.09</ele>
        <time>2024-09-22T13:48:38.000Z</time>
      </trkpt>
      <trkpt lat="42.3147" lon="3.20932">
        <ele>28.2</ele>
        <time>2024-09-22T13:48:43.000Z</time>
      </trkpt>
      <trkpt lat="42.31455" lon="3.20929">
        <ele>28.32</ele>
        <time>2024-09-22T13:48:48.000Z</time>
      </trkpt>
      <trkpt lat="42.31442" lon="3.20925">
        <ele>28.47</ele>
        <time>2024-09-22T13:48:53.000Z</time>
      </trkpt>
      <trkpt lat="42.31429" lon="3.20921">
        <ele>28.62</ele>
        <time>2024-09-22T13:48:58.000Z</time>
      </trkpt>
      <trkpt lat="42.31417" lon="3.20916">
        <ele>28.8</ele>
        <time>2024-09-22T13:49:03.000Z</time>
      </trkpt>
      <trkpt lat="42.31405" lon="3.20911">
        <ele>28.99</ele>
        <time>2024-09-22T13:49:08.000Z</time>
      </trkpt>
      <trkpt lat="42.31394" lon="3.20904">
        <ele>29.18</ele>
        <time>2024-09-22T13:49:13.000Z</time>
      </trkpt>
      <trkpt lat="42.31383" lon="3.20899">
        <ele>29.36</ele>
        <time>2024-09-22T13:49:18.000Z</time>
      </trkpt>
      <trkpt lat="42.31371" lon="3.20894">
        <ele>29.54</ele>
        <time>2024-09-22T13:49:23.000Z</time>
      </trkpt>
      <trkpt lat="42.31358" lon="3.20888">
        <ele>29.72</ele>
        <time>2024-09-22T13:49:28.000Z</time>
      </trkpt>
      <trkpt lat="42.31343" lon="3.20885">
        <ele>29.92</ele>
        <time>2024-09-22T13:49:33.000Z</time>
      </trkpt>
      <trkpt lat="42.31329" lon="3.20884">
        <ele>30.11</ele>
        <time>2024-09-22T13:49:38.000Z</time>
      </trkpt>
      <trkpt lat="42.31317" lon="3.20882">
        <ele>30.31</ele>
        <time>2024-09-22T13:49:43.000Z</time>
      </trkpt>
      <trkpt lat="42.31304" lon="3.20881">
        <ele>30.5</ele>
        <time>2024-09-22T13:49:48.000Z</time>
      </trkpt>
      <trkpt lat="42.31289" lon="3.20881">
        <ele>30.71</ele>
        <time>2024-09-22T13:49:53.000Z</time>
      </trkpt>
      <trkpt lat="42.31276" lon="3.20881">
        <ele>30.93</ele>
        <time>2024-09-22T13:49:58.000Z</time>
      </trkpt>
      <trkpt lat="42.31264" lon="3.20882">
        <ele>31.16</ele>
        <time>2024-09-22T13:50:03.000Z</time>
      </trkpt>
      <trkpt lat="42.31252" lon="3.2089">
        <ele>31.4</ele>
        <time>2024-09-22T13:50:08.000Z</time>
      </trkpt>
      <trkpt lat="42.31245" lon="3.20903">
        <ele>31.65</ele>
        <time>2024-09-22T13:50:13.000Z</time>
      </trkpt>
      <trkpt lat="42.31247" lon="3.20923">
        <ele>31.92</ele>
        <time>2024-09-22T13:50:18.000Z</time>
      </trkpt>
      <trkpt lat="42.31252" lon="3.20938">
        <ele>32.21</ele>
        <time>2024-09-22T13:50:23.000Z</time>
      </trkpt>
      <trkpt lat="42.31258" lon="3.20952">
        <ele>32.51</ele>
        <time>2024-09-22T13:50:28.000Z</time>
      </trkpt>
      <trkpt lat="42.31265" lon="3.20968">
        <ele>32.81</ele>
        <time>2024-09-22T13:50:33.000Z</time>
      </trkpt>
      <trkpt lat="42.31274" lon="3.20983">
        <ele>33.12</ele>
        <time>2024-09-22T13:50:38.000Z</time>
      </trkpt>
      <trkpt lat="42.31283" lon="3.21">
        <ele>33.43</ele>
        <time>2024-09-22T13:50:43.000Z</time>
      </trkpt>
      <trkpt lat="42.31291" lon="3.2102">
        <ele>33.74</ele>
        <time>2024-09-22T13:50:48.000Z</time>
      </trkpt>
      <trkpt lat="42.31298" lon="3.21035">
        <ele>34.05</ele>
        <time>2024-09-22T13:50:53.000Z</time>
      </trkpt>
      <trkpt lat="42.31305" lon="3.21049">
        <ele>34.36</ele>
        <time>2024-09-22T13:50:58.000Z</time>
      </trkpt>
      <trkpt lat="42.31312" lon="3.21063">
        <ele>34.68</ele>
        <time>2024-09-22T13:51:03.000Z</time>
      </trkpt>
      <trkpt lat="42.31319" lon="3.21079">
        <ele>35.01</ele>
        <time>2024-09-22T13:51:08.000Z</time>
      </trkpt>
      <trkpt lat="42.31327" lon="3.21095">
        <ele>35.36</ele>
        <time>2024-09-22T13:51:13.000Z</time>
      </trkpt>
      <trkpt lat="42.31334" lon="3.2111">
        <ele>35.74</ele>
        <time>2024-09-22T13:51:18.000Z</time>
      </trkpt>
      <trkpt lat="42.31341" lon="3.21127">
        <ele>36.13</ele>
        <time>2024-09-22T13:51:23.000Z</time>
      </trkpt>
      <trkpt lat="42.31349" lon="3.21145">
        <ele>36.53</ele>
        <time>2024-09-22T13:51:28.000Z</time>
      </trkpt>
      <trkpt lat="42.31356" lon="3.21161">
        <ele>36.95</ele>
        <time>2024-09-22T13:51:33.000Z</time>
      </trkpt>
      <trkpt lat="42.31364" lon="3.21177">
        <ele>37.37</ele>
        <time>2024-09-22T13:51:38.000Z</time>
      </trkpt>
      <trkpt lat="42.31372" lon="3.21194">
        <ele>37.79</ele>
        <time>2024-09-22T13:51:43.000Z</time>
      </trkpt>
      <trkpt lat="42.31379" lon="3.2121">
        <ele>38.22</ele>
        <time>2024-09-22T13:51:48.000Z</time>
      </trkpt>
      <trkpt lat="42.31386" lon="3.21226">
        <ele>38.74</ele>
        <time>2024-09-22T13:51:53.999Z</time>
      </trkpt>
      <trkpt lat="42.31392" lon="3.2124">
        <ele>39.19</ele>
        <time>2024-09-22T13:51:58.999Z</time>
      </trkpt>
      <trkpt lat="42.314" lon="3.21252">
        <ele>39.65</ele>
        <time>2024-09-22T13:52:03.999Z</time>
      </trkpt>
      <trkpt lat="42.31409" lon="3.21262">
        <ele>40.13</ele>
        <time>2024-09-22T13:52:08.999Z</time>
      </trkpt>
      <trkpt lat="42.31416" lon="3.21277">
        <ele>40.6</ele>
        <time>2024-09-22T13:52:13.999Z</time>
      </trkpt>
      <trkpt lat="42.3142" lon="3.21292">
        <ele>41.08</ele>
        <time>2024-09-22T13:52:18.999Z</time>
      </trkpt>
      <trkpt lat="42.31424" lon="3.21309">
        <ele>41.58</ele>
        <time>2024-09-22T13:52:23.999Z</time>
      </trkpt>
      <trkpt lat="42.31427" lon="3.21323">
        <ele>42.1</ele>
        <time>2024-09-22T13:52:28.999Z</time>
      </trkpt>
      <trkpt lat="42.31428" lon="3.21339">
        <ele>42.68</ele>
        <time>2024-09-22T13:52:33.999Z</time>
      </trkpt>
      <trkpt lat="42.31422" lon="3.21358">
        <ele>43.32</ele>
        <time>2024-09-22T13:52:38.999Z</time>
      </trkpt>
      <trkpt lat="42.31418" lon="3.21372">
        <ele>44.08</ele>
        <time>2024-09-22T13:52:43.999Z</time>
      </trkpt>
      <trkpt lat="42.31416" lon="3.21385">
        <ele>45.14</ele>
        <time>2024-09-22T13:52:49.999Z</time>
      </trkpt>
      <trkpt lat="42.3141" lon="3.21395">
        <ele>49.72</ele>
        <time>2024-09-22T13:53:44.999Z</time>
      </trkpt>
      <trkpt lat="42.31405" lon="3.21408">
        <ele>50.98</ele>
        <time>2024-09-22T13:53:49.999Z</time>
      </trkpt>
      <trkpt lat="42.31399" lon="3.21424">
        <ele>52.16</ele>
        <time>2024-09-22T13:53:54.999Z</time>
      </trkpt>
      <trkpt lat="42.31392" lon="3.21438">
        <ele>53.27</ele>
        <time>2024-09-22T13:53:59.999Z</time>
      </trkpt>
      <trkpt lat="42.31386" lon="3.21452">
        <ele>54.31</ele>
        <time>2024-09-22T13:54:04.999Z</time>
      </trkpt>
      <trkpt lat="42.31379" lon="3.21465">
        <ele>55.29</ele>
        <time>2024-09-22T13:54:09.999Z</time>
      </trkpt>
      <trkpt lat="42.31374" lon="3.21475">
        <ele>56.22</ele>
        <time>2024-09-22T13:54:14.999Z</time>
      </trkpt>
      <trkpt lat="42.31371" lon="3.21488">
        <ele>57.09</ele>
        <time>2024-09-22T13:54:19.999Z</time>
      </trkpt>
      <trkpt lat="42.31371" lon="3.21508">
        <ele>57.92</ele>
        <time>2024-09-22T13:54:24.999Z</time>
      </trkpt>
      <trkpt lat="42.31371" lon="3.21525">
        <ele>58.68</ele>
        <time>2024-09-22T13:54:29.999Z</time>
      </trkpt>
      <trkpt lat="42.31372" lon="3.21542">
        <ele>59.4</ele>
        <time>2024-09-22T13:54:34.999Z</time>
      </trkpt>
      <trkpt lat="42.31365" lon="3.21555">
        <ele>60.13</ele>
        <time>2024-09-22T13:54:39.999Z</time>
      </trkpt>
      <trkpt lat="42.31355" lon="3.21559">
        <ele>60.87</ele>
        <time>2024-09-22T13:54:44.999Z</time>
      </trkpt>
      <trkpt lat="42.31343" lon="3.21563">
        <ele>61.6</ele>
        <time>2024-09-22T13:54:49.999Z</time>
      </trkpt>
      <trkpt lat="42.3133" lon="3.21568">
        <ele>62.31</ele>
        <time>2024-09-22T13:54:54.999Z</time>
      </trkpt>
      <trkpt lat="42.31318" lon="3.21572">
        <ele>63</ele>
        <time>2024-09-22T13:54:59.999Z</time>
      </trkpt>
      <trkpt lat="42.31306" lon="3.21577">
        <ele>63.67</ele>
        <time>2024-09-22T13:55:04.999Z</time>
      </trkpt>
      <trkpt lat="42.31296" lon="3.21581">
        <ele>64.33</ele>
        <time>2024-09-22T13:55:09.999Z</time>
      </trkpt>
      <trkpt lat="42.31284" lon="3.21586">
        <ele>64.97</ele>
        <time>2024-09-22T13:55:14.999Z</time>
      </trkpt>
      <trkpt lat="42.31273" lon="3.21594">
        <ele>65.59</ele>
        <time>2024-09-22T13:55:19.999Z</time>
      </trkpt>
      <trkpt lat="42.31263" lon="3.21602">
        <ele>66.21</ele>
        <time>2024-09-22T13:55:24.999Z</time>
      </trkpt>
      <trkpt lat="42.31255" lon="3.21617">
        <ele>66.8</ele>
        <time>2024-09-22T13:55:29.999Z</time>
      </trkpt>
      <trkpt lat="42.31246" lon="3.21628">
        <ele>67.39</ele>
        <time>2024-09-22T13:55:34.999Z</time>
      </trkpt>
      <trkpt lat="42.31236" lon="3.21633">
        <ele>67.97</ele>
        <time>2024-09-22T13:55:39.999Z</time>
      </trkpt>
      <trkpt lat="42.31224" lon="3.21636">
        <ele>68.53</ele>
        <time>2024-09-22T13:55:44.999Z</time>
      </trkpt>
      <trkpt lat="42.31214" lon="3.21637">
        <ele>69.07</ele>
        <time>2024-09-22T13:55:49.999Z</time>
      </trkpt>
      <trkpt lat="42.31203" lon="3.2164">
        <ele>69.59</ele>
        <time>2024-09-22T13:55:54.999Z</time>
      </trkpt>
      <trkpt lat="42.31193" lon="3.21643">
        <ele>70.07</ele>
        <time>2024-09-22T13:55:59.999Z</time>
      </trkpt>
      <trkpt lat="42.31183" lon="3.21646">
        <ele>70.53</ele>
        <time>2024-09-22T13:56:04.999Z</time>
      </trkpt>
      <trkpt lat="42.3117" lon="3.21649">
        <ele>70.97</ele>
        <time>2024-09-22T13:56:09.999Z</time>
      </trkpt>
      <trkpt lat="42.31158" lon="3.21654">
        <ele>71.39</ele>
        <time>2024-09-22T13:56:14.999Z</time>
      </trkpt>
      <trkpt lat="42.31147" lon="3.21658">
        <ele>71.8</ele>
        <time>2024-09-22T13:56:19.999Z</time>
      </trkpt>
      <trkpt lat="42.31132" lon="3.21662">
        <ele>72.21</ele>
        <time>2024-09-22T13:56:24.999Z</time>
      </trkpt>
      <trkpt lat="42.31122" lon="3.21665">
        <ele>72.63</ele>
        <time>2024-09-22T13:56:29.999Z</time>
      </trkpt>
      <trkpt lat="42.31111" lon="3.21668">
        <ele>73.04</ele>
        <time>2024-09-22T13:56:34.999Z</time>
      </trkpt>
      <trkpt lat="42.311" lon="3.21673">
        <ele>73.45</ele>
        <time>2024-09-22T13:56:39.999Z</time>
      </trkpt>
      <trkpt lat="42.31093" lon="3.2168">
        <ele>73.84</ele>
        <time>2024-09-22T13:56:44.999Z</time>
      </trkpt>
      <trkpt lat="42.31088" lon="3.21698">
        <ele>74.23</ele>
        <time>2024-09-22T13:56:49.999Z</time>
      </trkpt>
      <trkpt lat="42.31087" lon="3.21717">
        <ele>74.62</ele>
        <time>2024-09-22T13:56:54.999Z</time>
      </trkpt>
      <trkpt lat="42.31079" lon="3.21734">
        <ele>75.01</ele>
        <time>2024-09-22T13:56:59.999Z</time>
      </trkpt>
      <trkpt lat="42.31063" lon="3.21743">
        <ele>75.38</ele>
        <time>2024-09-22T13:57:04.999Z</time>
      </trkpt>
      <trkpt lat="42.31053" lon="3.21733">
        <ele>75.75</ele>
        <time>2024-09-22T13:57:09.999Z</time>
      </trkpt>
      <trkpt lat="42.31043" lon="3.21719">
        <ele>76.12</ele>
        <time>2024-09-22T13:57:14.999Z</time>
      </trkpt>
      <trkpt lat="42.31031" lon="3.21707">
        <ele>76.47</ele>
        <time>2024-09-22T13:57:19.999Z</time>
      </trkpt>
      <trkpt lat="42.31019" lon="3.21704">
        <ele>76.83</ele>
        <time>2024-09-22T13:57:24.999Z</time>
      </trkpt>
      <trkpt lat="42.31006" lon="3.21697">
        <ele>77.18</ele>
        <time>2024-09-22T13:57:29.999Z</time>
      </trkpt>
      <trkpt lat="42.30997" lon="3.2168">
        <ele>77.52</ele>
        <time>2024-09-22T13:57:34.999Z</time>
      </trkpt>
      <trkpt lat="42.30994" lon="3.21663">
        <ele>77.84</ele>
        <time>2024-09-22T13:57:39.999Z</time>
      </trkpt>
      <trkpt lat="42.30989" lon="3.2165">
        <ele>78.14</ele>
        <time>2024-09-22T13:57:44.999Z</time>
      </trkpt>
      <trkpt lat="42.3098" lon="3.21638">
        <ele>78.42</ele>
        <time>2024-09-22T13:57:49.999Z</time>
      </trkpt>
      <trkpt lat="42.30972" lon="3.21628">
        <ele>78.71</ele>
        <time>2024-09-22T13:57:54.999Z</time>
      </trkpt>
      <trkpt lat="42.30961" lon="3.21615">
        <ele>78.99</ele>
        <time>2024-09-22T13:57:59.999Z</time>
      </trkpt>
      <trkpt lat="42.30953" lon="3.21604">
        <ele>79.25</ele>
        <time>2024-09-22T13:58:04.999Z</time>
      </trkpt>
      <trkpt lat="42.30943" lon="3.21594">
        <ele>79.51</ele>
        <time>2024-09-22T13:58:09.999Z</time>
      </trkpt>
      <trkpt lat="42.30937" lon="3.21579">
        <ele>79.77</ele>
        <time>2024-09-22T13:58:14.999Z</time>
      </trkpt>
      <trkpt lat="42.30931" lon="3.21563">
        <ele>80.01</ele>
        <time>2024-09-22T13:58:19.999Z</time>
      </trkpt>
      <trkpt lat="42.30926" lon="3.21552">
        <ele>80.25</ele>
        <time>2024-09-22T13:58:24.999Z</time>
      </trkpt>
      <trkpt lat="42.30921" lon="3.21538">
        <ele>80.5</ele>
        <time>2024-09-22T13:58:29.999Z</time>
      </trkpt>
      <trkpt lat="42.30915" lon="3.21521">
        <ele>80.74</ele>
        <time>2024-09-22T13:58:34.999Z</time>
      </trkpt>
      <trkpt lat="42.3091" lon="3.21507">
        <ele>80.98</ele>
        <time>2024-09-22T13:58:39.999Z</time>
      </trkpt>
      <trkpt lat="42.30905" lon="3.21494">
        <ele>81.22</ele>
        <time>2024-09-22T13:58:44.999Z</time>
      </trkpt>
      <trkpt lat="42.30899" lon="3.21478">
        <ele>81.47</ele>
        <time>2024-09-22T13:58:49.999Z</time>
      </trkpt>
      <trkpt lat="42.30895" lon="3.21464">
        <ele>81.73</ele>
        <time>2024-09-22T13:58:54.999Z</time>
      </trkpt>
      <trkpt lat="42.30891" lon="3.21451">
        <ele>82.01</ele>
        <time>2024-09-22T13:58:59.999Z</time>
      </trkpt>
      <trkpt lat="42.30886" lon="3.21438">
        <ele>82.32</ele>
        <time>2024-09-22T13:59:04.999Z</time>
      </trkpt>
      <trkpt lat="42.30881" lon="3.21423">
        <ele>82.63</ele>
        <time>2024-09-22T13:59:09.999Z</time>
      </trkpt>
      <trkpt lat="42.30876" lon="3.2141">
        <ele>82.93</ele>
        <time>2024-09-22T13:59:14.999Z</time>
      </trkpt>
      <trkpt lat="42.3087" lon="3.21395">
        <ele>83.23</ele>
        <time>2024-09-22T13:59:19.999Z</time>
      </trkpt>
      <trkpt lat="42.30864" lon="3.21382">
        <ele>83.51</ele>
        <time>2024-09-22T13:59:24.999Z</time>
      </trkpt>
      <trkpt lat="42.30858" lon="3.21369">
        <ele>83.78</ele>
        <time>2024-09-22T13:59:29.999Z</time>
      </trkpt>
      <trkpt lat="42.30851" lon="3.21357">
        <ele>84.06</ele>
        <time>2024-09-22T13:59:34.999Z</time>
      </trkpt>
      <trkpt lat="42.30841" lon="3.2135">
        <ele>84.33</ele>
        <time>2024-09-22T13:59:39.999Z</time>
      </trkpt>
      <trkpt lat="42.30831" lon="3.21347">
        <ele>84.6</ele>
        <time>2024-09-22T13:59:44.999Z</time>
      </trkpt>
      <trkpt lat="42.30822" lon="3.21347">
        <ele>84.87</ele>
        <time>2024-09-22T13:59:49.999Z</time>
      </trkpt>
      <trkpt lat="42.30812" lon="3.21353">
        <ele>85.14</ele>
        <time>2024-09-22T13:59:54.999Z</time>
      </trkpt>
      <trkpt lat="42.30803" lon="3.21362">
        <ele>85.42</ele>
        <time>2024-09-22T13:59:59.999Z</time>
      </trkpt>
      <trkpt lat="42.30794" lon="3.21373">
        <ele>85.71</ele>
        <time>2024-09-22T14:00:04.999Z</time>
      </trkpt>
      <trkpt lat="42.30788" lon="3.21385">
        <ele>86.05</ele>
        <time>2024-09-22T14:00:09.999Z</time>
      </trkpt>
      <trkpt lat="42.30783" lon="3.21396">
        <ele>86.42</ele>
        <time>2024-09-22T14:00:14.999Z</time>
      </trkpt>
      <trkpt lat="42.3078" lon="3.2141">
        <ele>86.82</ele>
        <time>2024-09-22T14:00:19.999Z</time>
      </trkpt>
      <trkpt lat="42.30777" lon="3.21422">
        <ele>87.24</ele>
        <time>2024-09-22T14:00:24.999Z</time>
      </trkpt>
      <trkpt lat="42.30776" lon="3.21435">
        <ele>87.67</ele>
        <time>2024-09-22T14:00:29.999Z</time>
      </trkpt>
      <trkpt lat="42.30774" lon="3.21451">
        <ele>88.1</ele>
        <time>2024-09-22T14:00:34.999Z</time>
      </trkpt>
      <trkpt lat="42.30771" lon="3.21466">
        <ele>88.57</ele>
        <time>2024-09-22T14:00:39.999Z</time>
      </trkpt>
      <trkpt lat="42.30769" lon="3.2148">
        <ele>89.05</ele>
        <time>2024-09-22T14:00:44.999Z</time>
      </trkpt>
      <trkpt lat="42.30766" lon="3.21494">
        <ele>89.6</ele>
        <time>2024-09-22T14:00:50.999Z</time>
      </trkpt>
      <trkpt lat="42.30763" lon="3.21506">
        <ele>90.05</ele>
        <time>2024-09-22T14:00:55.999Z</time>
      </trkpt>
      <trkpt lat="42.30753" lon="3.21522">
        <ele>90.48</ele>
        <time>2024-09-22T14:01:00.999Z</time>
      </trkpt>
      <trkpt lat="42.30745" lon="3.21536">
        <ele>90.92</ele>
        <time>2024-09-22T14:01:05.999Z</time>
      </trkpt>
      <trkpt lat="42.30744" lon="3.2155">
        <ele>91.37</ele>
        <time>2024-09-22T14:01:10.999Z</time>
      </trkpt>
      <trkpt lat="42.30743" lon="3.21563">
        <ele>91.83</ele>
        <time>2024-09-22T14:01:15.999Z</time>
      </trkpt>
      <trkpt lat="42.30744" lon="3.21578">
        <ele>92.33</ele>
        <time>2024-09-22T14:01:20.999Z</time>
      </trkpt>
      <trkpt lat="42.30749" lon="3.21594">
        <ele>92.87</ele>
        <time>2024-09-22T14:01:25.999Z</time>
      </trkpt>
      <trkpt lat="42.30754" lon="3.21607">
        <ele>93.44</ele>
        <time>2024-09-22T14:01:30.999Z</time>
      </trkpt>
      <trkpt lat="42.30758" lon="3.21623">
        <ele>94.03</ele>
        <time>2024-09-22T14:01:35.999Z</time>
      </trkpt>
      <trkpt lat="42.30759" lon="3.21636">
        <ele>94.62</ele>
        <time>2024-09-22T14:01:40.999Z</time>
      </trkpt>
      <trkpt lat="42.30762" lon="3.2165">
        <ele>95.21</ele>
        <time>2024-09-22T14:01:45.999Z</time>
      </trkpt>
      <trkpt lat="42.30764" lon="3.21664">
        <ele>95.81</ele>
        <time>2024-09-22T14:01:50.999Z</time>
      </trkpt>
      <trkpt lat="42.30765" lon="3.21678">
        <ele>96.4</ele>
        <time>2024-09-22T14:01:55.999Z</time>
      </trkpt>
      <trkpt lat="42.30766" lon="3.21693">
        <ele>96.99</ele>
        <time>2024-09-22T14:02:00.999Z</time>
      </trkpt>
      <trkpt lat="42.30767" lon="3.21708">
        <ele>97.58</ele>
        <time>2024-09-22T14:02:05.999Z</time>
      </trkpt>
      <trkpt lat="42.30768" lon="3.21724">
        <ele>98.31</ele>
        <time>2024-09-22T14:02:11.999Z</time>
      </trkpt>
      <trkpt lat="42.30768" lon="3.21739">
        <ele>98.92</ele>
        <time>2024-09-22T14:02:16.999Z</time>
      </trkpt>
      <trkpt lat="42.3077" lon="3.21754">
        <ele>99.53</ele>
        <time>2024-09-22T14:02:21.999Z</time>
      </trkpt>
      <trkpt lat="42.30771" lon="3.21766">
        <ele>100.15</ele>
        <time>2024-09-22T14:02:26.999Z</time>
      </trkpt>
      <trkpt lat="42.30771" lon="3.21781">
        <ele>100.76</ele>
        <time>2024-09-22T14:02:31.999Z</time>
      </trkpt>
      <trkpt lat="42.30772" lon="3.21798">
        <ele>101.37</ele>
        <time>2024-09-22T14:02:36.999Z</time>
      </trkpt>
      <trkpt lat="42.30774" lon="3.21813">
        <ele>102.01</ele>
        <time>2024-09-22T14:02:41.999Z</time>
      </trkpt>
      <trkpt lat="42.30776" lon="3.21827">
        <ele>102.71</ele>
        <time>2024-09-22T14:02:46.999Z</time>
      </trkpt>
      <trkpt lat="42.30778" lon="3.21842">
        <ele>103.47</ele>
        <time>2024-09-22T14:02:51.999Z</time>
      </trkpt>
      <trkpt lat="42.30778" lon="3.21856">
        <ele>104.29</ele>
        <time>2024-09-22T14:02:56.999Z</time>
      </trkpt>
      <trkpt lat="42.30776" lon="3.21869">
        <ele>105.17</ele>
        <time>2024-09-22T14:03:01.999Z</time>
      </trkpt>
      <trkpt lat="42.30768" lon="3.21883">
        <ele>106.07</ele>
        <time>2024-09-22T14:03:06.999Z</time>
      </trkpt>
      <trkpt lat="42.30759" lon="3.21895">
        <ele>106.96</ele>
        <time>2024-09-22T14:03:11.999Z</time>
      </trkpt>
      <trkpt lat="42.30753" lon="3.21904">
        <ele>107.84</ele>
        <time>2024-09-22T14:03:16.999Z</time>
      </trkpt>
      <trkpt lat="42.30745" lon="3.21913">
        <ele>108.74</ele>
        <time>2024-09-22T14:03:21.999Z</time>
      </trkpt>
      <trkpt lat="42.30737" lon="3.21924">
        <ele>109.67</ele>
        <time>2024-09-22T14:03:26.999Z</time>
      </trkpt>
      <trkpt lat="42.3073" lon="3.21934">
        <ele>110.63</ele>
        <time>2024-09-22T14:03:31.999Z</time>
      </trkpt>
      <trkpt lat="42.30726" lon="3.21945">
        <ele>111.59</ele>
        <time>2024-09-22T14:03:36.999Z</time>
      </trkpt>
      <trkpt lat="42.30728" lon="3.21963">
        <ele>112.55</ele>
        <time>2024-09-22T14:03:41.999Z</time>
      </trkpt>
      <trkpt lat="42.30735" lon="3.21976">
        <ele>113.5</ele>
        <time>2024-09-22T14:03:46.999Z</time>
      </trkpt>
      <trkpt lat="42.30745" lon="3.21985">
        <ele>114.41</ele>
        <time>2024-09-22T14:03:51.999Z</time>
      </trkpt>
      <trkpt lat="42.30754" lon="3.21992">
        <ele>115.29</ele>
        <time>2024-09-22T14:03:57.000Z</time>
      </trkpt>
      <trkpt lat="42.30765" lon="3.21997">
        <ele>116.12</ele>
        <time>2024-09-22T14:04:02.000Z</time>
      </trkpt>
      <trkpt lat="42.30776" lon="3.22">
        <ele>117.05</ele>
        <time>2024-09-22T14:04:08.000Z</time>
      </trkpt>
      <trkpt lat="42.30786" lon="3.22003">
        <ele>117.77</ele>
        <time>2024-09-22T14:04:13.000Z</time>
      </trkpt>
      <trkpt lat="42.30798" lon="3.22007">
        <ele>118.46</ele>
        <time>2024-09-22T14:04:18.000Z</time>
      </trkpt>
      <trkpt lat="42.3081" lon="3.22007">
        <ele>119.1</ele>
        <time>2024-09-22T14:04:23.000Z</time>
      </trkpt>
      <trkpt lat="42.30822" lon="3.22007">
        <ele>119.72</ele>
        <time>2024-09-22T14:04:28.000Z</time>
      </trkpt>
      <trkpt lat="42.30829" lon="3.22016">
        <ele>122.3</ele>
        <time>2024-09-22T14:06:01.000Z</time>
      </trkpt>
      <trkpt lat="42.30834" lon="3.22037">
        <ele>122.84</ele>
        <time>2024-09-22T14:06:06.000Z</time>
      </trkpt>
      <trkpt lat="42.30827" lon="3.22053">
        <ele>123.35</ele>
        <time>2024-09-22T14:06:11.000Z</time>
      </trkpt>
      <trkpt lat="42.30815" lon="3.22057">
        <ele>123.82</ele>
        <time>2024-09-22T14:06:16.000Z</time>
      </trkpt>
      <trkpt lat="42.30798" lon="3.22057">
        <ele>124.27</ele>
        <time>2024-09-22T14:06:21.000Z</time>
      </trkpt>
      <trkpt lat="42.30781" lon="3.22055">
        <ele>124.69</ele>
        <time>2024-09-22T14:06:26.000Z</time>
      </trkpt>
      <trkpt lat="42.30763" lon="3.22049">
        <ele>125.1</ele>
        <time>2024-09-22T14:06:31.000Z</time>
      </trkpt>
      <trkpt lat="42.30746" lon="3.22053">
        <ele>125.55</ele>
        <time>2024-09-22T14:06:36.000Z</time>
      </trkpt>
      <trkpt lat="42.30733" lon="3.22075">
        <ele>126.05</ele>
        <time>2024-09-22T14:06:41.000Z</time>
      </trkpt>
      <trkpt lat="42.30721" lon="3.22094">
        <ele>126.69</ele>
        <time>2024-09-22T14:06:46.000Z</time>
      </trkpt>
      <trkpt lat="42.30712" lon="3.22112">
        <ele>127.4</ele>
        <time>2024-09-22T14:06:51.000Z</time>
      </trkpt>
      <trkpt lat="42.30705" lon="3.22124">
        <ele>128.18</ele>
        <time>2024-09-22T14:06:56.000Z</time>
      </trkpt>
      <trkpt lat="42.30697" lon="3.22142">
        <ele>128.99</ele>
        <time>2024-09-22T14:07:01.000Z</time>
      </trkpt>
      <trkpt lat="42.30689" lon="3.22159">
        <ele>129.85</ele>
        <time>2024-09-22T14:07:06.000Z</time>
      </trkpt>
      <trkpt lat="42.3068" lon="3.22178">
        <ele>130.76</ele>
        <time>2024-09-22T14:07:11.000Z</time>
      </trkpt>
      <trkpt lat="42.30672" lon="3.22195">
        <ele>131.69</ele>
        <time>2024-09-22T14:07:16.000Z</time>
      </trkpt>
      <trkpt lat="42.30665" lon="3.22212">
        <ele>132.63</ele>
        <time>2024-09-22T14:07:21.000Z</time>
      </trkpt>
      <trkpt lat="42.30657" lon="3.22229">
        <ele>133.59</ele>
        <time>2024-09-22T14:07:26.000Z</time>
      </trkpt>
      <trkpt lat="42.30648" lon="3.2224">
        <ele>134.54</ele>
        <time>2024-09-22T14:07:31.000Z</time>
      </trkpt>
      <trkpt lat="42.30637" lon="3.22249">
        <ele>135.47</ele>
        <time>2024-09-22T14:07:36.000Z</time>
      </trkpt>
      <trkpt lat="42.30626" lon="3.2226">
        <ele>136.4</ele>
        <time>2024-09-22T14:07:41.000Z</time>
      </trkpt>
      <trkpt lat="42.30618" lon="3.22275">
        <ele>137.3</ele>
        <time>2024-09-22T14:07:46.000Z</time>
      </trkpt>
      <trkpt lat="42.30613" lon="3.22293">
        <ele>138.18</ele>
        <time>2024-09-22T14:07:51.000Z</time>
      </trkpt>
      <trkpt lat="42.3061" lon="3.22311">
        <ele>139.07</ele>
        <time>2024-09-22T14:07:56.000Z</time>
      </trkpt>
      <trkpt lat="42.30607" lon="3.22326">
        <ele>139.95</ele>
        <time>2024-09-22T14:08:01.000Z</time>
      </trkpt>
      <trkpt lat="42.30605" lon="3.2234">
        <ele>140.81</ele>
        <time>2024-09-22T14:08:06.000Z</time>
      </trkpt>
      <trkpt lat="42.30604" lon="3.22355">
        <ele>141.69</ele>
        <time>2024-09-22T14:08:11.000Z</time>
      </trkpt>
      <trkpt lat="42.30603" lon="3.2237">
        <ele>142.62</ele>
        <time>2024-09-22T14:08:16.000Z</time>
      </trkpt>
      <trkpt lat="42.30602" lon="3.22384">
        <ele>143.58</ele>
        <time>2024-09-22T14:08:21.000Z</time>
      </trkpt>
      <trkpt lat="42.30601" lon="3.22397">
        <ele>144.53</ele>
        <time>2024-09-22T14:08:26.000Z</time>
      </trkpt>
      <trkpt lat="42.306" lon="3.22411">
        <ele>145.5</ele>
        <time>2024-09-22T14:08:31.000Z</time>
      </trkpt>
      <trkpt lat="42.30602" lon="3.22423">
        <ele>146.45</ele>
        <time>2024-09-22T14:08:36.000Z</time>
      </trkpt>
      <trkpt lat="42.30607" lon="3.22436">
        <ele>147.42</ele>
        <time>2024-09-22T14:08:41.000Z</time>
      </trkpt>
      <trkpt lat="42.30612" lon="3.22446">
        <ele>148.4</ele>
        <time>2024-09-22T14:08:46.000Z</time>
      </trkpt>
      <trkpt lat="42.30617" lon="3.22458">
        <ele>149.37</ele>
        <time>2024-09-22T14:08:51.000Z</time>
      </trkpt>
      <trkpt lat="42.30621" lon="3.22469">
        <ele>150.3</ele>
        <time>2024-09-22T14:08:56.000Z</time>
      </trkpt>
      <trkpt lat="42.30626" lon="3.22482">
        <ele>151.19</ele>
        <time>2024-09-22T14:09:01.000Z</time>
      </trkpt>
      <trkpt lat="42.30631" lon="3.22494">
        <ele>152.05</ele>
        <time>2024-09-22T14:09:06.000Z</time>
      </trkpt>
      <trkpt lat="42.30636" lon="3.22506">
        <ele>152.89</ele>
        <time>2024-09-22T14:09:11.000Z</time>
      </trkpt>
      <trkpt lat="42.30641" lon="3.22517">
        <ele>153.7</ele>
        <time>2024-09-22T14:09:16.000Z</time>
      </trkpt>
      <trkpt lat="42.30646" lon="3.22528">
        <ele>154.47</ele>
        <time>2024-09-22T14:09:21.000Z</time>
      </trkpt>
      <trkpt lat="42.30651" lon="3.2254">
        <ele>155.21</ele>
        <time>2024-09-22T14:09:26.000Z</time>
      </trkpt>
      <trkpt lat="42.30656" lon="3.22551">
        <ele>155.9</ele>
        <time>2024-09-22T14:09:31.000Z</time>
      </trkpt>
      <trkpt lat="42.30661" lon="3.22564">
        <ele>156.54</ele>
        <time>2024-09-22T14:09:36.000Z</time>
      </trkpt>
      <trkpt lat="42.30667" lon="3.22576">
        <ele>157.13</ele>
        <time>2024-09-22T14:09:41.000Z</time>
      </trkpt>
      <trkpt lat="42.30672" lon="3.2259">
        <ele>157.7</ele>
        <time>2024-09-22T14:09:46.000Z</time>
      </trkpt>
      <trkpt lat="42.30676" lon="3.22606">
        <ele>158.23</ele>
        <time>2024-09-22T14:09:51.000Z</time>
      </trkpt>
      <trkpt lat="42.3068" lon="3.22622">
        <ele>158.74</ele>
        <time>2024-09-22T14:09:56.000Z</time>
      </trkpt>
      <trkpt lat="42.30684" lon="3.22637">
        <ele>159.22</ele>
        <time>2024-09-22T14:10:01.000Z</time>
      </trkpt>
      <trkpt lat="42.30689" lon="3.22651">
        <ele>159.68</ele>
        <time>2024-09-22T14:10:06.000Z</time>
      </trkpt>
      <trkpt lat="42.30693" lon="3.22667">
        <ele>160.11</ele>
        <time>2024-09-22T14:10:11.000Z</time>
      </trkpt>
      <trkpt lat="42.30696" lon="3.22683">
        <ele>160.51</ele>
        <time>2024-09-22T14:10:16.000Z</time>
      </trkpt>
      <trkpt lat="42.30701" lon="3.22697">
        <ele>160.88</ele>
        <time>2024-09-22T14:10:21.000Z</time>
      </trkpt>
      <trkpt lat="42.30704" lon="3.22713">
        <ele>161.21</ele>
        <time>2024-09-22T14:10:26.000Z</time>
      </trkpt>
      <trkpt lat="42.30707" lon="3.22728">
        <ele>161.51</ele>
        <time>2024-09-22T14:10:31.000Z</time>
      </trkpt>
      <trkpt lat="42.30707" lon="3.22745">
        <ele>161.79</ele>
        <time>2024-09-22T14:10:36.000Z</time>
      </trkpt>
      <trkpt lat="42.30705" lon="3.22763">
        <ele>162.05</ele>
        <time>2024-09-22T14:10:41.000Z</time>
      </trkpt>
      <trkpt lat="42.30699" lon="3.22782">
        <ele>162.3</ele>
        <time>2024-09-22T14:10:46.000Z</time>
      </trkpt>
      <trkpt lat="42.30682" lon="3.2279">
        <ele>162.55</ele>
        <time>2024-09-22T14:10:51.000Z</time>
      </trkpt>
      <trkpt lat="42.30665" lon="3.2278">
        <ele>162.86</ele>
        <time>2024-09-22T14:10:56.000Z</time>
      </trkpt>
      <trkpt lat="42.30656" lon="3.22761">
        <ele>163.18</ele>
        <time>2024-09-22T14:11:01.000Z</time>
      </trkpt>
      <trkpt lat="42.30652" lon="3.22739">
        <ele>163.51</ele>
        <time>2024-09-22T14:11:06.000Z</time>
      </trkpt>
      <trkpt lat="42.30641" lon="3.22719">
        <ele>164.39</ele>
        <time>2024-09-22T14:11:11.000Z</time>
      </trkpt>
      <trkpt lat="42.30632" lon="3.22703">
        <ele>164.67</ele>
        <time>2024-09-22T14:11:16.000Z</time>
      </trkpt>
      <trkpt lat="42.30625" lon="3.2269">
        <ele>164.95</ele>
        <time>2024-09-22T14:11:21.000Z</time>
      </trkpt>
      <trkpt lat="42.3062" lon="3.22679">
        <ele>165.22</ele>
        <time>2024-09-22T14:11:26.000Z</time>
      </trkpt>
      <trkpt lat="42.30612" lon="3.22667">
        <ele>165.5</ele>
        <time>2024-09-22T14:11:31.000Z</time>
      </trkpt>
      <trkpt lat="42.30603" lon="3.22659">
        <ele>165.76</ele>
        <time>2024-09-22T14:11:36.000Z</time>
      </trkpt>
      <trkpt lat="42.30594" lon="3.22652">
        <ele>166.02</ele>
        <time>2024-09-22T14:11:41.000Z</time>
      </trkpt>
      <trkpt lat="42.30584" lon="3.22646">
        <ele>166.28</ele>
        <time>2024-09-22T14:11:46.000Z</time>
      </trkpt>
      <trkpt lat="42.30575" lon="3.22639">
        <ele>166.52</ele>
        <time>2024-09-22T14:11:51.000Z</time>
      </trkpt>
      <trkpt lat="42.30565" lon="3.22633">
        <ele>166.75</ele>
        <time>2024-09-22T14:11:56.000Z</time>
      </trkpt>
      <trkpt lat="42.30556" lon="3.22626">
        <ele>166.96</ele>
        <time>2024-09-22T14:12:01.000Z</time>
      </trkpt>
      <trkpt lat="42.30547" lon="3.22619">
        <ele>167.2</ele>
        <time>2024-09-22T14:12:06.000Z</time>
      </trkpt>
      <trkpt lat="42.30536" lon="3.22615">
        <ele>167.43</ele>
        <time>2024-09-22T14:12:11.000Z</time>
      </trkpt>
      <trkpt lat="42.30526" lon="3.22615">
        <ele>167.67</ele>
        <time>2024-09-22T14:12:16.000Z</time>
      </trkpt>
      <trkpt lat="42.30516" lon="3.22619">
        <ele>167.95</ele>
        <time>2024-09-22T14:12:21.000Z</time>
      </trkpt>
      <trkpt lat="42.30507" lon="3.22625">
        <ele>168.27</ele>
        <time>2024-09-22T14:12:26.000Z</time>
      </trkpt>
      <trkpt lat="42.30498" lon="3.22631">
        <ele>168.64</ele>
        <time>2024-09-22T14:12:31.000Z</time>
      </trkpt>
      <trkpt lat="42.30489" lon="3.22638">
        <ele>169.05</ele>
        <time>2024-09-22T14:12:36.000Z</time>
      </trkpt>
      <trkpt lat="42.3048" lon="3.22646">
        <ele>169.5</ele>
        <time>2024-09-22T14:12:41.000Z</time>
      </trkpt>
      <trkpt lat="42.30472" lon="3.22652">
        <ele>169.98</ele>
        <time>2024-09-22T14:12:46.000Z</time>
      </trkpt>
      <trkpt lat="42.30463" lon="3.2266">
        <ele>170.47</ele>
        <time>2024-09-22T14:12:51.000Z</time>
      </trkpt>
      <trkpt lat="42.30456" lon="3.22669">
        <ele>170.96</ele>
        <time>2024-09-22T14:12:56.000Z</time>
      </trkpt>
      <trkpt lat="42.30449" lon="3.22679">
        <ele>171.56</ele>
        <time>2024-09-22T14:13:02.000Z</time>
      </trkpt>
      <trkpt lat="42.30443" lon="3.2269">
        <ele>172.06</ele>
        <time>2024-09-22T14:13:07.000Z</time>
      </trkpt>
      <trkpt lat="42.30437" lon="3.22702">
        <ele>172.66</ele>
        <time>2024-09-22T14:13:13.000Z</time>
      </trkpt>
      <trkpt lat="42.30432" lon="3.22714">
        <ele>173.26</ele>
        <time>2024-09-22T14:13:19.000Z</time>
      </trkpt>
      <trkpt lat="42.30427" lon="3.22725">
        <ele>173.74</ele>
        <time>2024-09-22T14:13:24.000Z</time>
      </trkpt>
      <trkpt lat="42.30422" lon="3.22736">
        <ele>174.23</ele>
        <time>2024-09-22T14:13:29.000Z</time>
      </trkpt>
      <trkpt lat="42.30418" lon="3.22747">
        <ele>174.72</ele>
        <time>2024-09-22T14:13:34.000Z</time>
      </trkpt>
      <trkpt lat="42.30413" lon="3.22757">
        <ele>175.22</ele>
        <time>2024-09-22T14:13:39.000Z</time>
      </trkpt>
      <trkpt lat="42.30409" lon="3.22768">
        <ele>175.72</ele>
        <time>2024-09-22T14:13:44.000Z</time>
      </trkpt>
      <trkpt lat="42.30405" lon="3.2278">
        <ele>176.22</ele>
        <time>2024-09-22T14:13:49.000Z</time>
      </trkpt>
      <trkpt lat="42.30401" lon="3.22794">
        <ele>176.81</ele>
        <time>2024-09-22T14:13:55.000Z</time>
      </trkpt>
      <trkpt lat="42.30396" lon="3.22806">
        <ele>177.31</ele>
        <time>2024-09-22T14:14:00.000Z</time>
      </trkpt>
      <trkpt lat="42.3039" lon="3.22817">
        <ele>177.91</ele>
        <time>2024-09-22T14:14:06.000Z</time>
      </trkpt>
      <trkpt lat="42.30387" lon="3.22829">
        <ele>180.37</ele>
        <time>2024-09-22T14:15:00.000Z</time>
      </trkpt>
      <trkpt lat="42.30381" lon="3.2284">
        <ele>181.04</ele>
        <time>2024-09-22T14:15:05.000Z</time>
      </trkpt>
      <trkpt lat="42.30374" lon="3.2285">
        <ele>181.66</ele>
        <time>2024-09-22T14:15:10.000Z</time>
      </trkpt>
      <trkpt lat="42.30368" lon="3.22862">
        <ele>182.25</ele>
        <time>2024-09-22T14:15:15.000Z</time>
      </trkpt>
      <trkpt lat="42.3036" lon="3.22874">
        <ele>182.81</ele>
        <time>2024-09-22T14:15:20.000Z</time>
      </trkpt>
      <trkpt lat="42.30353" lon="3.22885">
        <ele>183.35</ele>
        <time>2024-09-22T14:15:25.000Z</time>
      </trkpt>
      <trkpt lat="42.30346" lon="3.22894">
        <ele>183.87</ele>
        <time>2024-09-22T14:15:30.000Z</time>
      </trkpt>
      <trkpt lat="42.30336" lon="3.22903">
        <ele>184.37</ele>
        <time>2024-09-22T14:15:35.000Z</time>
      </trkpt>
      <trkpt lat="42.30326" lon="3.22907">
        <ele>184.86</ele>
        <time>2024-09-22T14:15:40.000Z</time>
      </trkpt>
      <trkpt lat="42.30315" lon="3.22909">
        <ele>185.33</ele>
        <time>2024-09-22T14:15:45.000Z</time>
      </trkpt>
      <trkpt lat="42.30304" lon="3.22911">
        <ele>185.8</ele>
        <time>2024-09-22T14:15:50.000Z</time>
      </trkpt>
      <trkpt lat="42.30291" lon="3.22916">
        <ele>186.36</ele>
        <time>2024-09-22T14:15:55.999Z</time>
      </trkpt>
      <trkpt lat="42.3028" lon="3.22921">
        <ele>186.82</ele>
        <time>2024-09-22T14:16:00.999Z</time>
      </trkpt>
      <trkpt lat="42.30269" lon="3.2292">
        <ele>187.27</ele>
        <time>2024-09-22T14:16:05.999Z</time>
      </trkpt>
      <trkpt lat="42.30263" lon="3.2291">
        <ele>187.69</ele>
        <time>2024-09-22T14:16:10.999Z</time>
      </trkpt>
      <trkpt lat="42.30255" lon="3.22901">
        <ele>188.36</ele>
        <time>2024-09-22T14:16:22.999Z</time>
      </trkpt>
      <trkpt lat="42.30246" lon="3.22893">
        <ele>188.73</ele>
        <time>2024-09-22T14:16:27.999Z</time>
      </trkpt>
      <trkpt lat="42.30237" lon="3.22887">
        <ele>189.09</ele>
        <time>2024-09-22T14:16:32.999Z</time>
      </trkpt>
      <trkpt lat="42.30227" lon="3.22885">
        <ele>189.44</ele>
        <time>2024-09-22T14:16:37.999Z</time>
      </trkpt>
      <trkpt lat="42.30218" lon="3.22886">
        <ele>189.8</ele>
        <time>2024-09-22T14:16:42.999Z</time>
      </trkpt>
      <trkpt lat="42.30209" lon="3.22888">
        <ele>190.15</ele>
        <time>2024-09-22T14:16:47.999Z</time>
      </trkpt>
      <trkpt lat="42.30199" lon="3.22893">
        <ele>190.58</ele>
        <time>2024-09-22T14:16:53.999Z</time>
      </trkpt>
      <trkpt lat="42.3019" lon="3.22898">
        <ele>190.95</ele>
        <time>2024-09-22T14:16:58.999Z</time>
      </trkpt>
      <trkpt lat="42.30182" lon="3.22903">
        <ele>191.32</ele>
        <time>2024-09-22T14:17:03.999Z</time>
      </trkpt>
      <trkpt lat="42.30174" lon="3.22909">
        <ele>191.7</ele>
        <time>2024-09-22T14:17:08.999Z</time>
      </trkpt>
      <trkpt lat="42.30164" lon="3.22915">
        <ele>192.17</ele>
        <time>2024-09-22T14:17:14.999Z</time>
      </trkpt>
      <trkpt lat="42.30155" lon="3.22921">
        <ele>192.57</ele>
        <time>2024-09-22T14:17:19.999Z</time>
      </trkpt>
      <trkpt lat="42.30147" lon="3.22927">
        <ele>192.97</ele>
        <time>2024-09-22T14:17:24.999Z</time>
      </trkpt>
      <trkpt lat="42.30137" lon="3.22932">
        <ele>193.38</ele>
        <time>2024-09-22T14:17:29.999Z</time>
      </trkpt>
      <trkpt lat="42.30128" lon="3.22936">
        <ele>193.79</ele>
        <time>2024-09-22T14:17:34.999Z</time>
      </trkpt>
      <trkpt lat="42.30119" lon="3.2294">
        <ele>194.2</ele>
        <time>2024-09-22T14:17:39.999Z</time>
      </trkpt>
      <trkpt lat="42.3011" lon="3.22946">
        <ele>194.61</ele>
        <time>2024-09-22T14:17:44.999Z</time>
      </trkpt>
      <trkpt lat="42.301" lon="3.22952">
        <ele>195.02</ele>
        <time>2024-09-22T14:17:49.999Z</time>
      </trkpt>
      <trkpt lat="42.30091" lon="3.22958">
        <ele>195.44</ele>
        <time>2024-09-22T14:17:54.999Z</time>
      </trkpt>
      <trkpt lat="42.3008" lon="3.22964">
        <ele>195.85</ele>
        <time>2024-09-22T14:17:59.999Z</time>
      </trkpt>
      <trkpt lat="42.3007" lon="3.22971">
        <ele>196.27</ele>
        <time>2024-09-22T14:18:04.999Z</time>
      </trkpt>
      <trkpt lat="42.30061" lon="3.22977">
        <ele>196.7</ele>
        <time>2024-09-22T14:18:09.999Z</time>
      </trkpt>
      <trkpt lat="42.30052" lon="3.22983">
        <ele>197.12</ele>
        <time>2024-09-22T14:18:14.999Z</time>
      </trkpt>
      <trkpt lat="42.30043" lon="3.22989">
        <ele>197.55</ele>
        <time>2024-09-22T14:18:19.999Z</time>
      </trkpt>
      <trkpt lat="42.30034" lon="3.22995">
        <ele>197.97</ele>
        <time>2024-09-22T14:18:24.999Z</time>
      </trkpt>
      <trkpt lat="42.30025" lon="3.22999">
        <ele>198.39</ele>
        <time>2024-09-22T14:18:29.999Z</time>
      </trkpt>
      <trkpt lat="42.30016" lon="3.23004">
        <ele>198.8</ele>
        <time>2024-09-22T14:18:34.999Z</time>
      </trkpt>
      <trkpt lat="42.30008" lon="3.2301">
        <ele>199.2</ele>
        <time>2024-09-22T14:18:39.999Z</time>
      </trkpt>
      <trkpt lat="42.29999" lon="3.23018">
        <ele>199.6</ele>
        <time>2024-09-22T14:18:44.999Z</time>
      </trkpt>
      <trkpt lat="42.29991" lon="3.23026">
        <ele>200</ele>
        <time>2024-09-22T14:18:49.999Z</time>
      </trkpt>
      <trkpt lat="42.29984" lon="3.23037">
        <ele>200.47</ele>
        <time>2024-09-22T14:18:55.999Z</time>
      </trkpt>
      <trkpt lat="42.29978" lon="3.23048">
        <ele>200.85</ele>
        <time>2024-09-22T14:19:00.999Z</time>
      </trkpt>
      <trkpt lat="42.29973" lon="3.2306">
        <ele>201.23</ele>
        <time>2024-09-22T14:19:05.999Z</time>
      </trkpt>
      <trkpt lat="42.2997" lon="3.23072">
        <ele>201.61</ele>
        <time>2024-09-22T14:19:10.999Z</time>
      </trkpt>
      <trkpt lat="42.29966" lon="3.23085">
        <ele>201.98</ele>
        <time>2024-09-22T14:19:15.999Z</time>
      </trkpt>
      <trkpt lat="42.29963" lon="3.23098">
        <ele>202.34</ele>
        <time>2024-09-22T14:19:20.999Z</time>
      </trkpt>
      <trkpt lat="42.29959" lon="3.2311">
        <ele>202.7</ele>
        <time>2024-09-22T14:19:25.999Z</time>
      </trkpt>
      <trkpt lat="42.29953" lon="3.23121">
        <ele>203.06</ele>
        <time>2024-09-22T14:19:30.999Z</time>
      </trkpt>
      <trkpt lat="42.29949" lon="3.23131">
        <ele>203.42</ele>
        <time>2024-09-22T14:19:35.999Z</time>
      </trkpt>
      <trkpt lat="42.29942" lon="3.23144">
        <ele>203.77</ele>
        <time>2024-09-22T14:19:40.999Z</time>
      </trkpt>
      <trkpt lat="42.29935" lon="3.23156">
        <ele>204.13</ele>
        <time>2024-09-22T14:19:45.999Z</time>
      </trkpt>
      <trkpt lat="42.2993" lon="3.23167">
        <ele>204.49</ele>
        <time>2024-09-22T14:19:50.999Z</time>
      </trkpt>
      <trkpt lat="42.29923" lon="3.23177">
        <ele>204.84</ele>
        <time>2024-09-22T14:19:55.999Z</time>
      </trkpt>
      <trkpt lat="42.29917" lon="3.2319">
        <ele>205.2</ele>
        <time>2024-09-22T14:20:00.999Z</time>
      </trkpt>
      <trkpt lat="42.29911" lon="3.23201">
        <ele>205.55</ele>
        <time>2024-09-22T14:20:05.999Z</time>
      </trkpt>
      <trkpt lat="42.29903" lon="3.23215">
        <ele>205.89</ele>
        <time>2024-09-22T14:20:10.999Z</time>
      </trkpt>
      <trkpt lat="42.29897" lon="3.23227">
        <ele>206.24</ele>
        <time>2024-09-22T14:20:15.999Z</time>
      </trkpt>
      <trkpt lat="42.2989" lon="3.23239">
        <ele>206.58</ele>
        <time>2024-09-22T14:20:20.999Z</time>
      </trkpt>
      <trkpt lat="42.29883" lon="3.23252">
        <ele>206.92</ele>
        <time>2024-09-22T14:20:25.999Z</time>
      </trkpt>
      <trkpt lat="42.29876" lon="3.23263">
        <ele>207.27</ele>
        <time>2024-09-22T14:20:30.999Z</time>
      </trkpt>
      <trkpt lat="42.29869" lon="3.23276">
        <ele>207.61</ele>
        <time>2024-09-22T14:20:35.999Z</time>
      </trkpt>
      <trkpt lat="42.29861" lon="3.23288">
        <ele>207.99</ele>
        <time>2024-09-22T14:20:40.999Z</time>
      </trkpt>
      <trkpt lat="42.29854" lon="3.23298">
        <ele>208.4</ele>
        <time>2024-09-22T14:20:45.999Z</time>
      </trkpt>
      <trkpt lat="42.29846" lon="3.23308">
        <ele>208.83</ele>
        <time>2024-09-22T14:20:50.999Z</time>
      </trkpt>
      <trkpt lat="42.29839" lon="3.23318">
        <ele>209.29</ele>
        <time>2024-09-22T14:20:55.999Z</time>
      </trkpt>
      <trkpt lat="42.29833" lon="3.23329">
        <ele>209.9</ele>
        <time>2024-09-22T14:21:01.999Z</time>
      </trkpt>
      <trkpt lat="42.29828" lon="3.23341">
        <ele>210.45</ele>
        <time>2024-09-22T14:21:06.999Z</time>
      </trkpt>
      <trkpt lat="42.29823" lon="3.23353">
        <ele>211.03</ele>
        <time>2024-09-22T14:21:11.999Z</time>
      </trkpt>
      <trkpt lat="42.29821" lon="3.23366">
        <ele>211.62</ele>
        <time>2024-09-22T14:21:16.999Z</time>
      </trkpt>
      <trkpt lat="42.29817" lon="3.2338">
        <ele>212.21</ele>
        <time>2024-09-22T14:21:21.999Z</time>
      </trkpt>
      <trkpt lat="42.29817" lon="3.23395">
        <ele>212.79</ele>
        <time>2024-09-22T14:21:26.999Z</time>
      </trkpt>
      <trkpt lat="42.29817" lon="3.23409">
        <ele>213.38</ele>
        <time>2024-09-22T14:21:31.999Z</time>
      </trkpt>
      <trkpt lat="42.29817" lon="3.23427">
        <ele>213.99</ele>
        <time>2024-09-22T14:21:36.999Z</time>
      </trkpt>
      <trkpt lat="42.29816" lon="3.23443">
        <ele>214.65</ele>
        <time>2024-09-22T14:21:41.999Z</time>
      </trkpt>
      <trkpt lat="42.29817" lon="3.23458">
        <ele>215.35</ele>
        <time>2024-09-22T14:21:46.999Z</time>
      </trkpt>
      <trkpt lat="42.29816" lon="3.23473">
        <ele>216.08</ele>
        <time>2024-09-22T14:21:51.999Z</time>
      </trkpt>
      <trkpt lat="42.29812" lon="3.23486">
        <ele>216.79</ele>
        <time>2024-09-22T14:21:56.999Z</time>
      </trkpt>
      <trkpt lat="42.29807" lon="3.23498">
        <ele>217.5</ele>
        <time>2024-09-22T14:22:01.999Z</time>
      </trkpt>
      <trkpt lat="42.29801" lon="3.23513">
        <ele>218.2</ele>
        <time>2024-09-22T14:22:06.999Z</time>
      </trkpt>
      <trkpt lat="42.29795" lon="3.23525">
        <ele>218.86</ele>
        <time>2024-09-22T14:22:11.999Z</time>
      </trkpt>
      <trkpt lat="42.2979" lon="3.23536">
        <ele>219.49</ele>
        <time>2024-09-22T14:22:16.999Z</time>
      </trkpt>
      <trkpt lat="42.29784" lon="3.23546">
        <ele>220.09</ele>
        <time>2024-09-22T14:22:21.999Z</time>
      </trkpt>
      <trkpt lat="42.29777" lon="3.23558">
        <ele>220.77</ele>
        <time>2024-09-22T14:22:27.999Z</time>
      </trkpt>
      <trkpt lat="42.2977" lon="3.23567">
        <ele>221.3</ele>
        <time>2024-09-22T14:22:32.999Z</time>
      </trkpt>
      <trkpt lat="42.29763" lon="3.23576">
        <ele>221.82</ele>
        <time>2024-09-22T14:22:37.999Z</time>
      </trkpt>
      <trkpt lat="42.29755" lon="3.23587">
        <ele>222.32</ele>
        <time>2024-09-22T14:22:42.999Z</time>
      </trkpt>
      <trkpt lat="42.29747" lon="3.23596">
        <ele>222.92</ele>
        <time>2024-09-22T14:22:48.999Z</time>
      </trkpt>
      <trkpt lat="42.2974" lon="3.23606">
        <ele>223.41</ele>
        <time>2024-09-22T14:22:53.999Z</time>
      </trkpt>
      <trkpt lat="42.29734" lon="3.23616">
        <ele>223.9</ele>
        <time>2024-09-22T14:22:58.999Z</time>
      </trkpt>
      <trkpt lat="42.29731" lon="3.23629">
        <ele>224.39</ele>
        <time>2024-09-22T14:23:03.999Z</time>
      </trkpt>
      <trkpt lat="42.29729" lon="3.23642">
        <ele>224.88</ele>
        <time>2024-09-22T14:23:08.999Z</time>
      </trkpt>
      <trkpt lat="42.29723" lon="3.23652">
        <ele>225.38</ele>
        <time>2024-09-22T14:23:13.999Z</time>
      </trkpt>
      <trkpt lat="42.29713" lon="3.23659">
        <ele>225.86</ele>
        <time>2024-09-22T14:23:18.999Z</time>
      </trkpt>
      <trkpt lat="42.29704" lon="3.2366">
        <ele>226.34</ele>
        <time>2024-09-22T14:23:23.999Z</time>
      </trkpt>
      <trkpt lat="42.29696" lon="3.23653">
        <ele>226.92</ele>
        <time>2024-09-22T14:23:29.999Z</time>
      </trkpt>
      <trkpt lat="42.29691" lon="3.23641">
        <ele>227.59</ele>
        <time>2024-09-22T14:23:36.999Z</time>
      </trkpt>
      <trkpt lat="42.29685" lon="3.23631">
        <ele>228.06</ele>
        <time>2024-09-22T14:23:41.999Z</time>
      </trkpt>
      <trkpt lat="42.29679" lon="3.23621">
        <ele>228.54</ele>
        <time>2024-09-22T14:23:46.999Z</time>
      </trkpt>
      <trkpt lat="42.2967" lon="3.23625">
        <ele>229</ele>
        <time>2024-09-22T14:23:51.999Z</time>
      </trkpt>
      <trkpt lat="42.29666" lon="3.23637">
        <ele>229.54</ele>
        <time>2024-09-22T14:23:57.999Z</time>
      </trkpt>
      <trkpt lat="42.29664" lon="3.2365">
        <ele>230.07</ele>
        <time>2024-09-22T14:24:03.999Z</time>
      </trkpt>
      <trkpt lat="42.29671" lon="3.23656">
        <ele>231.36</ele>
        <time>2024-09-22T14:24:26.999Z</time>
      </trkpt>
      <trkpt lat="42.29664" lon="3.23664">
        <ele>256.13</ele>
        <time>2024-09-22T14:39:57.000Z</time>
      </trkpt>
      <trkpt lat="42.29654" lon="3.23669">
        <ele>257.04</ele>
        <time>2024-09-22T14:40:13.000Z</time>
      </trkpt>
      <trkpt lat="42.2965" lon="3.23686">
        <ele>257.29</ele>
        <time>2024-09-22T14:40:18.000Z</time>
      </trkpt>
      <trkpt lat="42.29642" lon="3.23713">
        <ele>258.16</ele>
        <time>2024-09-22T14:40:23.999Z</time>
      </trkpt>
      <trkpt lat="42.29633" lon="3.23737">
        <ele>259.07</ele>
        <time>2024-09-22T14:40:28.999Z</time>
      </trkpt>
      <trkpt lat="42.29628" lon="3.23764">
        <ele>259.5</ele>
        <time>2024-09-22T14:40:33.999Z</time>
      </trkpt>
      <trkpt lat="42.29635" lon="3.23796">
        <ele>259.64</ele>
        <time>2024-09-22T14:40:38.999Z</time>
      </trkpt>
      <trkpt lat="42.29648" lon="3.23833">
        <ele>259.69</ele>
        <time>2024-09-22T14:40:43.999Z</time>
      </trkpt>
      <trkpt lat="42.29662" lon="3.23874">
        <ele>259.7</ele>
        <time>2024-09-22T14:40:48.999Z</time>
      </trkpt>
      <trkpt lat="42.29665" lon="3.23922">
        <ele>259.68</ele>
        <time>2024-09-22T14:40:53.999Z</time>
      </trkpt>
      <trkpt lat="42.29654" lon="3.2397">
        <ele>259.6</ele>
        <time>2024-09-22T14:40:58.999Z</time>
      </trkpt>
      <trkpt lat="42.29645" lon="3.24016">
        <ele>258.6</ele>
        <time>2024-09-22T14:41:03.999Z</time>
      </trkpt>
      <trkpt lat="42.29642" lon="3.24064">
        <ele>257.85</ele>
        <time>2024-09-22T14:41:08.999Z</time>
      </trkpt>
      <trkpt lat="42.29627" lon="3.24111">
        <ele>256.91</ele>
        <time>2024-09-22T14:41:13.999Z</time>
      </trkpt>
      <trkpt lat="42.29611" lon="3.24159">
        <ele>255.99</ele>
        <time>2024-09-22T14:41:18.999Z</time>
      </trkpt>
      <trkpt lat="42.29594" lon="3.24207">
        <ele>254.61</ele>
        <time>2024-09-22T14:41:23.999Z</time>
      </trkpt>
      <trkpt lat="42.29579" lon="3.24253">
        <ele>253.6</ele>
        <time>2024-09-22T14:41:28.999Z</time>
      </trkpt>
      <trkpt lat="42.29572" lon="3.243">
        <ele>252.67</ele>
        <time>2024-09-22T14:41:33.999Z</time>
      </trkpt>
      <trkpt lat="42.29595" lon="3.24335">
        <ele>250.85</ele>
        <time>2024-09-22T14:41:38.999Z</time>
      </trkpt>
      <trkpt lat="42.29623" lon="3.24367">
        <ele>248.64</ele>
        <time>2024-09-22T14:41:43.999Z</time>
      </trkpt>
      <trkpt lat="42.29628" lon="3.24404">
        <ele>246.57</ele>
        <time>2024-09-22T14:41:48.999Z</time>
      </trkpt>
      <trkpt lat="42.29587" lon="3.24403">
        <ele>244.75</ele>
        <time>2024-09-22T14:41:53.999Z</time>
      </trkpt>
      <trkpt lat="42.2955" lon="3.24416">
        <ele>243.66</ele>
        <time>2024-09-22T14:41:58.999Z</time>
      </trkpt>
      <trkpt lat="42.29523" lon="3.24455">
        <ele>242.15</ele>
        <time>2024-09-22T14:42:03.999Z</time>
      </trkpt>
      <trkpt lat="42.295" lon="3.24502">
        <ele>242.19</ele>
        <time>2024-09-22T14:42:08.999Z</time>
      </trkpt>
      <trkpt lat="42.29489" lon="3.24553">
        <ele>242.16</ele>
        <time>2024-09-22T14:42:13.999Z</time>
      </trkpt>
      <trkpt lat="42.29512" lon="3.24601">
        <ele>239.88</ele>
        <time>2024-09-22T14:42:18.999Z</time>
      </trkpt>
      <trkpt lat="42.29526" lon="3.24658">
        <ele>235.79</ele>
        <time>2024-09-22T14:42:23.999Z</time>
      </trkpt>
      <trkpt lat="42.29515" lon="3.24717">
        <ele>231.95</ele>
        <time>2024-09-22T14:42:28.999Z</time>
      </trkpt>
      <trkpt lat="42.29505" lon="3.24772">
        <ele>228.48</ele>
        <time>2024-09-22T14:42:33.999Z</time>
      </trkpt>
      <trkpt lat="42.29466" lon="3.24799">
        <ele>227.54</ele>
        <time>2024-09-22T14:42:38.999Z</time>
      </trkpt>
      <trkpt lat="42.2946" lon="3.24851">
        <ele>226.62</ele>
        <time>2024-09-22T14:42:43.999Z</time>
      </trkpt>
      <trkpt lat="42.2944" lon="3.24893">
        <ele>223.99</ele>
        <time>2024-09-22T14:42:48.999Z</time>
      </trkpt>
      <trkpt lat="42.29404" lon="3.24916">
        <ele>221.65</ele>
        <time>2024-09-22T14:42:53.999Z</time>
      </trkpt>
      <trkpt lat="42.29375" lon="3.2496">
        <ele>220.77</ele>
        <time>2024-09-22T14:42:58.999Z</time>
      </trkpt>
      <trkpt lat="42.29346" lon="3.25004">
        <ele>219.8</ele>
        <time>2024-09-22T14:43:03.999Z</time>
      </trkpt>
      <trkpt lat="42.2934" lon="3.25059">
        <ele>217.55</ele>
        <time>2024-09-22T14:43:08.999Z</time>
      </trkpt>
      <trkpt lat="42.29347" lon="3.25116">
        <ele>214.76</ele>
        <time>2024-09-22T14:43:13.999Z</time>
      </trkpt>
      <trkpt lat="42.29341" lon="3.25173">
        <ele>211.85</ele>
        <time>2024-09-22T14:43:18.999Z</time>
      </trkpt>
      <trkpt lat="42.29319" lon="3.25222">
        <ele>210.19</ele>
        <time>2024-09-22T14:43:23.999Z</time>
      </trkpt>
      <trkpt lat="42.29303" lon="3.2527">
        <ele>208.75</ele>
        <time>2024-09-22T14:43:28.999Z</time>
      </trkpt>
      <trkpt lat="42.29296" lon="3.25318">
        <ele>207.37</ele>
        <time>2024-09-22T14:43:33.999Z</time>
      </trkpt>
      <trkpt lat="42.29301" lon="3.25368">
        <ele>205.67</ele>
        <time>2024-09-22T14:43:38.999Z</time>
      </trkpt>
      <trkpt lat="42.29305" lon="3.25421">
        <ele>202.54</ele>
        <time>2024-09-22T14:43:43.999Z</time>
      </trkpt>
      <trkpt lat="42.29313" lon="3.25474">
        <ele>198.51</ele>
        <time>2024-09-22T14:43:48.999Z</time>
      </trkpt>
      <trkpt lat="42.29352" lon="3.25495">
        <ele>194.3</ele>
        <time>2024-09-22T14:43:53.999Z</time>
      </trkpt>
      <trkpt lat="42.29397" lon="3.255">
        <ele>190.75</ele>
        <time>2024-09-22T14:43:58.999Z</time>
      </trkpt>
      <trkpt lat="42.29403" lon="3.25554">
        <ele>188.47</ele>
        <time>2024-09-22T14:44:03.999Z</time>
      </trkpt>
      <trkpt lat="42.29401" lon="3.25574">
        <ele>188.2</ele>
        <time>2024-09-22T14:44:08.999Z</time>
      </trkpt>
      <trkpt lat="42.29404" lon="3.25586">
        <ele>184.73</ele>
        <time>2024-09-22T14:46:08.999Z</time>
      </trkpt>
      <trkpt lat="42.29418" lon="3.25595">
        <ele>181.38</ele>
        <time>2024-09-22T14:46:13.999Z</time>
      </trkpt>
      <trkpt lat="42.29451" lon="3.25599">
        <ele>177.02</ele>
        <time>2024-09-22T14:46:18.999Z</time>
      </trkpt>
      <trkpt lat="42.29492" lon="3.25593">
        <ele>175.03</ele>
        <time>2024-09-22T14:46:23.999Z</time>
      </trkpt>
      <trkpt lat="42.29535" lon="3.25586">
        <ele>173.38</ele>
        <time>2024-09-22T14:46:28.999Z</time>
      </trkpt>
      <trkpt lat="42.29579" lon="3.25599">
        <ele>171.95</ele>
        <time>2024-09-22T14:46:33.999Z</time>
      </trkpt>
      <trkpt lat="42.29607" lon="3.25648">
        <ele>170.65</ele>
        <time>2024-09-22T14:46:38.999Z</time>
      </trkpt>
      <trkpt lat="42.29577" lon="3.25692">
        <ele>168.76</ele>
        <time>2024-09-22T14:46:43.999Z</time>
      </trkpt>
      <trkpt lat="42.29539" lon="3.25726">
        <ele>167.24</ele>
        <time>2024-09-22T14:46:48.999Z</time>
      </trkpt>
      <trkpt lat="42.2951" lon="3.25771">
        <ele>166.29</ele>
        <time>2024-09-22T14:46:53.999Z</time>
      </trkpt>
      <trkpt lat="42.29484" lon="3.25819">
        <ele>165.44</ele>
        <time>2024-09-22T14:46:58.999Z</time>
      </trkpt>
      <trkpt lat="42.29489" lon="3.25879">
        <ele>163.37</ele>
        <time>2024-09-22T14:47:03.999Z</time>
      </trkpt>
      <trkpt lat="42.29512" lon="3.25933">
        <ele>159.84</ele>
        <time>2024-09-22T14:47:08.999Z</time>
      </trkpt>
      <trkpt lat="42.29488" lon="3.25966">
        <ele>156.32</ele>
        <time>2024-09-22T14:47:13.999Z</time>
      </trkpt>
      <trkpt lat="42.29446" lon="3.25958">
        <ele>154.11</ele>
        <time>2024-09-22T14:47:18.999Z</time>
      </trkpt>
      <trkpt lat="42.29408" lon="3.25952">
        <ele>152.96</ele>
        <time>2024-09-22T14:47:23.999Z</time>
      </trkpt>
      <trkpt lat="42.29373" lon="3.25975">
        <ele>151.47</ele>
        <time>2024-09-22T14:47:28.999Z</time>
      </trkpt>
      <trkpt lat="42.29349" lon="3.26015">
        <ele>149.55</ele>
        <time>2024-09-22T14:47:33.999Z</time>
      </trkpt>
      <trkpt lat="42.29334" lon="3.2606">
        <ele>147.58</ele>
        <time>2024-09-22T14:47:38.999Z</time>
      </trkpt>
      <trkpt lat="42.29337" lon="3.26106">
        <ele>146.36</ele>
        <time>2024-09-22T14:47:43.999Z</time>
      </trkpt>
      <trkpt lat="42.29367" lon="3.26138">
        <ele>144.18</ele>
        <time>2024-09-22T14:47:48.999Z</time>
      </trkpt>
      <trkpt lat="42.29399" lon="3.26167">
        <ele>141.71</ele>
        <time>2024-09-22T14:47:53.999Z</time>
      </trkpt>
      <trkpt lat="42.29417" lon="3.2621">
        <ele>139.36</ele>
        <time>2024-09-22T14:47:58.999Z</time>
      </trkpt>
      <trkpt lat="42.29378" lon="3.26234">
        <ele>137.16</ele>
        <time>2024-09-22T14:48:03.999Z</time>
      </trkpt>
      <trkpt lat="42.29337" lon="3.26255">
        <ele>135.47</ele>
        <time>2024-09-22T14:48:08.999Z</time>
      </trkpt>
      <trkpt lat="42.29299" lon="3.26286">
        <ele>133.78</ele>
        <time>2024-09-22T14:48:13.999Z</time>
      </trkpt>
      <trkpt lat="42.29283" lon="3.26339">
        <ele>132.41</ele>
        <time>2024-09-22T14:48:18.999Z</time>
      </trkpt>
      <trkpt lat="42.29288" lon="3.26396">
        <ele>130.3</ele>
        <time>2024-09-22T14:48:23.999Z</time>
      </trkpt>
      <trkpt lat="42.29306" lon="3.26445">
        <ele>128.17</ele>
        <time>2024-09-22T14:48:28.999Z</time>
      </trkpt>
      <trkpt lat="42.29292" lon="3.26496">
        <ele>125.48</ele>
        <time>2024-09-22T14:48:33.999Z</time>
      </trkpt>
      <trkpt lat="42.29262" lon="3.26533">
        <ele>122.92</ele>
        <time>2024-09-22T14:48:38.999Z</time>
      </trkpt>
      <trkpt lat="42.29245" lon="3.26582">
        <ele>120.43</ele>
        <time>2024-09-22T14:48:43.999Z</time>
      </trkpt>
      <trkpt lat="42.29244" lon="3.26641">
        <ele>120.02</ele>
        <time>2024-09-22T14:48:48.999Z</time>
      </trkpt>
      <trkpt lat="42.29267" lon="3.26698">
        <ele>118.4</ele>
        <time>2024-09-22T14:48:53.999Z</time>
      </trkpt>
      <trkpt lat="42.29269" lon="3.26765">
        <ele>115.02</ele>
        <time>2024-09-22T14:48:58.999Z</time>
      </trkpt>
      <trkpt lat="42.29269" lon="3.26833">
        <ele>111.45</ele>
        <time>2024-09-22T14:49:03.999Z</time>
      </trkpt>
      <trkpt lat="42.29276" lon="3.26903">
        <ele>108.64</ele>
        <time>2024-09-22T14:49:08.999Z</time>
      </trkpt>
      <trkpt lat="42.29285" lon="3.26963">
        <ele>105.44</ele>
        <time>2024-09-22T14:49:13.999Z</time>
      </trkpt>
      <trkpt lat="42.29245" lon="3.26983">
        <ele>103.72</ele>
        <time>2024-09-22T14:49:18.999Z</time>
      </trkpt>
      <trkpt lat="42.29203" lon="3.27014">
        <ele>105.2</ele>
        <time>2024-09-22T14:49:23.999Z</time>
      </trkpt>
      <trkpt lat="42.29155" lon="3.2702">
        <ele>103.56</ele>
        <time>2024-09-22T14:49:28.999Z</time>
      </trkpt>
      <trkpt lat="42.29105" lon="3.27022">
        <ele>100.57</ele>
        <time>2024-09-22T14:49:33.999Z</time>
      </trkpt>
      <trkpt lat="42.29059" lon="3.26992">
        <ele>96.43</ele>
        <time>2024-09-22T14:49:38.999Z</time>
      </trkpt>
      <trkpt lat="42.29009" lon="3.26981">
        <ele>93.61</ele>
        <time>2024-09-22T14:49:43.999Z</time>
      </trkpt>
      <trkpt lat="42.28957" lon="3.26975">
        <ele>91.5</ele>
        <time>2024-09-22T14:49:48.999Z</time>
      </trkpt>
      <trkpt lat="42.28909" lon="3.26982">
        <ele>88.97</ele>
        <time>2024-09-22T14:49:53.999Z</time>
      </trkpt>
      <trkpt lat="42.28895" lon="3.27044">
        <ele>85.36</ele>
        <time>2024-09-22T14:49:58.999Z</time>
      </trkpt>
      <trkpt lat="42.28909" lon="3.27108">
        <ele>81.08</ele>
        <time>2024-09-22T14:50:03.999Z</time>
      </trkpt>
      <trkpt lat="42.28937" lon="3.27164">
        <ele>75.29</ele>
        <time>2024-09-22T14:50:08.999Z</time>
      </trkpt>
      <trkpt lat="42.28982" lon="3.27202">
        <ele>70.02</ele>
        <time>2024-09-22T14:50:13.999Z</time>
      </trkpt>
      <trkpt lat="42.29027" lon="3.27237">
        <ele>65.65</ele>
        <time>2024-09-22T14:50:18.999Z</time>
      </trkpt>
      <trkpt lat="42.29073" lon="3.27236">
        <ele>61.28</ele>
        <time>2024-09-22T14:50:23.999Z</time>
      </trkpt>
      <trkpt lat="42.29079" lon="3.27292">
        <ele>57.96</ele>
        <time>2024-09-22T14:50:28.999Z</time>
      </trkpt>
      <trkpt lat="42.29051" lon="3.27338">
        <ele>56.52</ele>
        <time>2024-09-22T14:50:33.999Z</time>
      </trkpt>
      <trkpt lat="42.29034" lon="3.27367">
        <ele>54.62</ele>
        <time>2024-09-22T14:50:38.999Z</time>
      </trkpt>
      <trkpt lat="42.29023" lon="3.27382">
        <ele>52.33</ele>
        <time>2024-09-22T14:50:43.999Z</time>
      </trkpt>
      <trkpt lat="42.29006" lon="3.27398">
        <ele>48.17</ele>
        <time>2024-09-22T14:50:48.999Z</time>
      </trkpt>
      <trkpt lat="42.28995" lon="3.27424">
        <ele>44.81</ele>
        <time>2024-09-22T14:50:53.999Z</time>
      </trkpt>
      <trkpt lat="42.28999" lon="3.27443">
        <ele>44.15</ele>
        <time>2024-09-22T14:50:58.999Z</time>
      </trkpt>
      <trkpt lat="42.29" lon="3.27458">
        <ele>43.48</ele>
        <time>2024-09-22T14:51:03.999Z</time>
      </trkpt>
      <trkpt lat="42.29003" lon="3.27477">
        <ele>42.62</ele>
        <time>2024-09-22T14:51:08.999Z</time>
      </trkpt>
      <trkpt lat="42.29007" lon="3.27506">
        <ele>36.59</ele>
        <time>2024-09-22T14:51:13.999Z</time>
      </trkpt>
      <trkpt lat="42.29006" lon="3.27537">
        <ele>34.88</ele>
        <time>2024-09-22T14:51:18.999Z</time>
      </trkpt>
      <trkpt lat="42.29" lon="3.27568">
        <ele>34.85</ele>
        <time>2024-09-22T14:51:23.999Z</time>
      </trkpt>
      <trkpt lat="42.28993" lon="3.27604">
        <ele>36.03</ele>
        <time>2024-09-22T14:51:28.999Z</time>
      </trkpt>
      <trkpt lat="42.28987" lon="3.27636">
        <ele>37.87</ele>
        <time>2024-09-22T14:51:33.999Z</time>
      </trkpt>
      <trkpt lat="42.28982" lon="3.27665">
        <ele>37.91</ele>
        <time>2024-09-22T14:51:38.999Z</time>
      </trkpt>
      <trkpt lat="42.28973" lon="3.27696">
        <ele>36.92</ele>
        <time>2024-09-22T14:51:43.999Z</time>
      </trkpt>
      <trkpt lat="42.28958" lon="3.2772">
        <ele>35.89</ele>
        <time>2024-09-22T14:51:48.999Z</time>
      </trkpt>
      <trkpt lat="42.28941" lon="3.27744">
        <ele>35.29</ele>
        <time>2024-09-22T14:51:53.999Z</time>
      </trkpt>
      <trkpt lat="42.28928" lon="3.27762">
        <ele>35.12</ele>
        <time>2024-09-22T14:51:58.999Z</time>
      </trkpt>
      <trkpt lat="42.28917" lon="3.27768">
        <ele>34.97</ele>
        <time>2024-09-22T14:52:03.999Z</time>
      </trkpt>
      <trkpt lat="42.28905" lon="3.27771">
        <ele>34.59</ele>
        <time>2024-09-22T14:52:08.999Z</time>
      </trkpt>
      <trkpt lat="42.28912" lon="3.27778">
        <ele>34.61</ele>
        <time>2024-09-22T14:52:47.000Z</time>
      </trkpt>
      <trkpt lat="42.28926" lon="3.2778">
        <ele>34.43</ele>
        <time>2024-09-22T14:52:52.000Z</time>
      </trkpt>
      <trkpt lat="42.28937" lon="3.27774">
        <ele>34.18</ele>
        <time>2024-09-22T14:52:57.000Z</time>
      </trkpt>
      <trkpt lat="42.28946" lon="3.27761">
        <ele>33.86</ele>
        <time>2024-09-22T14:53:02.000Z</time>
      </trkpt>
      <trkpt lat="42.28954" lon="3.27747">
        <ele>33.51</ele>
        <time>2024-09-22T14:53:07.000Z</time>
      </trkpt>
      <trkpt lat="42.28944" lon="3.27752">
        <ele>32.61</ele>
        <time>2024-09-22T14:53:23.000Z</time>
      </trkpt>
      <trkpt lat="42.28935" lon="3.27765">
        <ele>32.33</ele>
        <time>2024-09-22T14:53:28.000Z</time>
      </trkpt>
      <trkpt lat="42.28925" lon="3.27767">
        <ele>30.52</ele>
        <time>2024-09-22T14:53:46.000Z</time>
      </trkpt>
      <trkpt lat="42.28917" lon="3.27762">
        <ele>29.87</ele>
        <time>2024-09-22T14:54:04.000Z</time>
      </trkpt>
      <trkpt lat="42.28907" lon="3.27768">
        <ele>25.41</ele>
        <time>2024-09-22T14:58:30.000Z</time>
      </trkpt>
      <trkpt lat="42.289" lon="3.27758">
        <ele>25.31</ele>
        <time>2024-09-22T14:58:36.000Z</time>
      </trkpt>
      <trkpt lat="42.28894" lon="3.27749">
        <ele>25.23</ele>
        <time>2024-09-22T14:58:41.000Z</time>
      </trkpt>
      <trkpt lat="42.28892" lon="3.27737">
        <ele>25.1</ele>
        <time>2024-09-22T14:58:51.000Z</time>
      </trkpt>
      <trkpt lat="42.28893" lon="3.27751">
        <ele>26</ele>
        <time>2024-09-22T15:05:39.999Z</time>
      </trkpt>
      <trkpt lat="42.28895" lon="3.27764">
        <ele>26.39</ele>
        <time>2024-09-22T15:05:44.999Z</time>
      </trkpt>
      <trkpt lat="42.28892" lon="3.27776">
        <ele>26.78</ele>
        <time>2024-09-22T15:05:51.999Z</time>
      </trkpt>
      <trkpt lat="42.28885" lon="3.27784">
        <ele>26.98</ele>
        <time>2024-09-22T15:05:56.999Z</time>
      </trkpt>
      <trkpt lat="42.28878" lon="3.27795">
        <ele>27.14</ele>
        <time>2024-09-22T15:06:01.999Z</time>
      </trkpt>
      <trkpt lat="42.28879" lon="3.2781">
        <ele>27.26</ele>
        <time>2024-09-22T15:06:06.999Z</time>
      </trkpt>
      <trkpt lat="42.28883" lon="3.27829">
        <ele>27.34</ele>
        <time>2024-09-22T15:06:11.999Z</time>
      </trkpt>
      <trkpt lat="42.28888" lon="3.27848">
        <ele>27.32</ele>
        <time>2024-09-22T15:06:16.999Z</time>
      </trkpt>
      <trkpt lat="42.28893" lon="3.27867">
        <ele>27.2</ele>
        <time>2024-09-22T15:06:21.999Z</time>
      </trkpt>
      <trkpt lat="42.28897" lon="3.2788">
        <ele>27.04</ele>
        <time>2024-09-22T15:06:26.999Z</time>
      </trkpt>
      <trkpt lat="42.28899" lon="3.27895">
        <ele>26.84</ele>
        <time>2024-09-22T15:06:31.999Z</time>
      </trkpt>
      <trkpt lat="42.289" lon="3.2791">
        <ele>26.61</ele>
        <time>2024-09-22T15:06:36.999Z</time>
      </trkpt>
      <trkpt lat="42.289" lon="3.27929">
        <ele>26.36</ele>
        <time>2024-09-22T15:06:41.999Z</time>
      </trkpt>
      <trkpt lat="42.28901" lon="3.27947">
        <ele>26.09</ele>
        <time>2024-09-22T15:06:46.999Z</time>
      </trkpt>
      <trkpt lat="42.28899" lon="3.2796">
        <ele>25.82</ele>
        <time>2024-09-22T15:06:51.999Z</time>
      </trkpt>
      <trkpt lat="42.28894" lon="3.27972">
        <ele>25.56</ele>
        <time>2024-09-22T15:06:56.999Z</time>
      </trkpt>
      <trkpt lat="42.28889" lon="3.27983">
        <ele>25.33</ele>
        <time>2024-09-22T15:07:01.999Z</time>
      </trkpt>
      <trkpt lat="42.28882" lon="3.27994">
        <ele>25.15</ele>
        <time>2024-09-22T15:07:06.999Z</time>
      </trkpt>
      <trkpt lat="42.28875" lon="3.28009">
        <ele>25</ele>
        <time>2024-09-22T15:07:11.999Z</time>
      </trkpt>
      <trkpt lat="42.28871" lon="3.28026">
        <ele>24.89</ele>
        <time>2024-09-22T15:07:16.999Z</time>
      </trkpt>
      <trkpt lat="42.28871" lon="3.28045">
        <ele>24.81</ele>
        <time>2024-09-22T15:07:21.999Z</time>
      </trkpt>
      <trkpt lat="42.28876" lon="3.28062">
        <ele>24.74</ele>
        <time>2024-09-22T15:07:26.999Z</time>
      </trkpt>
      <trkpt lat="42.28879" lon="3.28075">
        <ele>24.67</ele>
        <time>2024-09-22T15:07:32.999Z</time>
      </trkpt>
      <trkpt lat="42.2888" lon="3.28088">
        <ele>24.6</ele>
        <time>2024-09-22T15:07:38.999Z</time>
      </trkpt>
      <trkpt lat="42.28889" lon="3.28093">
        <ele>24.61</ele>
        <time>2024-09-22T15:08:05.999Z</time>
      </trkpt>
      <trkpt lat="42.28903" lon="3.28115">
        <ele>24.61</ele>
        <time>2024-09-22T15:08:10.999Z</time>
      </trkpt>
      <trkpt lat="42.28913" lon="3.28127">
        <ele>24.58</ele>
        <time>2024-09-22T15:08:15.999Z</time>
      </trkpt>
      <trkpt lat="42.28918" lon="3.28137">
        <ele>24.51</ele>
        <time>2024-09-22T15:08:22.999Z</time>
      </trkpt>
      <trkpt lat="42.28923" lon="3.28125">
        <ele>24.34</ele>
        <time>2024-09-22T15:08:50.999Z</time>
      </trkpt>
      <trkpt lat="42.28921" lon="3.28111">
        <ele>24.45</ele>
        <time>2024-09-22T15:09:52.999Z</time>
      </trkpt>
      <trkpt lat="42.2892" lon="3.28099">
        <ele>24.51</ele>
        <time>2024-09-22T15:10:09.999Z</time>
      </trkpt>
      <trkpt lat="42.28928" lon="3.28107">
        <ele>24.55</ele>
        <time>2024-09-22T15:10:21.999Z</time>
      </trkpt>
      <trkpt lat="42.28936" lon="3.28113">
        <ele>24.55</ele>
        <time>2024-09-22T15:10:29.999Z</time>
      </trkpt>
      <trkpt lat="42.28944" lon="3.28118">
        <ele>24.56</ele>
        <time>2024-09-22T15:10:36.999Z</time>
      </trkpt>
      <trkpt lat="42.28953" lon="3.28124">
        <ele>24.57</ele>
        <time>2024-09-22T15:10:43.999Z</time>
      </trkpt>
      <trkpt lat="42.28962" lon="3.2813">
        <ele>24.6</ele>
        <time>2024-09-22T15:10:53.999Z</time>
      </trkpt>
      <trkpt lat="42.28971" lon="3.28137">
        <ele>24.63</ele>
        <time>2024-09-22T15:11:02.999Z</time>
      </trkpt>
      <trkpt lat="42.28979" lon="3.28144">
        <ele>24.63</ele>
        <time>2024-09-22T15:11:11.999Z</time>
      </trkpt>
      <trkpt lat="42.28989" lon="3.28147">
        <ele>24.64</ele>
        <time>2024-09-22T15:11:20.999Z</time>
      </trkpt>
      <trkpt lat="42.28991" lon="3.28135">
        <ele>24.66</ele>
        <time>2024-09-22T15:11:43.999Z</time>
      </trkpt>
      <trkpt lat="42.28982" lon="3.28126">
        <ele>24.95</ele>
        <time>2024-09-22T15:12:19.999Z</time>
      </trkpt>
      <trkpt lat="42.28989" lon="3.28135">
        <ele>25.08</ele>
        <time>2024-09-22T15:13:23.999Z</time>
      </trkpt>
      <trkpt lat="42.28996" lon="3.28127">
        <ele>26.98</ele>
        <time>2024-09-22T15:14:31.999Z</time>
      </trkpt>
      <trkpt lat="42.28986" lon="3.28125">
        <ele>28.02</ele>
        <time>2024-09-22T15:15:37.999Z</time>
      </trkpt>
      <trkpt lat="42.28994" lon="3.28136">
        <ele>30.6</ele>
        <time>2024-09-22T15:17:00.999Z</time>
      </trkpt>
      <trkpt lat="42.28983" lon="3.28135">
        <ele>30.82</ele>
        <time>2024-09-22T15:18:10.000Z</time>
      </trkpt>
      <trkpt lat="42.28975" lon="3.28127">
        <ele>30.79</ele>
        <time>2024-09-22T15:18:19.000Z</time>
      </trkpt>
      <trkpt lat="42.28967" lon="3.28121">
        <ele>30.75</ele>
        <time>2024-09-22T15:18:27.000Z</time>
      </trkpt>
      <trkpt lat="42.28958" lon="3.28116">
        <ele>30.7</ele>
        <time>2024-09-22T15:18:34.000Z</time>
      </trkpt>
      <trkpt lat="42.28949" lon="3.28111">
        <ele>30.62</ele>
        <time>2024-09-22T15:18:44.000Z</time>
      </trkpt>
      <trkpt lat="42.28942" lon="3.28102">
        <ele>30.52</ele>
        <time>2024-09-22T15:18:55.000Z</time>
      </trkpt>
      <trkpt lat="42.28935" lon="3.28093">
        <ele>30.47</ele>
        <time>2024-09-22T15:19:01.000Z</time>
      </trkpt>
      <trkpt lat="42.2893" lon="3.28103">
        <ele>30.03</ele>
        <time>2024-09-22T15:19:50.000Z</time>
      </trkpt>
      <trkpt lat="42.28929" lon="3.28116">
        <ele>29.83</ele>
        <time>2024-09-22T15:20:53.000Z</time>
      </trkpt>
      <trkpt lat="42.28927" lon="3.28104">
        <ele>29.97</ele>
        <time>2024-09-22T15:21:25.000Z</time>
      </trkpt>
      <trkpt lat="42.28919" lon="3.28095">
        <ele>29.98</ele>
        <time>2024-09-22T15:21:36.000Z</time>
      </trkpt>
      <trkpt lat="42.28913" lon="3.28086">
        <ele>29.95</ele>
        <time>2024-09-22T15:21:44.000Z</time>
      </trkpt>
      <trkpt lat="42.28907" lon="3.28077">
        <ele>29.88</ele>
        <time>2024-09-22T15:21:58.000Z</time>
      </trkpt>
      <trkpt lat="42.28902" lon="3.28064">
        <ele>29.85</ele>
        <time>2024-09-22T15:22:03.000Z</time>
      </trkpt>
      <trkpt lat="42.28902" lon="3.28051">
        <ele>29.81</ele>
        <time>2024-09-22T15:22:09.000Z</time>
      </trkpt>
      <trkpt lat="42.28905" lon="3.28039">
        <ele>29.77</ele>
        <time>2024-09-22T15:22:16.000Z</time>
      </trkpt>
      <trkpt lat="42.2891" lon="3.28028">
        <ele>29.73</ele>
        <time>2024-09-22T15:22:23.000Z</time>
      </trkpt>
      <trkpt lat="42.28918" lon="3.28019">
        <ele>29.69</ele>
        <time>2024-09-22T15:22:29.000Z</time>
      </trkpt>
      <trkpt lat="42.28927" lon="3.28017">
        <ele>29.46</ele>
        <time>2024-09-22T15:23:01.000Z</time>
      </trkpt>
      <trkpt lat="42.28923" lon="3.28029">
        <ele>29.38</ele>
        <time>2024-09-22T15:23:20.000Z</time>
      </trkpt>
      <trkpt lat="42.28917" lon="3.28039">
        <ele>29.38</ele>
        <time>2024-09-22T15:23:26.000Z</time>
      </trkpt>
      <trkpt lat="42.28914" lon="3.28052">
        <ele>29.38</ele>
        <time>2024-09-22T15:23:31.000Z</time>
      </trkpt>
      <trkpt lat="42.28912" lon="3.28065">
        <ele>29.37</ele>
        <time>2024-09-22T15:23:39.000Z</time>
      </trkpt>
      <trkpt lat="42.28916" lon="3.28078">
        <ele>29.34</ele>
        <time>2024-09-22T15:23:45.000Z</time>
      </trkpt>
      <trkpt lat="42.28926" lon="3.28095">
        <ele>29.11</ele>
        <time>2024-09-22T15:23:50.000Z</time>
      </trkpt>
      <trkpt lat="42.28942" lon="3.28109">
        <ele>29.03</ele>
        <time>2024-09-22T15:23:55.000Z</time>
      </trkpt>
      <trkpt lat="42.28955" lon="3.28122">
        <ele>28.99</ele>
        <time>2024-09-22T15:24:00.000Z</time>
      </trkpt>
      <trkpt lat="42.28969" lon="3.28132">
        <ele>28.96</ele>
        <time>2024-09-22T15:24:05.000Z</time>
      </trkpt>
      <trkpt lat="42.28979" lon="3.28139">
        <ele>28.91</ele>
        <time>2024-09-22T15:24:10.000Z</time>
      </trkpt>
      <trkpt lat="42.28988" lon="3.28146">
        <ele>28.87</ele>
        <time>2024-09-22T15:24:16.000Z</time>
      </trkpt>
      <trkpt lat="42.28989" lon="3.28133">
        <ele>28.87</ele>
        <time>2024-09-22T15:24:37.000Z</time>
      </trkpt>
    </trkseg>
  </trk>
</gpx>